ECMWFFLT2_sfc_thetae_057.txt.gz
Theta_e
347 347 347 345 344 345 348 350 349 349 348 348 348 348 349 348 348 348 347 347 345 344 344 344 344 343 346 344 345 345 345 344 343 343 343 342 342 342 342 343 342 342 342 342 341 341 339 337 338 340 342 341 340 333 331 331 331 333 332 335 337 333
346 346 345 344 344 345 347 347 343 344 345 346 347 347 346 345 347 344 346 344 342 344 342 341 343 347 342 344 343 345 344 343 343 343 343 342 342 341 341 341 342 342 342 340 338 327 327 333 337 339 340 339 331 331 331 331 331 332 333 333 335 337
345 345 345 344 343 343 343 341 341 342 344 346 347 346 344 343 339 338 339 341 341 340 340 341 342 344 344 345 344 344 344 343 343 342 342 342 342 342 341 341 341 341 339 337 324 323 324 324 324 336 338 331 328 330 330 330 331 332 332 333 333 340
344 345 344 343 343 343 343 340 340 341 341 340 340 340 339 338 337 337 338 338 338 340 339 340 347 348 346 343 343 344 344 343 343 342 342 340 341 341 340 340 340 335 329 328 323 325 325 325 325 324 325 327 328 329 330 330 329 330 331 336 333 341
344 344 343 343 342 342 342 339 338 339 339 338 336 336 337 337 336 335 336 336 336 337 337 339 340 341 339 340 338 337 337 335 333 333 336 329 330 332 329 326 327 328 323 325 325 326 327 327 326 325 326 329 330 329 330 331 331 331 332 332 334 343
343 343 343 341 341 342 341 338 336 337 337 335 334 335 336 336 335 334 335 336 336 335 336 337 338 338 338 337 336 334 332 329 329 331 332 328 327 327 327 327 327 327 325 325 328 327 327 327 326 326 328 329 330 330 330 331 331 330 331 330 334 342
342 341 341 342 341 341 339 337 336 335 335 334 333 333 334 334 334 334 334 336 334 333 333 335 336 336 335 335 334 331 330 330 328 328 331 330 329 329 328 327 327 326 326 327 329 328 328 327 324 328 328 329 329 329 329 329 330 331 330 331 338 342
340 340 339 341 339 338 337 336 335 338 336 336 333 332 333 334 335 335 334 335 336 332 333 333 332 332 331 332 331 330 329 330 330 329 331 329 330 329 327 326 327 325 328 328 329 327 327 328 326 327 328 328 328 326 326 328 329 330 330 332 336 341
339 339 339 339 338 338 337 337 337 334 333 338 332 332 333 335 334 335 336 335 337 332 330 331 330 329 329 331 330 330 330 329 329 329 329 328 331 329 328 327 327 327 325 327 326 327 327 327 326 325 327 328 328 327 327 328 328 329 329 330 334 338
338 338 338 337 337 337 337 336 335 333 334 336 332 332 333 333 334 335 335 334 334 332 330 329 329 327 330 331 332 330 331 328 328 328 329 330 329 329 328 326 326 328 327 326 328 328 326 326 326 326 325 327 326 327 327 327 327 328 329 329 331 335
338 338 337 337 337 337 337 335 335 333 335 333 332 334 333 333 334 334 334 332 332 333 330 329 329 328 330 331 330 330 329 328 326 326 328 329 330 330 329 326 324 326 325 326 326 328 326 324 323 326 327 327 327 327 328 328 328 327 329 329 330 334
337 337 336 336 337 336 336 336 335 334 333 332 334 334 334 334 333 333 334 330 330 331 332 329 329 329 329 328 327 328 329 328 326 327 327 328 328 328 329 330 329 328 329 329 328 327 325 323 323 325 326 327 327 328 328 328 328 328 329 330 330 332
337 337 336 336 336 335 335 336 335 334 334 335 335 335 334 334 331 332 332 330 330 331 331 329 328 330 331 327 326 326 327 328 327 326 325 328 330 329 329 329 329 329 329 329 328 325 326 323 324 323 325 328 328 328 329 329 329 329 330 330 329 330
335 336 336 336 335 335 335 334 335 334 336 335 335 334 334 333 332 331 331 330 331 331 329 329 330 329 328 327 326 326 326 329 330 327 327 329 329 328 327 328 329 330 331 328 324 323 322 323 323 324 325 325 326 327 328 329 329 329 330 329 328 328
335 336 337 336 335 334 333 334 334 334 334 333 333 333 333 333 332 330 330 329 330 331 329 330 330 329 327 327 326 324 325 330 331 326 326 326 327 325 325 327 330 330 327 326 324 324 322 322 322 324 325 326 328 329 330 330 330 330 329 327 328 329
335 335 337 335 332 332 333 332 333 336 332 331 331 330 331 331 330 329 330 329 329 332 329 328 328 328 328 327 326 326 326 330 330 327 327 327 327 325 325 327 329 328 326 326 325 321 321 323 324 326 327 328 329 330 330 330 330 330 329 329 328 327
333 335 335 334 331 331 332 332 333 334 332 330 329 329 329 329 329 329 329 329 329 332 328 328 328 328 328 327 326 327 328 329 328 327 328 327 325 325 327 327 327 325 326 326 325 324 324 324 326 327 327 327 328 329 330 331 329 327 328 327 326 327
333 335 334 333 331 330 331 332 332 332 333 330 329 329 330 330 328 328 329 328 329 331 330 329 328 329 327 329 328 328 328 328 326 325 326 325 323 323 323 326 325 325 326 325 324 325 325 324 325 325 326 327 328 329 330 331 331 330 327 327 326 328
332 332 332 332 331 330 330 331 330 329 329 328 329 330 329 328 327 327 327 328 329 331 332 329 330 329 328 330 329 328 327 325 326 325 326 322 322 324 324 322 323 324 325 324 323 323 323 323 325 326 327 328 329 329 330 330 330 330 329 329 330 331
331 331 331 332 331 331 332 332 331 330 330 328 327 329 327 327 328 327 329 329 329 329 332 331 330 330 330 329 329 327 326 326 326 326 325 324 322 325 323 323 323 324 325 327 325 324 324 326 327 327 327 328 329 330 329 330 330 330 330 329 328 328
329 330 331 331 331 331 330 329 329 329 327 325 326 325 327 327 327 328 330 331 331 331 331 332 331 330 329 333 329 327 327 326 326 326 325 325 325 324 324 326 325 324 324 324 322 323 325 326 325 323 325 325 326 328 329 328 328 328 328 329 329 329
328 330 331 331 331 332 331 330 329 327 324 325 327 326 325 326 327 330 329 331 331 331 331 331 331 330 330 329 327 327 327 327 326 325 324 324 323 327 325 325 324 321 320 320 321 324 324 317 317 320 320 320 322 325 326 326 326 326 327 329 329 330
327 329 330 331 330 329 326 328 327 324 327 325 327 327 328 328 330 330 328 329 330 330 331 330 330 330 328 328 328 327 327 326 326 328 325 324 324 324 323 324 324 323 321 322 323 324 322 315 316 319 320 319 316 317 320 323 324 325 327 327 329 329
326 327 328 330 329 326 328 327 325 326 326 324 323 327 327 328 327 327 326 326 325 328 329 329 329 330 328 327 327 327 326 326 326 326 325 323 321 322 321 322 323 323 322 321 320 322 323 320 318 318 309 309 315 315 313 315 318 322 326 326 326 325
326 326 326 328 327 326 326 322 323 323 324 324 324 324 324 321 321 324 322 323 324 324 327 327 326 326 328 325 324 325 325 324 324 323 324 323 323 324 324 323 322 322 323 322 319 318 321 320 319 317 315 313 311 309 311 316 318 318 323 323 325 327
326 325 326 326 326 326 324 322 322 322 321 320 320 321 320 321 318 320 321 318 320 322 324 323 322 324 325 324 321 321 321 323 322 323 323 322 322 322 321 322 322 323 319 318 320 317 317 320 321 322 317 314 313 310 312 317 315 311 320 323 324 325
325 325 325 324 323 324 321 322 323 324 323 322 321 319 317 317 318 315 317 318 319 319 321 322 320 320 321 322 320 320 319 320 321 321 322 321 322 323 323 324 322 321 320 320 319 316 318 319 319 320 319 317 320 318 320 315 309 315 313 318 322 323
325 325 325 323 321 322 321 321 322 321 321 321 321 318 317 315 315 317 317 317 318 317 318 319 318 317 318 321 320 318 318 319 321 321 323 322 322 320 323 324 323 321 321 322 320 319 318 318 319 317 318 316 317 318 315 310 315 314 314 313 315 322
324 324 321 322 320 320 322 321 321 320 320 319 318 317 318 317 317 317 316 315 318 317 318 317 317 317 316 318 320 318 317 318 318 319 321 321 319 321 322 321 320 320 320 318 319 319 319 318 316 316 315 314 316 314 314 314 315 313 314 314 314 316
322 322 322 322 320 319 320 320 319 319 318 317 318 316 316 316 315 314 315 313 314 315 315 316 316 316 316 316 317 318 318 317 317 319 320 319 317 317 317 318 318 319 319 319 317 320 320 317 317 316 316 316 314 312 313 312 311 313 315 316 314 315
322 321 322 323 321 319 318 319 319 318 318 317 318 317 315 315 314 314 314 312 313 313 313 313 315 315 315 316 318 318 318 317 318 320 319 317 317 317 316 318 318 318 319 319 318 318 316 315 315 316 314 316 316 316 313 309 312 312 311 313 314 315
321 321 321 322 320 318 318 319 320 319 318 318 318 317 316 315 314 314 314 313 312 312 311 312 312 313 313 314 317 316 317 316 316 314 314 314 315 316 316 317 317 317 317 316 318 319 316 315 314 314 313 314 315 312 312 315 315 314 314 315 316 315
321 320 321 320 318 318 320 320 319 318 318 318 317 317 317 316 315 314 313 312 312 311 310 313 311 313 311 311 315 315 315 314 313 313 313 314 313 314 314 314 314 314 315 316 316 317 316 315 316 315 314 312 313 313 314 315 315 314 315 316 316 313
321 321 321 320 319 320 321 319 317 317 317 317 316 317 317 316 316 315 314 313 312 311 311 312 311 312 312 312 312 313 313 312 311 312 312 312 312 312 311 311 310 311 311 310 313 314 314 313 313 313 315 315 313 313 315 316 315 316 315 315 313 312
320 320 321 320 319 320 320 318 317 317 317 316 316 315 315 317 316 314 313 313 312 311 312 310 312 312 313 311 311 311 312 312 311 311 312 312 313 310 310 311 310 310 310 310 312 314 312 314 315 313 312 315 315 314 315 314 316 316 317 316 315 312
321 321 321 320 319 320 318 317 317 317 316 317 317 315 316 317 316 315 314 313 312 311 311 311 310 311 311 310 311 312 311 310 309 309 310 310 310 309 308 309 308 309 310 312 310 309 307 308 309 310 313 312 317 315 316 315 315 315 314 314 314 312
321 321 321 320 318 319 318 317 316 316 316 316 316 315 316 316 315 314 314 313 312 311 311 311 313 311 309 308 310 310 310 309 309 309 308 309 308 308 308 308 308 307 308 307 309 307 306 308 307 309 311 313 315 314 314 315 315 314 313 311 311 310

ECMWFFLT2_sfc_thetae_060.txt.gz
Theta_e
347 347 347 346 346 346 348 349 348 349 349 348 348 348 348 348 346 346 346 346 345 343 343 343 344 344 346 345 345 345 344 343 343 344 344 344 344 343 343 343 342 341 339 337 336 337 338 340 342 342 342 343 342 336 333 333 334 335 334 337 338 334
346 347 346 346 347 346 345 346 344 345 346 346 347 347 345 344 346 344 346 344 342 344 341 341 343 346 343 345 344 344 343 343 343 343 342 342 342 341 341 342 341 339 337 336 333 327 329 336 340 342 341 343 336 332 333 333 333 334 335 336 336 337
346 346 345 346 346 346 345 344 342 343 345 346 346 345 343 343 340 341 341 342 342 340 340 341 342 344 344 345 344 344 344 343 342 343 342 342 342 341 341 340 339 337 335 333 327 325 326 326 329 338 339 336 332 332 332 332 333 334 334 336 335 339
345 345 345 344 345 344 344 344 343 341 341 343 343 342 341 340 340 341 341 340 340 340 339 340 346 346 345 343 343 344 343 342 342 341 341 341 341 340 340 339 337 334 331 329 326 327 327 327 327 327 330 332 332 331 332 332 333 333 334 338 335 340
344 345 344 344 343 342 342 343 343 342 341 340 339 339 339 338 339 339 339 339 339 339 337 339 340 341 340 339 337 336 335 335 336 335 337 332 331 331 329 327 327 329 326 328 328 327 327 327 329 329 331 332 331 331 332 333 333 333 334 336 338 341
344 344 343 343 343 343 342 340 340 339 338 338 338 338 338 337 338 337 337 338 339 337 337 339 339 339 338 337 336 334 333 332 333 332 333 330 329 329 328 328 328 328 328 328 328 328 330 330 329 330 331 331 331 332 332 332 333 334 335 336 340 341
343 343 343 343 343 342 340 340 339 338 336 336 338 337 336 336 337 336 335 338 336 336 337 338 338 338 336 335 334 333 332 332 331 331 332 331 330 329 328 328 328 328 327 329 329 328 328 328 329 330 330 331 331 331 331 332 333 334 334 336 340 342
342 342 341 343 342 340 339 338 339 339 337 338 337 336 335 336 336 335 335 336 337 335 336 337 337 336 335 334 334 334 331 331 331 331 332 332 330 328 327 327 328 327 329 329 329 329 329 328 328 330 330 330 330 330 331 332 333 333 334 336 340 341
342 341 341 342 341 339 338 338 339 336 336 339 335 335 336 336 335 336 335 336 337 333 334 335 334 334 334 333 334 334 332 331 331 331 330 331 330 328 328 327 328 328 327 327 328 328 328 328 328 329 330 330 330 329 331 332 332 333 334 336 339 342
341 341 340 341 340 338 337 337 336 336 337 336 334 334 336 335 335 335 334 334 334 333 333 332 332 330 333 333 334 333 331 330 331 330 330 330 330 328 327 327 328 328 328 327 329 330 328 327 328 328 328 329 329 329 330 331 332 333 333 335 338 341
341 340 340 339 339 338 338 336 335 336 337 334 334 335 334 334 334 334 335 332 332 333 331 330 330 330 332 333 332 330 329 329 328 329 330 330 330 329 327 326 326 326 326 327 328 328 327 327 326 328 329 329 329 330 330 331 332 333 334 335 337 339
340 339 339 338 338 337 337 336 335 336 334 334 335 334 334 333 333 334 334 330 331 331 332 329 329 329 332 332 331 330 329 327 327 329 329 329 328 329 328 328 328 328 329 329 328 327 325 326 325 327 328 329 330 330 330 331 332 333 334 335 336 338
339 338 338 337 337 337 337 336 334 334 333 334 334 334 333 333 333 334 333 329 330 331 331 329 328 330 332 331 330 329 328 329 328 329 328 329 329 329 329 329 329 330 329 328 327 326 326 326 326 326 329 329 329 330 330 331 331 333 334 334 334 335
338 337 336 336 335 335 336 335 334 334 335 334 334 333 334 333 333 333 332 329 330 331 329 329 329 329 328 328 327 328 328 328 329 329 328 328 328 328 329 329 329 330 329 327 324 325 325 325 326 327 327 328 328 329 330 330 331 332 332 332 332 333
337 336 336 335 334 333 334 334 334 335 334 334 334 334 333 333 332 332 332 329 330 331 330 329 330 329 327 327 326 326 327 330 330 329 328 327 327 327 329 329 330 328 327 327 325 326 324 324 326 327 328 329 329 330 331 331 331 332 332 331 333 332
336 335 335 334 332 332 333 334 335 336 334 334 333 333 333 333 332 331 330 329 330 331 329 329 329 328 328 327 326 327 329 331 331 328 328 328 327 327 329 331 330 328 326 326 325 324 325 326 327 327 329 330 331 331 331 331 331 331 331 332 331 331
335 335 334 333 332 332 333 334 336 335 333 333 332 332 332 331 331 330 328 329 330 332 328 329 329 329 328 327 327 328 330 332 331 329 329 327 325 327 329 329 328 328 327 325 325 325 326 327 327 328 329 329 330 331 330 331 330 330 330 330 330 331
334 335 334 333 333 333 334 335 335 334 333 331 331 332 331 331 330 329 328 329 330 331 329 329 329 328 328 329 328 329 330 331 330 329 329 328 326 326 328 329 326 327 327 325 325 325 325 326 327 327 328 329 330 331 331 331 331 331 330 329 329 330
334 334 333 333 333 334 334 334 334 332 331 330 331 331 330 329 328 328 328 329 331 331 331 329 329 329 329 331 329 328 330 329 329 329 329 327 326 327 326 325 326 325 327 326 325 325 326 327 327 328 328 329 330 330 331 331 330 330 330 332 333 331
333 333 333 333 333 333 333 332 330 331 330 330 330 330 328 327 327 328 329 329 330 330 331 330 330 329 330 329 328 328 329 328 328 328 328 327 326 326 325 325 325 326 326 326 327 327 328 329 328 327 327 328 330 330 330 330 330 330 330 329 329 330
332 333 332 332 332 332 331 331 331 330 328 328 328 328 327 326 326 327 329 329 329 330 330 331 331 330 329 332 329 327 327 327 327 327 327 327 327 326 325 326 326 327 326 324 325 328 329 329 326 323 326 325 326 328 329 329 329 329 329 329 330 330
331 332 332 332 332 333 332 332 331 329 327 327 327 326 324 325 326 328 329 329 330 330 330 330 331 330 331 330 328 328 327 327 327 326 327 326 325 327 326 325 325 324 325 325 323 327 327 325 322 321 320 320 322 325 327 327 327 328 329 330 330 329
331 331 332 333 333 331 331 332 331 327 327 324 324 325 326 327 329 328 328 329 330 330 330 330 330 331 330 329 328 328 327 327 327 328 326 326 326 326 326 325 324 324 322 325 325 326 323 320 321 323 321 319 317 317 321 324 326 327 328 328 329 329
330 331 332 333 332 331 331 329 327 326 324 324 324 326 326 327 327 328 327 327 327 328 329 329 330 330 329 328 327 327 327 327 327 328 327 326 326 326 325 324 323 324 324 321 323 323 325 322 323 321 313 312 316 317 313 316 319 323 327 326 327 326
329 330 331 331 330 330 328 326 324 323 325 325 325 324 324 323 325 327 325 325 325 327 328 328 327 328 329 326 326 327 327 326 326 326 327 326 326 326 326 325 324 324 324 323 320 321 322 323 321 321 318 315 312 312 313 317 319 319 324 325 326 326
328 329 330 329 329 329 327 325 323 323 321 320 321 322 323 324 323 324 324 320 323 325 326 326 325 326 327 326 325 325 326 326 325 325 325 325 325 324 324 324 324 325 323 323 322 319 320 322 323 322 318 318 316 313 314 318 318 312 321 324 325 325
328 328 329 328 328 326 324 324 324 324 323 323 322 317 317 319 321 316 319 320 320 321 322 324 323 324 325 326 323 324 324 324 325 324 326 324 324 325 325 324 324 324 324 322 322 320 320 320 321 322 320 319 321 320 322 318 313 316 313 319 323 323
328 328 328 327 326 324 324 323 323 322 323 322 322 319 317 315 315 318 319 318 319 318 319 319 319 320 322 324 323 322 322 323 324 324 326 324 325 323 324 325 324 324 323 324 323 322 320 320 321 320 319 319 320 320 317 315 319 317 315 313 316 323
326 327 325 325 324 323 324 323 323 322 321 320 319 318 318 318 317 318 317 316 317 317 317 317 317 317 319 321 325 320 320 320 321 323 326 322 322 323 324 324 322 322 322 322 322 322 321 320 320 319 317 316 318 317 318 318 317 318 317 315 315 317
324 324 323 322 322 321 322 322 322 321 319 318 318 316 316 315 314 315 316 315 315 316 315 315 315 316 316 318 319 320 318 319 319 322 324 321 321 321 322 323 322 322 322 321 320 322 322 321 321 320 319 318 316 316 316 316 316 318 319 320 315 315
322 322 322 320 320 320 320 321 321 320 319 317 316 315 314 313 313 314 315 314 315 313 313 314 315 315 316 317 319 321 319 319 321 325 321 320 321 322 320 321 320 321 321 321 320 320 320 319 320 319 319 320 319 319 318 315 316 316 318 317 316 316
321 321 320 319 318 318 319 320 320 320 319 318 317 316 315 314 314 314 314 313 311 312 312 312 312 313 314 317 319 318 319 318 318 317 317 318 319 319 319 320 319 320 320 319 319 320 319 318 318 318 318 319 319 317 314 318 318 318 319 318 318 314
320 320 319 318 317 317 318 319 319 319 318 318 317 316 315 314 313 314 313 312 312 312 311 313 312 313 312 315 318 317 316 316 316 317 316 317 317 318 318 319 319 318 318 319 319 319 319 319 319 319 319 317 318 316 317 319 318 318 320 320 318 313
320 320 318 317 317 317 317 318 318 318 318 319 318 317 316 315 314 314 314 314 313 313 313 314 312 312 312 315 316 317 315 313 314 314 315 314 314 315 315 317 317 318 318 316 317 318 318 317 318 318 319 318 317 316 317 318 319 320 320 318 315 312
319 319 317 316 316 317 317 316 317 318 318 318 318 318 316 316 315 314 313 313 312 312 314 312 312 312 314 313 313 313 314 313 313 313 314 314 313 312 313 313 313 313 313 313 316 317 316 317 317 316 318 319 317 317 318 318 320 320 320 319 315 312
319 319 318 317 317 317 317 316 316 316 317 318 318 317 316 316 316 315 314 313 312 313 314 313 312 312 312 313 313 314 314 312 311 311 312 312 311 311 310 311 311 312 313 315 314 315 314 316 316 316 317 317 318 317 317 318 320 320 320 319 316 313
318 319 318 317 317 317 316 316 316 316 316 316 316 316 316 315 314 314 314 313 313 313 313 313 313 312 310 311 312 313 312 311 311 310 310 310 310 310 309 310 310 310 310 310 312 309 310 313 312 314 316 317 318 317 317 318 319 319 318 317 316 315

ECMWFFLT2_sfc_thetae_063.txt.gz
Theta_e
348 349 350 351 350 350 352 350 350 349 349 349 349 349 349 349 348 348 348 347 345 350 350 349 348 347 346 346 345 345 345 345 345 346 345 345 344 343 343 342 339 339 338 339 339 340 342 343 343 343 343 343 342 342 342 342 342 340 339 337 338 336
348 349 349 349 349 348 349 348 351 349 349 349 349 348 349 351 347 349 346 348 351 352 351 349 347 345 346 346 345 344 344 344 344 344 343 343 342 342 341 340 339 338 338 337 336 342 343 342 343 343 343 343 342 342 343 343 342 340 339 339 339 339
346 348 348 349 348 348 350 352 350 349 348 347 348 349 350 350 351 350 350 349 351 352 350 347 347 345 346 344 345 344 344 344 343 343 343 342 342 341 340 338 338 337 336 334 340 341 342 343 344 343 343 343 342 341 343 343 342 342 340 339 340 338
347 347 347 347 348 348 350 350 350 348 347 351 351 350 350 350 350 350 349 349 350 348 347 349 346 346 345 344 344 344 343 342 342 342 341 341 341 340 337 337 335 334 336 339 340 339 339 340 342 347 347 344 341 342 342 342 340 341 341 339 339 339
347 346 346 346 347 348 350 348 346 346 346 350 348 348 348 349 348 347 347 348 346 347 346 348 348 345 343 343 343 343 343 342 343 341 340 340 339 336 337 336 336 336 337 338 338 340 341 340 343 344 345 343 342 342 342 342 341 340 341 341 341 340
345 345 346 346 346 346 348 344 344 344 344 347 347 345 346 346 346 346 346 346 346 348 349 348 345 344 342 342 340 340 340 340 339 339 339 338 337 338 337 336 336 336 337 339 340 341 341 342 342 343 343 343 342 342 341 341 340 341 342 342 342 341
344 344 346 347 347 346 346 344 343 344 343 344 345 344 343 344 345 345 345 345 345 347 347 346 343 342 341 342 340 339 338 340 339 339 341 340 339 339 337 337 335 337 339 340 340 340 342 342 343 341 342 341 341 342 342 341 341 342 342 342 341 341
344 344 343 345 345 345 343 342 342 344 344 344 344 344 343 344 344 345 344 345 345 345 344 343 341 340 339 342 339 339 340 340 340 340 342 342 338 336 336 336 337 338 338 340 339 340 340 339 341 343 341 341 341 342 342 341 343 344 343 343 343 341
342 342 343 342 340 342 342 342 342 342 342 344 344 343 343 344 344 344 345 344 344 344 344 343 341 340 340 340 340 340 340 340 341 340 341 340 339 337 337 338 340 340 342 341 342 342 341 340 342 343 341 340 340 341 342 343 343 342 343 343 344 340
343 341 343 343 342 341 342 341 341 341 342 343 341 341 342 342 343 344 343 344 344 345 344 343 340 341 340 339 340 341 341 339 339 340 341 340 341 341 340 340 340 341 340 340 340 341 342 339 338 340 340 340 340 341 343 342 342 341 343 344 343 341
343 343 343 341 341 341 342 341 340 341 341 341 341 341 341 341 341 343 344 344 344 344 344 343 341 340 340 339 339 340 340 340 339 341 342 340 340 342 341 340 341 341 338 336 337 339 340 339 338 338 339 338 339 340 339 340 341 342 343 345 344 342
343 342 341 341 341 340 340 340 340 340 340 340 340 340 339 341 340 342 343 344 344 344 344 343 342 340 340 340 340 340 341 341 339 341 341 341 339 338 339 337 338 337 336 335 335 338 339 339 337 336 338 337 338 337 337 339 339 341 343 345 345 344
342 342 342 340 340 338 339 339 340 339 338 339 339 340 339 340 341 341 342 343 344 344 344 342 343 341 341 340 340 340 340 341 340 340 340 340 339 339 338 337 336 336 336 336 336 337 336 336 335 335 336 335 337 337 338 338 339 340 344 344 344 346
341 341 341 340 340 339 338 339 338 340 339 338 339 340 340 341 340 339 341 343 343 343 343 343 342 341 341 341 340 340 340 340 340 339 339 340 338 337 338 338 336 337 335 336 336 336 334 333 333 334 334 335 336 337 338 337 338 340 343 343 343 343
341 340 341 340 339 338 338 337 336 337 338 338 338 339 340 340 339 339 340 342 342 342 343 342 342 342 341 342 340 339 339 339 339 339 339 338 338 337 337 336 336 335 335 334 333 333 332 332 333 332 333 336 334 334 337 337 338 339 342 341 340 337
339 339 339 338 338 338 337 337 337 337 337 338 338 338 338 338 338 339 340 341 342 342 342 342 342 342 341 341 341 340 339 339 338 338 337 336 336 336 337 336 336 336 333 332 332 331 332 331 332 332 334 335 335 336 336 337 337 339 340 338 337 335
337 338 338 337 337 335 337 337 337 337 337 338 338 337 337 338 337 338 340 340 341 342 341 342 342 343 342 341 341 340 338 337 338 338 336 336 336 336 336 335 334 335 335 332 330 330 331 332 331 332 332 333 334 335 334 335 337 338 338 336 336 335
337 337 337 336 335 335 337 337 337 336 337 336 337 337 337 337 337 339 340 339 341 341 341 341 342 341 341 342 341 339 337 337 337 337 336 336 336 336 336 335 333 334 333 332 330 331 331 331 331 330 331 332 334 335 334 335 336 338 337 335 336 334
337 337 336 336 336 336 337 337 335 336 336 335 336 336 336 337 338 338 339 340 340 341 341 341 340 340 340 339 338 339 337 337 338 337 336 335 334 334 334 334 333 332 332 332 331 331 331 331 331 331 331 332 333 333 335 335 335 335 337 337 335 334
336 337 336 336 336 336 335 333 332 333 334 334 334 334 337 338 339 339 339 339 339 340 339 339 339 339 340 338 337 337 336 337 337 336 335 334 334 334 334 333 333 331 330 330 332 332 333 332 331 331 331 332 333 335 335 334 333 333 334 336 336 335
334 334 333 333 333 333 332 332 332 332 332 333 333 334 335 337 338 339 339 338 339 338 339 339 338 338 338 338 338 338 336 336 336 335 334 335 335 335 336 335 332 332 330 329 329 332 333 333 329 327 329 329 330 333 333 333 332 332 333 335 337 336
332 333 333 334 334 334 333 334 333 332 332 333 333 333 333 336 337 338 339 339 339 339 339 338 338 338 338 338 337 337 337 336 336 336 336 336 336 335 335 334 332 330 332 330 329 332 331 331 327 324 322 323 325 329 330 331 332 332 333 334 335 336
331 332 332 334 335 333 335 336 335 334 333 333 336 337 336 336 337 336 338 338 339 339 338 338 338 338 338 338 339 339 338 337 336 336 334 333 334 334 334 333 332 329 327 331 330 332 332 333 326 327 327 323 320 320 324 327 330 332 332 333 334 333
331 331 332 334 334 336 337 338 337 335 335 335 333 335 337 337 337 336 336 337 338 338 338 339 338 338 339 340 340 339 339 337 336 337 335 334 333 332 333 332 332 331 330 326 327 328 331 331 330 326 319 320 320 320 317 321 323 326 330 330 330 329
331 331 333 333 335 336 336 334 333 334 335 335 335 335 334 333 334 335 335 336 337 339 339 338 339 339 338 339 339 339 338 337 336 336 336 336 333 334 333 333 333 332 330 328 326 327 328 331 332 333 326 320 318 317 317 320 322 323 330 327 328 328
333 331 332 333 334 335 333 332 331 330 330 330 330 330 330 330 331 333 334 338 338 338 339 338 338 339 338 338 338 338 338 336 337 336 337 337 336 335 334 334 334 334 332 332 330 327 325 329 331 331 330 330 328 322 319 322 321 315 326 327 328 328
333 333 333 333 335 335 333 333 333 333 333 332 329 331 334 335 335 335 337 337 336 338 338 338 338 339 338 338 338 337 338 338 336 334 334 336 334 334 333 335 335 336 334 332 331 327 326 326 328 328 328 329 332 330 328 322 318 320 316 323 326 327
333 332 333 333 335 335 333 334 335 335 334 333 333 331 334 335 337 336 335 335 336 336 337 338 338 338 338 338 338 337 337 337 336 335 334 335 336 335 334 333 331 331 334 333 332 331 328 328 325 326 327 328 330 332 331 329 327 322 319 316 317 323
332 332 332 333 334 334 334 335 335 334 334 335 334 333 334 334 334 335 335 335 335 334 335 336 337 338 338 337 337 337 337 336 336 336 335 334 337 335 334 333 331 330 331 333 335 335 331 329 330 328 325 328 329 328 328 329 328 328 320 318 318 318
331 332 332 333 333 333 335 335 334 335 334 332 332 331 333 332 332 334 334 334 333 332 332 332 333 335 337 337 337 338 337 336 337 336 334 334 336 335 335 335 335 335 335 335 333 334 333 333 332 331 330 330 328 327 326 325 325 325 324 324 319 317
330 331 332 332 333 334 335 335 335 335 333 331 330 330 329 329 331 332 332 331 331 330 330 330 331 333 335 335 336 336 336 337 337 338 335 335 336 335 336 336 336 336 335 335 333 334 334 334 334 332 331 330 329 329 327 325 324 325 325 322 320 319
328 329 331 332 333 333 333 334 335 334 333 332 330 329 329 329 330 331 331 330 329 328 329 329 331 331 332 333 334 334 335 336 335 335 335 336 336 335 336 335 335 335 336 335 336 334 334 333 332 332 332 332 331 332 331 329 328 328 325 323 322 318
326 326 329 331 332 332 333 333 333 333 333 332 330 331 331 330 331 330 330 329 328 327 327 328 329 330 332 333 334 334 334 334 334 335 335 335 336 335 335 335 335 335 335 333 333 334 332 333 332 331 332 333 332 331 330 331 330 328 328 326 323 319
326 327 329 329 331 331 333 333 333 333 332 330 330 331 331 330 330 330 330 329 329 328 327 329 329 331 331 332 333 334 335 335 334 334 334 335 335 335 336 333 335 334 333 333 333 333 333 333 333 335 335 331 331 330 330 331 330 330 327 325 321 320
324 326 327 327 328 329 331 332 332 332 331 329 328 329 330 331 330 329 330 330 330 329 328 329 329 330 330 332 331 331 332 332 332 333 333 334 333 334 334 333 334 334 334 333 333 333 332 332 331 331 332 332 332 330 330 330 330 330 329 327 325 322
322 322 322 322 325 328 329 330 331 330 330 329 327 328 327 327 329 330 330 329 329 330 330 329 328 328 329 331 330 330 330 330 330 330 330 330 330 331 331 333 332 333 332 330 333 333 333 333 332 332 332 332 331 329 331 330 330 330 328 329 327 323
317 319 320 322 322 325 326 326 328 329 328 328 327 325 324 326 328 329 329 329 328 327 328 329 327 327 328 330 331 330 329 328 328 327 326 326 326 327 328 330 331 331 331 330 332 331 331 332 332 332 331 332 331 330 330 331 330 331 330 328 325 324

ECMWFFLT2_sfc_thetae_066.txt.gz
Theta_e
348 350 349 353 353 354 353 351 350 350 349 349 350 350 349 348 349 349 349 348 347 351 351 350 349 347 348 347 346 346 346 347 346 346 345 345 344 343 341 340 340 340 341 342 343 343 344 343 342 342 343 342 341 343 346 343 344 341 342 341 340 337
348 350 350 352 352 352 352 349 350 351 351 351 350 349 351 351 350 352 347 349 349 348 350 350 347 344 345 348 347 345 345 345 346 345 344 343 343 342 340 340 340 340 339 340 342 342 345 344 344 342 342 343 341 344 345 345 344 342 341 341 340 338
348 350 353 349 353 352 350 351 350 348 347 346 349 350 351 352 351 351 350 345 348 349 348 349 346 343 344 343 347 344 344 345 345 344 344 343 342 341 340 340 340 339 338 337 341 342 342 345 346 343 343 343 346 345 347 346 345 343 340 340 340 338
351 348 349 348 349 349 350 351 349 346 344 348 350 349 351 352 349 345 345 349 349 349 350 350 345 345 345 345 346 344 344 344 344 343 342 343 341 340 339 338 337 336 340 341 342 341 340 341 345 346 346 345 346 346 345 346 343 343 341 339 339 339
351 348 347 349 349 348 349 349 348 343 345 348 347 346 347 347 344 348 348 349 349 350 350 349 347 343 341 343 343 343 345 344 344 345 342 342 342 338 339 337 337 339 338 338 337 339 340 340 344 347 347 344 343 344 344 345 344 341 342 341 341 341
349 348 349 349 348 348 350 347 345 342 348 348 347 344 344 341 346 349 349 349 349 350 349 348 347 346 344 343 341 340 342 343 342 342 342 340 339 339 338 338 338 338 339 339 338 340 340 341 342 343 344 345 343 343 344 342 343 342 343 342 342 340
345 346 347 348 347 349 347 347 347 346 349 348 346 343 344 344 347 349 350 349 349 347 347 347 346 345 344 345 343 342 341 342 342 341 342 339 338 339 340 340 339 340 339 338 338 339 341 341 342 341 343 342 342 342 343 343 342 343 344 342 341 341
344 344 342 347 344 347 347 348 346 345 347 347 345 344 344 351 349 351 351 351 351 347 345 345 345 345 344 345 342 342 341 341 341 340 342 341 339 338 340 340 342 339 338 339 338 339 338 338 339 343 342 343 343 344 343 342 344 346 345 341 340 341
337 341 348 352 349 344 346 348 346 346 348 347 345 338 344 343 346 350 350 349 348 347 346 346 343 343 342 341 341 342 340 340 342 341 342 341 340 340 341 340 341 340 341 340 341 340 338 337 340 343 342 342 343 343 344 345 346 345 345 343 339 341
339 342 345 348 348 347 348 347 344 344 347 346 345 342 348 348 346 347 347 349 349 349 348 345 342 341 340 340 341 344 342 341 340 341 342 342 343 342 342 342 342 342 340 342 342 342 341 339 338 341 342 342 343 343 346 345 345 344 344 342 341 342
341 341 346 345 348 344 346 346 344 342 345 345 346 348 347 344 347 345 348 350 349 349 349 347 344 343 341 341 343 342 342 342 341 342 344 342 345 346 345 344 345 343 343 343 341 341 341 341 340 339 342 341 342 345 344 346 344 344 342 342 342 342
341 342 345 344 346 345 345 348 346 344 345 346 349 347 346 347 346 347 349 350 349 349 349 348 346 344 342 341 340 343 343 343 343 344 346 344 343 344 346 343 343 342 344 344 342 342 343 341 341 339 340 340 342 342 342 345 344 343 342 340 340 341
341 341 343 343 343 346 347 345 344 343 345 346 346 346 345 345 346 347 349 350 349 349 350 349 347 346 344 343 343 343 344 345 344 345 344 343 344 344 343 342 341 341 341 342 342 342 342 343 342 342 342 340 341 341 342 342 343 342 341 340 339 339
343 341 342 343 345 346 345 347 344 343 344 345 345 344 345 346 347 348 349 349 349 349 349 348 346 345 345 344 344 344 345 344 345 345 344 344 342 341 342 341 340 341 339 341 341 341 339 339 339 339 341 340 342 343 343 341 342 342 343 337 338 340
343 342 342 341 342 345 346 343 342 342 343 343 345 345 346 346 347 347 347 346 348 348 348 346 345 344 344 345 344 344 344 344 345 345 344 343 343 343 343 341 341 340 340 339 340 339 339 339 339 338 340 342 339 339 342 341 341 340 341 337 338 337
340 342 343 342 345 345 343 344 342 341 342 343 344 343 345 345 345 346 346 346 347 348 348 347 345 344 346 346 345 344 344 346 344 344 345 343 343 341 341 341 341 341 337 338 338 337 338 338 338 338 339 340 339 339 340 340 340 339 341 339 339 340
342 339 340 341 343 343 343 341 341 341 342 343 342 342 344 345 344 344 345 345 346 348 347 347 347 348 348 347 344 345 344 345 344 343 343 342 341 341 340 339 339 339 339 336 336 336 337 337 336 337 339 339 339 339 340 340 339 339 339 339 340 341
342 343 344 343 341 339 339 340 340 341 342 340 338 342 342 343 342 343 344 344 346 347 348 347 348 347 348 347 346 345 345 344 344 343 341 342 342 343 341 339 338 338 338 338 337 338 337 337 336 335 337 338 338 337 338 339 340 341 338 336 338 337
341 341 340 340 340 340 341 340 340 340 340 341 339 342 342 341 341 344 345 346 346 347 346 347 347 348 348 346 345 345 344 344 344 343 342 342 342 341 340 340 337 336 337 338 337 338 338 338 337 337 336 337 338 338 339 340 339 338 343 338 337 337
341 340 338 338 339 339 339 337 336 337 338 338 339 340 341 341 343 343 345 345 346 347 346 347 346 346 347 346 345 344 345 344 344 343 342 341 340 339 338 339 337 335 335 335 337 339 340 337 337 336 335 336 336 336 337 337 338 337 338 338 337 337
340 340 338 337 336 336 336 337 338 334 338 338 337 339 340 342 343 344 345 344 345 345 346 345 344 343 343 343 343 344 343 344 344 343 342 341 341 341 340 339 336 337 334 333 334 339 338 338 334 332 333 333 334 335 336 336 335 335 336 337 338 338
339 339 337 338 336 337 339 338 337 335 337 336 337 337 339 342 343 344 345 345 346 345 344 344 343 343 342 341 344 343 344 343 342 342 342 341 341 340 341 339 337 335 336 335 335 338 337 335 330 328 326 327 329 333 333 333 334 335 337 337 336 335
338 338 338 336 337 336 340 340 339 336 336 335 340 341 341 341 343 342 345 345 345 345 343 340 341 341 343 344 344 343 342 342 342 341 340 340 340 339 340 339 336 333 333 336 336 339 338 335 328 331 332 327 323 320 324 328 333 337 337 336 335 335
339 339 338 340 337 338 343 342 340 341 340 339 335 336 339 343 343 342 341 342 343 343 341 340 340 339 340 342 345 343 341 341 341 341 340 338 340 339 340 339 337 335 333 332 333 334 338 337 332 330 324 324 325 323 318 320 324 329 333 334 333 333
339 339 338 340 341 342 340 339 340 340 339 336 339 339 338 338 341 341 340 341 340 341 341 339 340 340 338 344 345 344 343 342 341 341 339 337 338 339 339 339 338 336 335 333 331 334 335 336 333 334 328 325 323 321 320 324 325 325 330 329 330 331
336 336 338 341 340 341 337 334 336 334 332 334 333 334 334 334 336 337 337 340 339 340 340 340 340 340 339 339 341 342 344 343 342 340 339 337 336 337 338 337 338 338 337 337 334 333 331 335 335 336 335 333 333 324 322 326 325 315 328 331 331 329
334 336 338 338 339 339 338 336 336 335 333 332 330 331 336 337 337 338 338 339 338 341 340 340 340 339 340 339 339 339 340 339 341 342 340 339 337 337 336 335 336 336 335 335 335 331 331 331 335 335 335 336 338 335 332 326 322 323 319 325 328 328
334 336 338 338 337 340 338 338 336 335 335 335 334 334 337 339 341 339 337 337 338 339 339 339 338 338 339 338 338 338 339 339 339 338 338 339 338 338 338 336 337 337 335 334 334 330 330 332 329 330 334 335 335 336 334 334 332 326 323 319 319 325
334 334 337 337 338 338 337 337 336 332 334 333 336 336 338 339 338 338 337 337 336 335 336 338 337 338 338 337 338 338 339 338 338 337 335 338 339 339 339 339 339 338 337 336 334 334 331 331 331 330 332 333 332 331 332 333 332 332 325 323 319 319
333 334 336 336 337 337 336 335 331 331 333 336 337 337 338 337 336 337 335 335 335 335 335 336 338 337 337 336 336 337 337 336 337 336 334 335 339 340 340 339 340 339 340 336 335 335 330 332 331 332 332 331 329 328 329 329 330 329 327 327 322 320
332 331 331 334 333 333 331 329 330 333 336 336 337 338 335 334 333 334 333 333 333 332 333 333 335 338 337 336 337 337 335 335 336 336 333 334 338 335 340 340 340 340 339 337 335 335 334 334 333 332 332 330 328 328 327 325 327 329 327 324 322 322
331 330 331 330 331 330 332 330 331 332 335 338 337 335 334 332 331 330 332 331 332 332 332 333 334 335 337 337 337 336 337 336 335 335 333 334 335 335 340 340 340 337 336 336 336 335 334 333 332 332 332 331 330 330 332 332 328 328 326 324 324 323
326 327 329 331 329 330 331 330 332 334 335 337 338 337 334 334 334 333 332 332 331 330 331 331 331 332 334 336 335 335 335 333 334 335 335 333 335 334 335 337 339 338 336 335 336 337 334 335 334 329 331 333 335 331 333 334 331 329 329 328 327 322
325 329 329 329 328 329 330 334 334 335 337 338 336 335 334 334 334 331 331 331 331 330 329 330 330 331 334 335 334 335 335 334 334 334 334 334 334 335 335 333 338 338 338 339 340 338 337 337 336 335 335 333 332 331 332 333 333 332 329 329 325 324
326 329 330 330 329 332 332 335 336 337 338 336 334 334 333 333 333 332 333 332 332 331 329 331 330 333 334 334 335 335 334 333 332 334 334 335 335 335 336 332 333 337 336 338 338 338 337 338 336 335 335 333 334 331 332 332 333 332 329 329 328 326
327 329 329 328 330 333 334 335 334 330 336 334 334 335 334 334 334 334 333 332 332 332 332 331 333 333 334 335 334 334 333 332 332 334 334 334 334 332 334 333 332 336 334 334 338 338 338 338 338 337 335 334 332 332 333 333 333 332 328 330 330 328
329 329 329 329 331 334 334 333 333 334 335 336 336 334 334 335 335 335 335 333 331 332 333 333 333 335 334 335 334 333 333 331 332 334 333 332 333 333 334 333 332 333 333 334 335 335 337 337 338 337 336 334 332 332 334 336 334 333 333 333 330 328

ECMWFFLT2_sfc_thetae_069.txt.gz
Theta_e
346 348 348 348 349 348 350 351 351 350 350 350 350 351 350 350 350 350 350 349 348 349 349 350 349 346 349 348 346 347 347 346 346 346 345 345 344 342 341 341 341 343 343 343 344 343 344 342 342 342 341 343 342 340 344 341 339 340 340 338 337 335
345 347 349 348 346 348 351 348 350 350 350 351 351 351 351 349 349 350 348 349 350 348 347 346 347 347 346 347 347 346 346 346 345 345 344 344 343 342 340 340 340 341 343 343 343 345 345 343 343 343 343 342 341 345 344 344 340 338 339 338 337 337
346 349 349 346 346 347 347 347 347 347 348 348 350 350 349 348 348 347 347 345 350 347 346 346 344 345 344 346 347 346 346 345 345 344 343 343 341 341 341 341 341 340 340 343 345 344 345 343 343 343 343 343 346 345 344 343 341 340 338 338 338 338
346 350 352 346 345 343 346 346 346 346 346 347 348 348 348 347 345 346 347 350 347 348 350 348 342 346 347 346 347 345 344 345 344 344 343 343 342 341 341 340 339 339 340 342 344 342 341 344 345 344 345 346 345 342 343 343 340 338 340 339 338 339
345 346 347 347 348 342 346 344 344 342 343 345 345 346 348 348 346 347 351 349 346 345 346 344 344 345 343 345 346 346 346 345 345 345 344 343 340 339 340 338 338 336 339 339 339 341 340 340 344 343 344 345 345 342 344 344 338 337 339 339 338 339
345 344 342 345 345 351 345 347 343 341 343 345 347 346 345 347 350 348 347 344 345 342 343 344 342 341 342 344 343 342 343 343 343 344 345 340 337 339 339 338 336 334 337 339 339 340 340 341 340 346 345 345 343 343 342 343 340 338 340 339 337 336
341 342 341 342 342 346 347 345 343 342 344 345 348 350 349 347 347 346 343 342 340 343 342 341 337 339 341 342 341 341 339 340 341 340 342 338 338 339 338 336 336 337 338 338 337 337 340 339 338 338 342 342 342 340 342 342 343 339 340 340 339 337
341 341 340 341 343 345 349 345 343 345 346 346 347 347 346 345 345 344 342 341 343 342 341 345 341 340 340 341 340 342 341 340 341 341 340 341 338 338 337 337 338 337 337 337 336 337 337 336 337 343 344 340 340 340 342 341 341 342 341 340 339 340
339 340 342 343 345 345 346 343 347 345 345 346 347 348 346 345 343 342 342 342 342 341 340 342 341 343 343 343 343 343 341 341 342 341 340 339 339 339 339 339 339 339 339 338 337 338 336 335 335 340 341 339 339 340 343 340 342 343 341 341 340 340
340 341 340 342 343 344 344 346 346 345 345 345 346 346 346 344 344 343 342 341 343 341 341 342 342 341 342 341 342 343 344 343 341 341 341 341 340 339 339 340 341 340 338 338 337 337 337 337 335 337 339 338 338 338 341 341 341 344 342 341 341 341
345 343 342 343 344 344 345 345 344 346 343 345 347 345 345 343 344 344 343 340 342 341 342 342 342 341 342 342 344 344 342 342 341 341 343 342 343 342 342 342 342 340 341 339 340 340 338 339 337 336 338 337 338 339 340 340 338 343 342 341 341 340
347 346 346 347 346 346 347 346 342 343 343 347 346 344 342 341 342 342 342 340 342 343 344 346 344 343 343 343 341 342 341 341 341 344 342 342 344 345 344 344 345 346 345 344 341 342 343 339 337 334 335 333 335 339 344 340 338 340 342 342 341 340
346 346 347 348 346 347 348 346 343 342 343 345 344 341 339 337 339 341 345 341 342 343 348 347 346 344 341 341 343 344 342 344 344 346 346 345 345 344 345 343 344 343 341 343 342 342 341 341 339 337 336 333 336 338 344 339 338 341 340 340 340 339
345 345 347 348 348 346 348 347 345 344 343 343 342 340 341 341 341 344 341 341 343 343 348 346 347 345 343 344 345 345 344 344 345 346 346 345 342 342 342 342 340 339 339 340 339 341 339 338 337 338 338 336 341 343 338 337 340 339 339 341 341 339
344 345 347 347 346 346 347 345 343 343 343 343 339 340 340 343 341 341 340 341 344 346 344 345 346 346 345 344 344 344 347 343 344 346 343 344 344 343 343 342 339 339 339 339 337 337 336 337 336 335 337 339 335 339 342 339 340 340 339 339 341 337
344 345 346 345 346 346 344 345 343 342 345 346 345 341 339 340 342 342 340 340 339 341 344 344 345 347 347 345 346 343 345 343 344 345 344 344 344 341 342 341 342 341 336 336 337 337 338 336 336 336 338 340 340 340 346 338 338 339 340 340 339 338
343 344 345 343 344 344 342 343 343 341 342 345 346 343 341 344 343 342 342 341 340 343 343 343 344 346 348 345 340 336 337 343 345 344 343 344 343 341 341 341 342 342 340 336 335 335 336 338 337 339 340 339 340 340 338 336 339 340 339 339 339 338
341 343 343 343 344 343 342 343 342 341 341 341 346 345 345 343 341 343 341 345 342 345 344 344 344 344 347 346 343 337 336 343 344 344 343 343 341 340 341 342 341 341 340 337 334 334 335 336 337 337 338 338 339 339 339 339 338 339 338 336 336 336
339 338 339 341 342 341 341 340 343 341 340 341 342 344 345 341 339 340 342 344 342 344 344 344 344 342 343 343 340 346 342 344 344 343 343 342 340 340 340 342 341 340 341 338 336 336 336 337 337 337 336 337 338 338 337 338 340 338 337 336 335 335
338 338 339 339 341 338 338 338 338 335 335 339 340 340 342 343 340 343 343 342 341 345 343 344 344 342 341 342 341 343 343 343 344 342 341 339 337 338 340 341 340 339 339 338 337 337 337 336 336 336 335 336 338 337 337 336 337 338 337 335 335 338
339 339 337 334 336 334 332 335 337 333 335 337 338 342 340 341 340 347 339 341 343 342 343 344 344 345 343 343 343 343 343 344 342 341 341 339 339 339 340 341 339 339 338 335 335 336 336 336 332 332 335 335 336 334 333 332 334 337 339 339 339 337
338 338 337 337 335 336 336 336 335 335 338 337 338 337 337 339 341 341 341 341 343 341 342 344 343 344 344 344 341 341 342 342 341 340 340 340 340 339 339 339 339 336 335 334 333 336 335 334 330 329 327 327 331 332 335 334 334 335 338 339 338 338
341 339 339 338 337 336 340 340 339 338 339 340 341 341 343 339 340 338 339 339 340 345 343 343 344 344 344 344 342 341 340 341 341 340 339 338 339 339 339 339 339 336 333 335 334 336 337 337 331 331 331 326 323 324 328 332 334 334 334 334 336 336
338 338 339 340 338 340 338 341 342 341 342 340 340 340 342 341 339 338 337 338 342 343 343 343 341 340 341 343 343 342 341 341 340 340 340 338 338 338 339 339 338 337 335 330 331 332 337 336 334 327 320 321 325 325 319 325 328 332 336 334 335 335
340 340 336 338 340 342 341 340 341 341 338 335 338 339 338 337 339 336 337 341 343 342 342 339 340 340 338 344 344 342 342 342 341 340 340 337 336 337 338 337 338 337 335 332 329 333 333 336 334 336 332 325 318 318 320 322 325 327 332 332 332 332
341 339 338 338 341 341 340 338 333 334 331 332 333 333 333 334 335 334 335 336 341 340 339 339 339 339 338 343 343 344 343 341 341 340 340 337 336 336 336 336 336 337 336 336 333 330 330 335 338 336 337 335 330 322 322 325 325 317 329 332 331 333
336 337 337 338 340 339 335 337 338 335 333 333 332 334 337 337 336 337 339 341 338 341 339 339 339 339 340 340 344 344 343 342 340 341 340 339 337 337 335 334 336 336 334 336 335 330 330 332 335 334 334 335 333 333 332 326 321 323 319 326 330 332
332 332 334 335 338 340 335 340 337 336 334 334 336 334 334 336 336 337 339 337 337 338 338 339 339 338 340 339 338 338 342 342 340 339 338 338 339 337 336 336 337 336 337 337 336 332 331 333 329 330 335 333 332 334 331 331 331 325 322 318 322 327
333 331 332 333 333 336 338 338 336 333 330 333 335 336 338 336 338 340 338 336 337 337 338 339 338 339 338 338 337 338 338 337 341 340 337 337 337 337 337 336 337 337 337 337 336 336 333 330 331 331 330 332 330 331 331 332 330 330 323 323 321 322
334 334 336 334 333 333 333 334 332 333 333 334 336 336 335 334 334 338 336 335 336 335 335 337 338 337 338 336 336 337 337 337 337 335 335 338 337 337 337 338 338 338 338 336 335 335 335 334 334 332 331 331 329 328 329 327 329 329 327 326 320 319
335 334 336 335 333 332 333 334 334 334 335 334 335 334 332 332 332 333 334 334 334 335 335 335 336 338 337 336 337 337 337 336 336 336 334 337 338 337 339 338 339 339 339 336 337 337 334 336 334 333 332 333 329 329 326 326 325 327 325 324 322 321
333 334 334 333 330 328 329 332 333 334 334 335 334 332 331 330 330 332 332 332 333 333 333 334 336 335 336 337 337 336 336 336 335 336 335 335 336 339 338 338 338 338 338 338 337 334 335 334 335 333 332 332 332 331 332 332 329 325 325 325 323 321
331 332 331 332 329 329 331 331 333 333 334 334 334 331 330 328 333 332 331 331 330 329 330 330 332 333 335 337 336 336 335 334 334 335 335 333 334 333 338 337 337 338 335 334 335 337 334 336 335 331 332 335 335 332 332 332 335 329 328 330 327 321
332 332 332 332 330 329 332 333 335 335 336 335 334 333 331 327 330 333 332 330 330 330 329 331 332 332 334 334 333 335 335 335 334 334 334 334 334 334 334 336 338 336 336 337 337 336 336 336 336 337 336 334 333 333 334 335 332 332 330 327 325 323
332 332 331 331 330 330 332 334 334 335 335 335 334 330 328 328 332 332 332 331 332 332 331 332 331 334 334 333 333 334 333 333 333 334 334 335 334 335 335 332 336 336 336 337 338 335 335 336 333 334 335 334 335 333 335 333 330 330 329 331 327 325
332 333 332 331 331 331 333 334 334 334 333 334 331 330 329 331 334 334 332 331 332 333 333 331 333 334 333 334 332 332 332 332 333 333 334 333 334 332 334 332 331 337 336 332 337 336 334 335 334 332 334 334 334 332 334 332 332 330 331 331 329 327
332 333 332 332 332 334 335 334 333 333 333 332 330 329 331 333 334 334 334 332 332 333 334 333 333 334 333 333 333 332 332 332 332 332 334 333 333 333 333 332 331 334 331 333 337 335 335 336 335 337 336 334 332 333 333 333 334 333 332 333 328 329

ECMWFFLT2_sfc_thetae_072.txt.gz
Theta_e
345 347 347 347 349 349 350 351 351 351 350 350 350 350 350 350 350 350 349 349 348 347 347 347 347 347 349 347 347 347 347 347 346 346 345 345 344 342 342 341 342 345 345 345 345 344 344 343 342 343 344 344 345 339 340 337 337 336 334 334 334 333
344 345 343 344 344 348 349 349 349 349 349 350 350 349 349 349 350 349 349 348 347 346 346 347 347 348 346 346 347 347 347 346 345 346 345 344 343 342 341 342 341 343 345 344 344 342 342 343 343 343 344 345 342 339 346 336 336 335 334 333 334 336
343 342 339 342 343 347 347 347 348 348 348 349 348 348 348 348 346 347 347 346 349 348 347 347 346 346 346 346 346 347 346 345 345 344 344 343 342 341 341 340 342 342 344 344 342 343 341 340 341 343 344 340 339 342 343 340 336 335 334 333 332 336
343 344 342 343 344 346 346 344 346 346 348 348 348 347 346 346 345 345 345 347 350 350 350 350 346 346 347 345 346 346 346 345 344 344 344 341 342 341 341 340 340 341 340 341 338 342 342 341 341 342 341 341 342 344 340 338 335 335 334 334 333 340
345 345 344 343 344 344 344 343 344 344 346 345 346 345 345 345 346 347 347 350 347 346 348 347 346 345 344 344 343 343 343 343 343 342 343 339 337 337 339 337 336 336 336 337 338 341 341 341 343 341 341 342 344 340 338 336 336 335 334 334 335 341
345 345 345 343 343 345 345 342 341 342 342 343 343 344 346 346 346 348 349 348 347 349 348 345 344 344 343 343 342 342 342 342 341 341 341 338 336 336 335 335 333 333 334 337 340 340 341 342 340 342 340 345 343 335 333 338 337 335 334 334 335 337
344 345 344 345 346 346 345 343 342 342 342 341 345 345 345 345 346 347 346 346 346 345 346 345 342 341 343 344 342 343 343 342 342 341 339 339 336 336 334 335 336 335 336 338 336 336 340 341 340 338 341 343 337 334 335 340 342 335 334 333 336 339
344 345 345 348 348 345 344 342 340 343 345 347 344 343 344 343 343 346 345 344 346 344 344 342 343 341 342 342 341 341 342 340 339 340 340 342 336 335 333 338 338 336 334 335 336 336 335 335 336 338 341 336 336 338 339 341 342 336 335 334 335 337
344 344 345 347 347 345 345 344 344 344 345 346 344 343 344 344 343 344 344 343 343 341 341 341 339 343 340 340 339 339 339 338 339 338 340 340 336 336 336 338 336 335 336 338 339 336 335 335 337 342 340 334 335 338 337 342 341 338 336 336 336 338
344 344 344 345 345 344 344 342 341 341 345 346 344 345 344 344 344 342 343 342 342 342 341 340 341 342 346 348 343 344 341 342 338 343 344 341 341 340 338 337 338 336 334 339 337 340 338 337 334 336 337 335 337 338 339 340 342 338 337 337 337 339
344 343 344 344 345 343 345 342 343 342 344 343 344 345 344 344 343 343 343 342 342 342 340 340 340 340 339 339 339 341 339 339 340 342 344 343 341 341 343 344 343 345 343 337 341 344 338 342 338 335 333 335 336 336 337 339 341 341 337 337 337 338
343 343 344 343 343 343 344 342 343 344 343 345 344 344 344 344 344 343 342 342 342 341 340 340 339 339 338 336 334 342 344 343 343 344 345 343 343 345 344 345 346 346 347 347 343 342 338 345 339 332 337 335 336 337 339 338 340 342 337 337 337 337
344 343 344 344 344 345 344 342 341 343 344 345 344 344 343 343 343 341 341 340 341 342 341 339 340 339 337 336 338 344 343 343 344 345 346 346 346 345 345 346 345 347 345 348 344 338 342 341 335 333 334 335 336 336 339 338 338 340 338 337 336 336
345 344 345 345 345 344 344 341 341 343 345 344 344 343 343 343 343 342 341 341 340 342 342 342 341 339 338 336 336 337 336 336 338 340 342 346 342 345 343 343 342 340 340 340 340 341 341 340 335 334 334 336 336 336 338 339 338 338 338 336 336 335
344 344 343 345 345 342 346 341 342 343 344 344 343 343 342 342 343 342 340 340 341 339 341 341 340 338 339 338 337 338 336 338 339 341 342 346 348 343 344 341 339 336 339 341 340 339 338 336 333 332 333 334 335 337 338 338 337 337 337 338 337 336
344 341 339 343 341 341 341 343 342 342 342 342 342 341 341 341 342 341 339 338 339 340 341 339 340 339 335 340 339 340 339 340 343 345 345 348 347 343 340 344 343 344 339 338 338 337 338 334 332 330 332 334 335 335 337 338 336 336 336 337 336 336
341 340 340 339 341 340 343 342 341 341 339 340 339 339 340 340 342 340 341 338 339 339 340 339 339 336 336 340 341 340 341 340 342 344 342 342 343 343 341 342 345 344 341 337 335 333 334 335 332 331 331 332 335 336 336 335 336 336 338 337 336 336
342 342 340 339 337 339 343 343 340 340 339 338 340 340 340 340 339 341 342 340 340 340 339 337 339 339 339 342 341 340 338 340 341 342 340 338 341 342 343 343 342 342 342 342 336 334 334 334 332 332 333 334 334 336 336 334 336 336 335 336 336 334
343 339 339 339 340 340 341 342 341 339 338 337 338 340 341 339 340 341 340 339 340 339 338 338 338 340 340 340 340 340 339 338 341 341 339 338 341 342 343 343 342 340 343 337 339 337 336 334 331 332 331 333 334 335 335 337 336 334 334 334 336 336
342 340 341 339 337 338 339 339 337 336 336 338 336 336 340 340 342 341 341 340 340 342 339 337 339 339 340 340 339 338 338 339 339 339 338 338 335 342 341 341 339 339 338 337 338 338 335 334 333 331 329 329 332 333 334 335 335 334 333 333 333 335
340 342 340 336 336 335 335 334 338 333 333 335 337 338 338 338 339 342 338 338 339 338 338 336 339 337 338 341 339 338 339 340 340 338 338 339 343 340 341 341 338 342 337 335 333 337 337 334 331 328 330 331 331 333 332 334 334 334 334 333 332 333
339 339 339 337 337 336 335 337 336 335 334 336 335 337 336 338 340 340 338 341 340 337 337 337 339 338 339 340 339 338 340 342 339 338 337 341 342 341 341 341 339 336 339 334 334 336 335 333 328 325 324 324 327 329 332 332 332 333 334 332 331 331
338 338 338 337 336 335 336 336 334 332 335 334 338 338 336 337 340 339 342 342 341 337 339 337 336 337 338 339 341 341 340 342 341 341 342 341 340 339 340 340 340 336 333 335 334 337 336 335 326 328 328 323 320 320 323 327 330 332 333 331 332 332
338 339 339 339 339 339 336 335 334 336 337 338 335 337 337 338 340 340 339 339 339 338 339 337 336 336 339 338 337 340 340 339 341 341 341 339 340 338 340 339 340 338 335 329 330 333 337 335 331 326 320 321 321 321 317 320 322 327 331 331 332 332
339 340 340 339 339 337 335 334 335 336 335 335 337 336 335 334 338 338 338 337 338 337 337 338 337 335 335 337 339 341 342 341 341 342 340 339 337 337 338 339 339 337 336 335 329 332 334 335 333 334 327 321 317 316 317 321 322 322 328 327 329 331
339 339 337 338 337 333 331 332 334 332 330 330 330 330 328 330 332 334 336 338 339 337 336 338 338 338 336 340 341 342 341 340 340 341 340 338 338 336 337 336 338 337 336 335 332 330 329 334 335 334 333 332 329 320 319 322 322 315 325 327 327 328
337 336 337 337 335 335 332 331 333 333 334 330 330 334 337 336 335 336 338 337 336 336 335 335 339 339 341 342 341 342 342 340 340 340 338 338 337 337 335 334 335 337 337 335 334 329 328 330 333 334 334 334 332 331 329 321 318 320 316 322 326 326
334 334 337 337 336 335 332 332 330 332 332 333 330 331 334 336 337 336 335 335 334 334 334 335 340 338 340 341 342 342 341 343 339 338 337 337 337 337 337 335 337 336 338 335 335 332 329 328 328 329 332 330 331 333 331 327 327 323 319 316 319 326
332 332 334 337 335 334 334 333 331 330 329 331 333 334 335 335 332 335 335 335 334 334 335 337 340 342 338 338 339 340 341 341 341 339 336 337 336 337 337 337 337 337 336 336 336 335 333 330 330 329 330 330 330 330 329 328 326 327 321 318 317 319
331 331 332 334 335 334 334 332 331 330 328 329 333 334 335 333 333 336 335 335 336 336 337 339 340 339 339 336 338 338 338 338 340 340 337 340 336 337 337 338 338 338 337 335 335 335 333 332 332 332 333 333 329 327 327 325 327 326 323 323 317 317
330 332 332 332 333 334 334 334 333 331 330 330 333 333 333 333 335 336 334 334 336 337 336 338 339 340 340 337 339 339 339 337 338 337 335 338 339 338 339 339 338 338 338 334 333 333 334 333 333 333 332 332 330 327 323 321 324 324 323 320 319 320
332 334 334 334 333 333 333 334 335 334 333 333 334 332 332 333 333 333 335 333 336 337 334 337 339 338 342 338 341 339 339 339 337 340 337 337 336 337 339 339 340 339 337 336 336 335 333 332 333 332 331 332 330 329 328 326 326 328 326 322 322 319
333 334 334 334 333 332 333 332 333 334 335 334 334 333 334 333 333 333 334 333 333 332 333 334 335 336 338 339 339 337 338 337 336 338 337 335 336 336 338 339 338 335 336 335 335 335 333 332 332 330 331 333 332 330 329 330 330 327 328 327 323 318
331 334 333 332 332 331 332 333 334 334 335 334 333 333 332 333 333 334 333 332 332 332 332 333 335 335 336 336 337 338 339 337 336 337 338 337 335 335 337 336 338 336 335 336 336 335 334 334 334 333 334 332 334 332 331 332 331 329 328 327 324 321
330 332 332 331 331 331 332 335 335 335 335 334 333 332 332 334 332 331 332 333 334 334 332 332 335 336 335 338 336 338 337 335 337 336 336 337 336 336 332 332 337 335 336 336 336 335 334 334 334 334 333 332 332 332 332 330 330 330 331 331 327 325
330 331 331 331 331 332 332 333 335 335 335 334 333 333 332 331 332 332 333 334 335 334 334 334 335 334 336 335 334 334 335 335 336 336 335 335 334 333 336 335 333 336 337 335 335 335 334 335 333 333 333 333 332 330 331 330 330 330 328 328 329 329
331 331 331 330 330 333 333 333 334 335 334 334 332 331 330 330 331 332 336 334 335 334 334 334 334 334 336 334 334 332 333 333 336 336 336 336 335 333 334 337 333 335 331 331 332 333 333 333 333 333 333 332 332 331 331 331 330 331 332 331 329 329

ECMWFFLT2_sfc_thetae_075.txt.gz
Theta_e
345 345 346 346 346 347 350 352 351 351 351 351 350 351 351 351 350 350 349 349 347 346 345 346 346 346 349 347 347 348 348 347 346 346 346 345 344 344 344 344 345 345 344 346 344 344 343 344 344 344 345 345 345 336 334 333 333 333 332 333 333 332
344 344 345 346 347 348 349 349 347 348 349 349 350 350 350 348 351 347 349 347 344 346 343 343 344 348 346 347 347 347 347 347 346 346 345 345 343 343 342 343 344 345 345 345 344 336 338 342 343 344 345 346 336 336 334 332 331 331 332 332 334 336
342 343 344 344 346 347 347 346 347 347 348 349 349 349 347 348 346 346 345 344 345 343 343 343 343 346 345 347 346 347 347 346 346 345 345 344 343 342 343 342 342 344 345 344 339 336 334 334 335 345 344 338 337 338 333 332 331 331 331 332 330 336
341 341 342 342 344 345 345 346 346 346 346 346 346 346 345 345 345 345 345 343 343 344 344 342 347 347 347 344 345 346 346 346 345 345 344 343 342 342 342 342 342 342 343 342 336 334 337 336 335 337 337 336 335 333 333 332 331 330 331 333 334 340
339 339 340 341 343 343 344 345 345 345 345 344 344 344 344 343 343 343 343 343 344 344 343 342 342 342 341 342 341 340 341 340 338 337 343 333 333 337 336 333 333 336 332 333 334 334 337 338 338 337 334 333 332 333 334 334 332 331 330 332 335 338
338 338 339 340 342 343 344 343 342 344 343 344 343 342 342 341 341 342 343 343 343 341 342 340 340 340 340 340 340 338 338 337 336 336 339 333 332 331 331 332 330 329 329 330 332 334 337 339 338 333 331 333 334 333 334 333 332 332 332 333 334 336
338 338 338 339 341 342 341 341 341 342 342 341 341 340 340 340 342 343 343 344 341 340 339 339 339 339 339 339 338 338 337 337 337 336 337 332 331 330 330 330 329 328 328 330 332 334 337 339 335 332 333 336 337 335 335 332 331 331 331 332 337 338
338 338 338 340 340 340 339 339 340 344 340 342 340 339 339 340 342 342 343 342 342 339 338 338 338 339 339 339 339 339 339 338 338 336 336 334 331 330 329 329 330 329 330 330 333 335 336 335 332 332 332 333 336 333 336 333 331 331 331 332 334 337
339 339 338 341 339 339 338 338 337 338 338 345 340 339 339 340 341 341 341 341 340 337 337 336 335 337 339 339 338 339 338 338 337 337 336 335 334 331 328 329 330 330 329 331 333 334 333 332 332 331 331 333 334 334 336 334 331 331 331 332 334 337
340 339 340 341 340 339 338 338 338 339 341 342 338 339 339 338 339 339 338 339 339 337 335 335 336 338 339 337 335 336 336 336 335 334 335 335 334 331 328 330 330 330 331 331 333 337 332 332 333 333 333 333 332 335 335 335 332 332 333 334 335 337
340 340 341 341 340 339 338 338 339 341 342 340 340 340 339 339 339 338 338 338 338 337 336 336 335 335 335 335 333 334 333 334 333 334 336 335 334 332 332 331 332 331 331 331 337 333 329 329 332 335 335 334 333 332 334 335 335 334 334 334 335 335
341 340 340 340 340 337 336 338 339 341 341 341 341 339 340 339 339 338 338 338 337 336 337 336 336 335 334 333 333 334 334 334 332 333 336 335 334 335 335 338 339 340 340 339 334 331 332 332 333 335 335 334 333 332 333 334 336 334 334 334 334 335
341 339 339 339 339 338 339 339 339 340 341 342 340 340 339 339 338 338 338 338 337 337 337 336 336 334 335 334 335 335 334 335 335 334 338 339 339 339 337 336 337 340 339 334 329 331 334 333 331 331 333 334 332 334 333 334 335 334 334 334 334 333
340 339 338 339 339 338 339 338 340 340 341 340 339 339 339 339 338 337 337 338 338 338 338 338 336 335 335 334 334 334 334 333 334 334 336 338 337 338 337 336 335 333 340 330 330 330 331 330 331 332 332 332 332 331 332 335 334 334 334 333 333 332
339 339 339 338 338 337 338 339 340 341 340 340 339 339 338 338 337 337 337 336 337 338 338 337 336 335 335 333 332 332 333 334 334 335 335 335 338 338 337 336 335 333 331 329 329 330 330 329 331 331 330 330 331 331 333 334 335 334 334 333 332 332
336 335 334 334 336 337 337 338 341 343 340 340 339 338 338 338 338 336 336 336 337 338 338 337 336 335 334 334 334 334 333 334 335 338 337 337 340 336 335 337 336 336 329 327 330 329 330 330 331 330 329 331 330 332 331 332 333 334 334 333 333 332
334 334 332 332 335 335 337 339 340 340 339 338 338 338 338 338 337 336 335 336 337 337 336 338 337 333 333 336 335 336 335 335 337 336 336 335 336 336 334 340 337 335 332 327 329 330 329 330 329 329 329 329 330 330 331 331 330 332 334 332 332 332
334 334 333 332 333 333 335 337 336 336 337 336 337 338 338 337 337 337 336 336 337 337 336 337 337 334 333 335 335 335 335 337 336 335 333 332 333 334 334 335 332 334 334 328 327 328 327 328 329 330 329 330 330 331 329 329 331 332 332 332 331 330
334 334 333 332 332 334 335 332 333 335 336 336 336 337 337 336 337 337 336 337 336 336 337 337 337 336 334 335 335 335 334 335 336 334 333 332 331 333 333 335 332 332 331 330 329 328 328 328 329 329 329 330 330 330 330 330 331 331 332 332 332 332
333 332 332 332 333 332 332 331 331 334 334 333 334 336 337 338 338 337 337 337 335 334 336 336 336 336 336 336 335 333 334 334 334 334 332 332 329 332 333 333 329 330 329 329 329 330 329 329 328 326 326 328 329 328 330 330 330 330 330 330 331 331
332 332 331 331 332 330 329 329 330 331 331 333 332 334 335 336 337 337 337 338 336 336 335 335 336 336 334 338 336 333 333 333 333 331 329 330 331 334 334 331 332 332 330 327 327 329 329 329 327 326 326 326 327 330 331 330 330 330 328 327 327 329
331 329 331 331 330 331 332 331 329 329 330 332 331 332 332 334 336 336 336 336 335 334 334 334 337 335 336 336 332 332 334 333 333 333 332 332 334 335 333 332 331 327 329 328 327 329 330 328 324 323 322 321 323 327 328 328 329 330 328 328 328 329
329 328 331 331 332 331 332 332 331 331 332 332 334 334 334 335 337 335 335 335 335 334 334 334 336 336 335 335 333 332 332 333 333 333 331 329 330 332 332 332 331 328 326 328 328 329 328 326 322 323 323 320 318 318 322 325 329 328 327 326 328 326
330 329 331 332 332 332 332 332 331 333 334 332 331 334 333 334 336 336 333 334 334 334 334 333 335 335 336 335 333 332 334 332 331 334 332 329 330 331 331 331 331 330 328 326 326 325 329 329 326 324 315 314 316 318 315 317 321 324 326 327 326 325
333 330 331 332 331 331 331 330 331 332 332 332 332 332 330 331 334 335 332 332 332 334 335 333 334 335 335 334 333 333 332 332 332 333 334 332 333 333 333 332 332 330 328 325 325 324 328 328 327 324 320 314 312 312 312 317 319 320 326 325 326 325
335 334 332 331 331 330 329 329 329 328 327 328 327 327 327 328 331 332 331 332 332 333 335 334 333 334 334 334 332 333 334 334 333 330 333 333 330 331 332 332 331 330 328 329 328 325 324 327 327 328 326 320 317 312 315 318 317 312 323 325 324 326
335 335 334 331 330 330 329 330 329 328 329 328 327 327 329 330 331 332 334 333 333 333 334 334 333 333 332 334 333 333 333 333 331 331 333 333 331 332 332 332 333 331 329 330 329 325 325 325 326 327 329 327 327 324 323 318 314 318 315 321 323 322
334 334 333 331 330 330 329 330 329 329 329 329 328 327 328 329 331 333 333 333 332 331 332 333 333 334 333 334 334 334 333 334 334 334 335 333 332 332 332 332 331 332 330 330 328 326 325 326 324 324 326 325 325 326 324 322 321 318 317 315 317 323
332 332 332 331 329 329 330 330 330 329 328 329 329 327 329 331 331 332 330 330 330 330 330 331 332 334 334 333 335 333 334 335 334 334 334 333 332 333 331 329 330 330 330 330 330 328 326 325 325 324 323 323 324 323 322 323 324 321 316 315 316 318
331 332 332 330 330 329 329 329 329 329 328 327 326 327 329 329 329 329 328 328 328 329 329 330 332 335 333 333 335 333 334 333 332 332 332 333 332 332 331 331 331 331 330 329 329 328 326 326 327 327 325 324 323 321 321 320 320 319 318 318 315 316
330 331 331 331 330 329 329 328 328 328 327 327 327 328 327 326 327 329 329 328 329 329 330 331 331 333 334 334 333 334 332 330 333 334 332 333 330 332 331 332 333 332 330 329 328 328 327 326 326 325 326 325 324 322 319 317 319 319 317 315 315 315
329 329 329 331 329 328 328 327 327 327 327 328 329 329 328 326 328 329 329 329 330 330 330 331 330 330 331 331 332 332 333 333 332 330 332 330 332 333 333 333 332 331 330 329 329 329 327 326 326 326 324 323 323 322 320 321 322 321 319 317 318 316
327 327 327 329 329 327 327 328 328 327 327 329 329 329 328 328 329 330 329 329 329 327 329 328 328 329 329 330 330 330 330 330 330 331 331 331 331 333 332 332 332 332 330 329 329 329 327 326 326 325 324 324 324 324 323 323 325 323 321 320 319 317
326 326 326 328 329 328 326 326 328 328 328 329 329 329 328 329 329 329 329 328 328 327 327 327 328 328 329 330 329 330 330 329 329 331 331 330 331 332 331 331 330 331 331 330 330 329 328 327 327 327 327 325 324 324 324 326 324 324 322 320 318 317
328 328 328 329 330 329 327 326 327 329 329 329 329 329 328 328 328 328 328 328 327 328 328 328 328 328 330 329 328 330 330 329 329 329 329 329 331 330 329 330 330 330 330 331 330 329 329 329 328 327 326 326 327 326 326 325 324 324 324 321 319 318
325 329 329 327 329 330 330 329 328 327 327 327 326 328 328 326 327 328 328 328 327 327 327 328 329 329 329 329 328 327 328 328 328 328 328 329 329 327 327 329 329 330 330 333 330 329 328 329 328 327 326 326 327 327 326 326 327 324 324 325 322 319
326 326 328 329 328 329 331 330 328 327 327 327 327 327 327 326 326 326 327 328 327 326 327 328 328 327 327 325 325 325 325 326 327 327 327 327 327 327 327 328 328 327 328 330 330 330 328 328 327 327 326 326 326 325 326 325 325 325 324 324 324 323

ECMWFFLT2_sfc_thetae_078.txt.gz
Theta_e
348 347 347 346 346 347 349 352 351 351 351 351 350 350 351 351 350 349 349 349 347 346 346 347 347 346 349 346 347 348 347 347 346 346 346 345 345 345 345 345 345 345 344 345 344 344 343 344 345 345 345 342 337 329 329 329 329 332 331 332 333 331
346 345 345 346 346 346 349 349 347 348 348 349 350 350 349 347 350 347 349 347 345 347 343 343 345 349 345 346 346 347 347 347 346 346 345 344 344 344 344 345 345 345 345 344 344 331 334 339 342 344 344 342 333 330 329 330 329 330 330 330 333 334
344 343 343 344 345 346 347 346 346 346 347 349 349 349 346 347 345 345 345 343 345 342 341 343 344 346 346 347 346 347 347 347 346 346 344 344 343 343 344 343 343 344 344 344 333 330 330 332 331 339 340 336 332 330 330 330 329 329 329 331 329 336
342 342 342 343 345 346 345 344 345 344 344 345 346 346 345 344 344 344 343 342 341 342 341 341 348 348 348 344 345 346 346 346 346 345 344 343 343 343 342 343 342 343 338 337 330 330 332 332 331 330 330 331 331 330 330 329 329 329 329 333 332 337
340 341 341 343 345 344 344 344 342 342 342 344 344 343 342 342 342 342 341 341 340 341 339 340 341 341 341 341 339 340 342 340 338 337 342 332 331 337 334 331 331 333 328 330 330 330 331 333 332 330 330 331 331 330 330 330 329 328 330 331 333 338
339 339 340 343 344 345 344 343 343 343 343 343 342 340 339 340 340 341 340 341 342 340 338 338 339 339 339 339 338 336 336 335 335 334 336 331 329 329 329 328 327 328 327 327 328 329 330 333 330 329 331 332 332 331 329 328 329 330 331 331 334 337
337 337 340 342 343 344 342 343 344 344 343 341 340 338 337 337 339 340 340 341 340 339 337 337 338 338 338 338 337 336 336 336 335 334 334 329 328 327 328 327 326 326 325 326 327 329 330 335 330 331 332 334 333 330 329 329 329 330 330 330 336 338
336 337 339 341 341 341 341 341 343 345 342 343 339 337 336 337 340 340 340 340 341 338 337 337 337 337 337 337 337 337 336 335 335 334 334 331 328 326 326 325 326 326 327 327 328 331 332 334 330 331 331 333 332 330 329 328 329 330 330 331 332 337
337 337 338 340 339 339 339 339 342 340 339 345 338 337 338 339 339 340 340 339 339 336 337 337 337 337 337 337 336 336 336 335 335 334 333 331 330 328 325 325 326 327 325 325 327 328 330 331 329 328 330 333 333 331 329 328 329 329 330 330 331 334
337 337 338 339 338 338 338 338 339 338 339 342 337 337 339 339 339 339 338 338 338 337 336 336 337 337 336 335 335 336 335 335 334 333 333 332 330 328 327 325 326 326 328 326 328 331 329 330 331 331 331 332 332 331 329 329 329 330 331 331 333 334
336 337 338 338 338 337 336 336 337 337 340 339 338 338 338 338 337 337 337 337 336 337 336 335 336 336 335 334 333 333 332 332 332 332 333 332 333 330 327 327 327 327 326 329 328 328 328 329 330 332 331 333 332 331 330 330 330 331 332 332 332 331
337 338 340 339 338 336 336 337 339 339 339 338 338 337 337 337 337 336 336 335 335 335 335 334 334 334 334 332 332 332 331 330 329 330 333 333 332 332 329 328 330 333 331 329 328 327 327 328 329 331 331 332 332 332 332 331 332 332 332 332 330 331
338 338 339 339 338 337 336 338 339 339 338 339 338 338 337 336 336 336 335 335 334 335 335 333 333 333 334 332 332 331 331 331 330 331 330 333 333 332 331 334 330 330 328 328 328 328 331 329 329 329 331 331 331 333 333 332 332 332 332 331 330 329
339 338 339 338 336 335 336 337 338 339 339 338 338 338 337 336 336 335 335 335 335 335 335 334 333 333 333 332 332 332 331 330 330 332 331 333 333 334 333 330 328 329 333 329 328 328 328 328 328 328 329 330 331 331 333 332 331 331 331 330 330 329
340 338 338 335 334 334 335 337 338 338 337 337 338 338 337 337 336 335 335 335 335 336 336 335 334 333 332 332 331 331 330 330 331 331 331 332 334 333 331 326 328 329 328 327 328 329 327 327 327 328 328 329 331 332 332 331 331 331 331 330 329 328
339 335 335 334 334 334 335 336 337 338 337 337 337 336 337 337 336 335 335 334 335 336 335 335 334 333 332 331 331 331 330 331 331 331 331 333 334 332 329 328 330 330 327 327 327 326 327 327 327 327 328 330 329 330 330 331 331 331 331 330 329 329
331 332 332 333 333 334 335 335 334 336 336 335 334 335 337 336 335 335 334 334 335 336 335 335 334 333 332 332 331 331 331 332 333 332 331 331 332 331 329 329 328 329 328 326 327 327 327 326 326 327 328 329 328 329 328 329 329 330 332 330 329 329
331 331 331 332 331 331 332 334 334 334 335 334 334 336 338 336 334 334 334 334 336 336 335 334 333 333 333 333 333 333 332 333 333 332 330 329 330 330 330 329 327 329 329 328 326 326 325 325 328 328 329 329 328 327 327 328 330 332 330 329 328 327
330 330 331 331 331 331 333 333 334 334 334 334 335 336 337 336 335 334 334 335 335 335 336 334 333 332 333 334 334 334 333 333 333 330 329 329 328 329 328 329 328 327 328 326 326 326 326 326 328 329 329 328 327 326 326 328 329 328 328 329 330 330
330 329 329 330 331 331 331 331 331 333 333 334 335 335 336 336 335 334 335 335 335 334 335 335 333 332 334 335 334 333 333 333 332 331 328 328 325 328 327 327 327 326 325 326 327 326 327 327 326 327 327 327 327 326 326 327 329 328 328 329 329 328
328 329 329 328 329 329 329 328 330 331 330 332 334 335 335 335 336 335 335 336 335 334 334 335 335 333 334 337 334 332 332 332 332 331 330 328 328 330 329 328 328 327 326 324 323 326 327 327 326 325 327 327 327 330 331 331 329 329 328 327 326 327
328 328 329 329 329 329 330 330 329 330 330 331 333 333 332 335 335 335 335 335 334 333 333 334 335 334 335 335 332 332 332 332 332 329 330 330 331 331 328 328 328 326 326 325 324 327 327 326 321 323 322 321 323 326 328 329 328 328 327 325 326 327
327 328 328 329 329 328 329 330 331 331 331 331 333 334 333 335 336 335 335 335 334 333 333 333 334 335 334 333 332 331 332 333 332 332 330 329 331 328 327 327 326 325 325 325 325 327 327 322 320 320 323 321 318 318 322 325 327 327 326 326 326 326
326 328 328 329 330 330 331 330 329 330 332 331 330 333 332 332 333 334 333 333 332 332 332 332 334 334 334 332 330 330 331 331 331 332 330 328 329 328 327 326 325 326 326 323 323 325 328 323 324 322 313 312 317 318 315 318 321 325 328 327 326 325
326 327 328 329 329 329 330 327 329 331 331 331 332 331 330 331 332 333 332 331 331 331 332 332 333 333 334 331 330 330 330 329 330 330 330 328 329 328 327 326 326 326 325 324 322 322 325 326 325 323 319 316 314 314 313 318 320 321 326 325 326 326
326 327 328 329 329 329 328 327 327 327 326 327 327 328 328 329 331 331 331 332 330 332 333 332 333 333 334 332 330 330 330 329 329 329 329 329 329 329 329 328 327 327 326 326 325 324 323 325 326 325 320 318 318 312 314 319 319 313 323 325 324 324
327 327 328 328 329 329 327 326 327 327 327 327 327 329 330 332 333 332 330 329 329 329 332 331 332 333 332 332 330 330 330 330 329 328 330 328 328 328 329 330 328 328 327 327 326 324 324 323 325 323 324 322 323 318 322 319 314 317 315 320 323 320
328 328 329 329 328 329 327 326 325 325 326 325 327 327 328 330 332 332 330 328 329 329 332 332 331 332 332 331 330 330 330 330 329 329 330 329 328 328 328 329 327 328 329 328 327 325 323 324 323 321 322 320 321 321 321 317 319 318 317 315 317 322
329 329 329 329 328 328 328 327 326 325 325 324 325 325 327 329 330 332 330 329 329 330 330 331 332 331 331 332 332 330 330 330 330 329 331 331 329 330 329 328 327 327 327 327 326 326 325 324 322 321 321 317 320 319 318 319 320 317 316 316 316 318
330 329 328 328 328 327 327 327 326 325 324 325 326 325 327 327 328 329 328 328 328 328 329 329 330 332 331 332 332 331 331 330 330 331 331 331 330 330 328 328 328 327 327 326 324 326 326 324 323 322 322 321 319 316 317 316 315 315 317 315 316 316
331 330 330 327 326 326 326 326 326 325 325 325 326 326 326 326 327 327 327 327 326 327 327 328 328 331 331 331 331 331 331 331 331 332 332 330 329 329 328 329 328 328 328 327 324 324 323 323 323 322 321 323 321 320 318 315 316 316 315 313 316 317
324 326 330 330 327 325 325 326 325 325 325 325 326 327 326 327 328 327 326 326 326 325 325 327 328 330 330 331 331 330 330 330 331 330 330 329 329 329 329 330 329 328 327 326 325 325 323 322 322 322 321 321 322 321 316 318 319 318 317 316 317 316
324 326 329 330 329 328 326 326 326 325 325 325 326 327 326 326 327 327 326 326 325 325 325 326 328 329 329 330 330 329 328 328 328 329 328 329 329 330 330 329 328 327 326 326 325 324 323 322 323 323 322 321 322 321 319 318 321 319 318 318 317 315
326 328 328 329 329 329 328 327 327 326 325 327 326 326 326 327 327 328 327 326 326 326 326 327 328 329 329 329 329 329 329 329 328 328 328 329 330 330 331 330 328 327 326 326 325 325 324 322 322 322 322 321 321 321 319 321 321 320 318 318 316 316
326 327 328 329 329 329 329 328 328 327 327 327 326 325 326 327 328 327 327 327 326 326 326 327 328 328 328 328 328 329 328 328 328 328 327 328 330 329 329 330 329 328 327 326 326 325 323 324 324 323 321 322 321 321 320 321 322 321 321 320 319 318
328 327 328 328 329 330 329 328 327 326 326 327 326 326 324 325 326 327 326 326 324 325 327 326 327 327 327 328 328 327 327 327 328 327 327 328 328 328 327 328 326 327 326 329 326 325 324 324 324 322 321 320 322 322 322 322 322 322 321 321 320 319
324 326 327 328 328 329 328 328 327 326 326 326 325 325 325 324 323 323 324 325 326 326 326 327 327 326 326 326 326 326 326 326 326 326 326 327 326 325 325 326 326 325 326 325 326 325 324 325 323 321 321 322 323 322 321 321 321 322 322 321 320 319

ECMWFFLT2_sfc_thetae_081.txt.gz
Theta_e
348 348 346 345 345 345 349 351 350 351 351 351 350 350 350 351 350 349 349 349 347 346 346 347 347 345 349 346 347 347 347 346 346 346 346 346 346 345 346 345 345 345 345 345 343 342 343 345 343 342 341 339 336 327 326 326 327 331 329 330 333 331
347 347 346 345 345 345 348 348 345 346 347 348 348 349 347 346 349 345 348 347 346 347 343 343 344 348 345 346 346 347 347 346 346 346 345 345 345 345 345 345 344 345 344 343 339 331 333 341 341 340 339 336 328 327 327 328 328 329 328 327 332 334
346 346 345 345 345 345 345 344 343 345 346 348 347 347 344 346 342 343 343 344 345 343 342 343 344 345 345 346 346 347 346 346 346 345 344 344 344 344 345 345 345 345 343 341 332 330 330 329 335 340 338 330 327 327 328 328 327 328 327 329 327 336
345 345 345 345 344 344 345 346 345 344 344 344 343 343 342 341 342 342 341 341 341 342 341 341 349 349 347 343 344 346 346 346 346 345 344 342 343 343 343 343 344 340 334 334 329 329 331 329 331 330 328 328 328 328 328 328 327 327 328 332 329 336
344 344 344 345 345 344 345 346 345 345 345 345 343 340 341 340 341 341 340 339 339 339 339 341 341 342 341 340 337 338 340 338 337 335 341 330 330 335 331 328 327 328 324 329 328 329 331 329 329 329 328 328 329 329 328 328 327 326 327 329 331 337
343 344 344 343 344 345 345 344 344 344 345 345 343 340 339 339 339 340 339 339 340 338 336 336 337 339 340 338 335 335 334 332 333 331 333 327 328 326 324 325 325 325 324 324 327 329 331 330 328 328 329 330 329 328 327 327 327 327 329 329 333 335
342 343 343 344 344 344 343 344 344 344 344 344 343 340 338 339 339 338 338 340 338 337 335 334 338 340 340 337 335 333 332 332 331 330 329 327 326 326 324 323 323 323 322 324 325 327 330 329 329 330 331 330 328 327 327 327 327 327 326 329 334 335
341 342 342 344 344 344 343 344 344 345 343 344 342 340 339 338 338 338 338 339 339 336 335 335 338 340 340 337 336 334 332 332 331 330 330 326 325 324 323 322 323 323 325 324 326 327 331 330 328 330 331 329 328 327 327 327 327 327 326 327 331 336
339 340 341 343 343 343 343 343 343 342 340 345 340 339 339 338 337 336 337 337 338 335 334 335 337 339 339 337 336 335 333 331 331 330 329 327 325 323 323 322 324 324 322 322 322 326 329 328 328 329 330 329 328 327 327 327 327 327 326 327 330 334
337 337 339 341 341 341 341 341 342 339 340 341 338 338 339 338 337 337 336 336 337 336 336 335 336 337 338 337 336 335 335 332 331 330 329 327 326 324 324 323 324 324 324 322 326 327 328 328 329 329 329 329 328 327 327 327 327 327 327 328 330 333
336 337 339 340 340 339 340 340 340 340 340 338 338 338 337 337 337 337 336 336 336 337 336 335 335 336 337 335 334 335 334 332 330 330 329 329 327 325 324 324 324 323 322 323 324 326 327 328 328 330 329 329 328 327 327 327 328 329 330 329 329 329
336 337 339 339 339 339 338 337 338 338 337 335 336 337 336 336 337 336 336 335 335 335 336 334 335 334 334 332 332 332 331 330 330 329 331 329 328 327 324 325 326 325 325 325 325 326 327 328 328 329 330 329 328 327 328 328 329 330 330 329 328 327
335 337 338 338 339 338 337 338 336 336 336 333 335 335 336 336 336 336 335 335 335 335 334 334 333 334 335 332 332 330 329 330 330 331 331 331 329 327 327 327 326 326 325 326 327 327 328 327 328 328 329 329 329 328 328 329 329 330 329 328 327 326
335 335 337 337 337 335 336 337 335 335 336 333 334 334 337 336 336 335 334 333 334 335 334 333 333 332 333 331 331 331 330 330 330 330 330 331 329 329 327 326 325 326 331 325 325 325 326 327 327 327 328 329 329 328 329 330 330 330 329 328 326 326
335 334 336 336 336 335 335 335 334 334 335 334 335 335 336 335 335 335 334 334 335 334 334 333 332 332 331 332 331 330 330 331 330 330 330 330 331 329 327 326 326 325 325 325 326 326 326 326 327 328 329 330 330 329 329 329 330 330 329 327 327 326
335 334 335 335 334 333 334 335 335 336 335 336 336 335 335 334 335 334 335 334 335 335 334 332 332 332 331 331 331 331 331 331 331 330 331 331 331 328 326 325 325 326 325 324 326 325 326 327 328 328 330 331 331 330 329 329 330 330 329 327 327 326
335 335 334 332 332 332 334 333 334 335 334 336 335 335 335 335 334 334 334 333 334 335 334 333 332 332 332 331 331 331 331 331 332 331 329 329 329 328 327 326 325 326 325 324 325 326 326 328 328 330 331 331 331 331 330 329 329 330 329 327 327 325
334 334 333 332 331 331 332 333 333 333 334 334 334 336 336 335 334 335 334 334 335 335 334 333 333 333 332 332 332 332 332 332 333 330 329 329 328 329 328 326 324 325 326 326 325 325 326 328 329 330 330 329 330 329 328 330 331 332 329 328 325 325
331 331 332 332 331 331 331 331 332 332 332 333 334 335 337 335 335 335 334 334 335 335 335 333 333 333 332 333 332 332 332 332 332 329 329 328 327 327 327 325 325 325 326 325 325 325 327 329 329 329 328 327 328 328 328 329 328 329 329 328 328 328
330 330 330 329 330 330 330 331 330 331 331 332 333 335 337 336 335 334 335 335 335 334 335 334 333 333 333 333 332 332 332 332 331 328 327 326 326 326 325 325 324 325 325 326 325 326 329 329 328 327 327 327 328 328 328 328 328 329 329 328 328 327
329 330 329 328 329 330 329 330 331 331 330 332 332 334 335 336 335 334 334 335 335 334 334 334 333 333 332 335 333 333 332 331 330 328 327 326 327 326 326 326 325 325 324 323 324 327 328 329 327 325 327 327 327 330 330 330 328 329 328 327 326 327
329 329 328 329 329 330 330 331 330 331 331 332 332 333 333 335 335 335 334 334 334 333 333 333 333 333 334 334 332 332 332 331 330 328 328 328 328 329 327 325 325 323 323 322 323 327 327 327 322 322 321 321 324 327 329 329 327 327 327 326 326 325
328 328 327 328 329 329 329 329 329 329 330 330 333 334 335 336 337 335 334 333 333 332 333 332 332 333 334 333 331 331 331 331 330 329 327 327 327 326 326 325 325 324 322 321 324 328 325 317 320 324 324 321 318 318 322 325 327 327 326 326 327 327
325 327 327 328 329 327 328 326 327 328 329 330 331 333 334 335 335 335 334 334 332 331 332 332 332 333 333 332 331 330 330 331 330 330 329 327 325 325 325 325 324 324 324 321 323 325 325 321 325 323 315 315 318 318 315 318 321 324 328 327 326 325
324 325 326 326 326 325 328 325 327 328 329 330 332 332 332 332 333 334 333 333 332 332 331 331 332 332 333 332 331 330 330 329 330 329 329 328 326 325 325 325 325 324 323 323 322 322 323 321 323 321 319 316 314 314 315 318 320 320 326 325 326 326
323 323 324 324 324 325 324 324 325 326 326 326 326 328 327 329 330 331 332 333 332 332 331 331 332 332 333 331 329 329 329 330 330 329 328 329 327 326 324 324 325 325 323 322 323 321 320 321 322 322 318 316 318 314 315 319 319 313 323 325 325 326
323 325 326 326 326 325 322 322 323 325 327 327 326 328 330 332 332 332 332 331 331 331 331 330 331 331 331 330 329 328 328 329 329 328 329 329 327 326 325 325 325 325 324 324 323 321 321 321 320 322 321 318 320 317 321 319 314 317 314 320 323 321
322 325 326 327 328 327 326 323 322 322 325 325 326 327 329 331 333 332 330 330 329 330 331 330 331 331 331 330 330 328 328 327 328 328 329 328 328 327 327 326 326 325 325 325 324 323 321 321 322 320 321 318 317 319 322 314 317 317 316 314 317 322
326 327 327 328 328 328 328 326 324 323 323 321 323 326 329 332 331 331 330 330 330 330 331 330 330 330 330 330 331 329 328 327 327 328 330 328 327 328 327 327 326 325 324 325 325 324 323 322 321 319 318 314 317 316 316 315 319 314 316 316 316 318
328 328 329 329 329 328 328 327 324 323 323 323 324 325 328 329 330 331 330 329 329 329 329 330 329 330 329 330 330 330 329 328 327 328 329 328 327 327 327 327 327 326 326 325 324 324 324 323 323 320 321 317 314 314 314 313 314 312 315 315 316 317
326 326 327 328 329 328 328 327 326 324 324 323 323 325 327 327 329 329 329 328 328 327 327 328 328 329 329 330 329 330 329 328 328 329 329 328 327 327 327 326 326 326 326 325 323 323 322 321 322 321 320 320 319 319 317 314 315 315 313 311 316 318
322 324 325 328 328 328 328 327 327 324 323 323 324 325 325 326 329 329 329 327 328 326 325 326 327 327 328 329 329 329 329 328 328 328 328 328 328 328 327 327 326 326 326 325 324 324 322 321 320 320 319 319 320 320 315 316 318 317 316 315 317 317
321 321 324 328 328 328 327 327 327 325 323 322 323 323 324 326 328 329 329 327 326 325 324 324 325 326 327 328 329 328 328 328 328 328 328 328 327 328 327 327 326 325 325 324 324 323 322 321 322 321 321 319 319 318 317 315 319 317 314 317 318 316
322 323 324 327 329 328 327 327 326 325 324 323 322 324 324 325 326 327 327 326 326 325 323 325 325 326 329 329 329 329 329 328 328 328 328 328 328 328 327 327 326 325 325 325 324 323 323 322 322 322 321 320 319 319 316 318 319 317 316 316 314 315
323 324 324 327 328 328 328 325 324 325 326 326 325 326 324 324 324 325 325 325 324 323 324 325 326 328 329 329 329 328 328 327 327 327 327 327 328 328 328 327 326 325 325 324 323 323 321 321 322 320 319 321 321 318 317 318 319 318 319 318 317 316
324 325 325 325 327 327 324 324 324 324 325 326 325 323 322 323 324 326 325 326 325 325 325 323 325 326 327 329 328 328 327 326 326 326 326 327 327 327 327 326 324 324 324 326 323 321 320 321 322 321 320 318 320 319 319 320 320 319 319 319 319 318
323 324 325 323 324 324 324 323 324 325 324 324 324 324 324 324 323 323 324 324 325 325 325 325 326 326 325 326 328 327 326 325 325 325 326 326 327 326 326 326 325 322 323 322 323 322 320 322 320 319 318 319 320 319 319 320 319 319 319 319 319 320

ECMWFFLT2_sfc_thetae_084.txt.gz
Theta_e
348 348 348 346 345 346 349 350 350 350 350 350 350 350 351 351 350 349 349 349 347 345 346 347 347 346 348 346 346 347 346 346 346 346 346 346 346 346 346 345 344 342 342 343 343 342 342 341 341 340 339 338 336 329 329 329 330 334 334 336 336 333
347 347 347 347 346 346 348 348 345 346 348 348 349 349 348 347 348 345 348 347 344 346 343 343 345 347 345 346 346 346 346 346 345 345 345 344 345 345 346 345 344 342 341 340 340 338 341 342 341 340 339 335 329 328 329 330 331 332 333 333 335 336
347 347 346 346 346 346 344 344 344 344 346 347 348 347 344 345 342 343 344 344 345 343 342 343 344 345 345 346 346 346 346 345 345 345 344 344 344 345 345 344 342 342 339 337 333 333 336 337 338 339 336 330 329 329 330 330 330 331 330 334 331 335
346 346 345 345 346 345 345 345 345 345 343 342 343 343 342 341 342 343 343 342 342 343 342 341 348 348 347 345 345 346 346 345 346 345 344 340 343 344 344 342 340 338 335 334 332 333 334 334 331 329 329 329 329 329 329 330 330 330 332 336 331 336
346 346 345 345 345 345 345 346 345 345 344 342 341 340 340 340 340 341 341 341 343 344 342 343 343 342 341 341 341 340 341 338 335 333 338 330 330 330 329 328 328 329 329 331 331 332 333 331 330 329 329 330 330 329 330 330 330 330 331 333 336 336
345 345 344 344 345 345 345 344 344 345 345 343 341 339 338 339 339 339 339 341 343 341 339 340 341 342 341 340 340 338 336 334 333 332 332 329 328 327 326 327 327 327 328 329 331 331 332 330 328 329 329 330 330 330 329 329 330 332 332 333 337 336
344 344 344 345 345 345 344 345 345 345 344 343 342 340 339 338 338 338 339 341 340 339 338 339 341 341 340 339 339 337 335 335 334 333 331 328 327 326 325 325 326 326 325 328 330 331 330 329 329 329 330 330 330 329 329 330 331 331 331 333 336 335
343 344 343 344 344 344 344 344 345 344 343 344 342 340 339 339 339 339 339 340 341 338 338 339 340 340 340 338 337 337 335 335 334 333 331 328 327 325 324 324 326 325 326 328 330 331 330 330 330 330 330 330 329 328 329 329 330 330 331 333 335 336
342 343 343 344 343 343 344 344 344 342 342 345 342 341 340 339 338 339 337 337 338 336 337 338 339 339 340 339 337 336 337 335 333 333 331 328 328 326 325 323 325 325 325 327 330 330 330 330 330 330 330 329 329 328 329 329 330 330 331 333 335 336
342 342 342 343 342 342 343 343 342 342 342 342 340 341 340 338 337 337 337 338 337 335 335 337 339 339 338 338 337 337 337 335 333 331 331 330 329 327 327 325 325 325 326 327 329 331 330 330 330 330 329 329 329 329 329 330 330 330 331 332 334 338
341 342 342 342 341 341 342 342 341 341 342 340 340 340 340 338 337 337 337 337 337 336 335 336 338 338 338 337 337 337 336 336 334 332 331 330 329 327 325 325 325 325 325 326 328 330 329 329 330 330 330 329 329 329 329 330 331 332 332 332 333 335
340 341 341 341 341 341 341 341 341 341 341 339 340 340 339 338 338 337 337 336 336 336 336 335 337 337 337 336 336 336 336 335 335 331 331 331 330 329 326 326 327 326 326 327 327 328 329 330 330 330 330 329 329 329 330 330 332 332 332 331 332 333
339 340 340 340 340 340 340 340 340 340 338 338 339 338 338 338 338 338 337 335 335 335 336 335 335 336 337 336 335 335 335 335 334 332 331 332 331 329 330 329 327 327 327 328 329 328 330 329 329 329 330 329 329 329 330 331 331 332 331 331 331 331
337 338 340 340 340 339 339 339 339 339 337 334 336 336 337 337 338 337 336 335 335 336 335 335 334 335 336 334 334 334 333 332 331 331 331 331 331 329 328 327 326 328 330 327 327 327 328 328 329 329 329 329 329 330 330 331 332 332 331 331 330 331
336 337 339 339 339 338 338 338 337 336 334 333 334 335 335 337 336 335 334 334 334 335 335 334 335 334 333 333 332 331 331 332 331 330 331 331 331 329 328 326 327 326 325 326 327 328 328 328 329 329 329 329 329 329 331 331 332 332 330 329 330 330
335 336 338 338 338 337 338 336 335 336 333 333 333 334 335 335 336 335 335 334 334 335 335 334 334 334 333 332 332 332 331 331 331 331 331 331 331 329 327 326 327 327 325 325 326 326 328 328 329 330 330 330 330 330 330 332 332 331 330 330 330 330
333 335 336 337 336 336 336 335 334 335 333 333 333 333 334 334 334 335 335 334 334 335 334 334 334 334 333 332 332 330 330 330 332 331 331 331 330 329 328 327 326 328 327 325 326 326 327 328 329 331 331 330 330 331 331 331 332 331 331 330 329 330
334 336 335 335 334 334 335 334 334 334 334 332 333 334 335 335 334 334 334 334 333 334 334 333 333 333 333 333 332 330 329 331 332 331 330 330 328 328 328 327 325 326 327 327 326 326 326 328 330 331 331 331 331 331 331 332 332 332 330 329 329 329
335 335 334 333 333 333 334 333 333 333 332 332 333 335 335 335 334 335 334 333 333 334 335 333 333 333 332 333 331 330 330 331 332 330 330 328 327 327 327 326 327 326 327 327 327 328 328 330 330 329 328 329 329 329 330 331 331 331 330 329 330 330
333 334 334 332 332 332 332 331 330 331 331 331 333 334 335 335 335 335 335 334 334 334 335 334 332 332 332 332 330 330 330 331 331 330 329 327 327 327 326 326 326 326 326 327 329 330 331 330 328 328 327 328 329 329 329 329 330 330 331 330 331 329
331 332 332 331 330 330 329 330 330 330 329 330 332 333 334 336 336 335 336 336 335 335 334 334 333 332 331 334 331 331 330 331 331 329 329 328 328 327 327 327 327 327 326 325 327 330 331 330 327 325 327 327 327 329 329 329 328 329 329 329 329 329
330 331 331 331 331 331 331 331 330 330 330 331 331 332 332 335 336 336 333 333 334 333 334 333 333 332 332 332 331 331 330 331 330 328 328 328 328 329 327 327 327 325 327 326 325 329 330 329 324 323 321 322 325 327 328 328 328 328 328 328 328 328
329 330 330 331 331 331 331 332 332 331 331 331 334 334 335 336 337 333 332 333 333 333 333 332 332 332 332 332 331 331 330 331 330 329 328 327 328 327 326 326 326 325 323 326 327 329 329 324 323 325 325 322 319 318 323 325 327 327 327 328 329 329
329 329 329 330 331 331 332 331 332 332 332 332 331 334 335 336 333 331 330 332 332 333 333 333 332 332 332 332 331 330 330 330 329 330 329 327 327 326 326 326 325 325 326 323 325 325 327 324 327 324 317 318 319 319 315 318 321 325 328 327 328 327
329 328 328 329 330 330 331 329 330 331 332 332 333 333 332 332 331 331 331 330 331 333 332 332 332 332 333 331 330 331 331 331 329 329 329 328 327 326 326 326 326 325 325 324 323 325 326 325 327 325 322 318 315 315 316 319 320 321 326 325 326 326
326 326 327 328 329 329 329 329 328 328 327 327 327 328 328 329 329 329 329 331 332 333 332 331 332 332 333 331 330 331 331 330 329 329 329 329 328 327 326 325 326 326 325 326 325 324 324 326 325 323 320 320 321 316 316 320 320 313 323 326 326 327
326 326 327 327 328 328 327 328 329 328 328 328 327 329 331 332 332 332 333 332 332 332 331 331 331 332 332 332 331 329 329 330 330 329 330 329 327 326 326 326 327 326 325 325 326 323 323 323 325 324 323 320 322 320 323 321 316 317 314 320 324 323
325 326 326 327 327 327 327 327 326 325 326 326 327 327 329 329 330 332 332 332 330 330 331 331 331 332 332 331 330 329 329 329 329 329 330 329 328 327 326 327 327 327 326 326 325 324 323 324 322 322 324 323 322 321 322 318 321 319 317 315 317 323
326 325 325 324 324 325 327 327 326 325 325 324 324 325 329 331 331 332 330 330 330 330 331 331 332 331 331 331 331 329 329 329 329 329 330 329 329 328 327 326 326 325 325 325 325 325 325 323 323 321 320 317 319 320 319 320 321 319 318 315 315 317
328 327 327 326 326 326 326 328 326 325 325 325 326 327 330 330 331 331 330 329 329 330 330 330 330 331 331 331 330 329 329 329 329 329 330 329 329 328 327 326 326 326 326 325 325 325 325 325 325 323 323 319 317 317 318 319 319 318 319 319 315 316
326 327 327 327 327 327 326 327 327 325 324 324 326 327 328 329 330 330 329 329 329 329 329 329 329 330 331 331 330 330 329 328 329 330 330 329 328 328 326 327 327 327 326 325 325 325 325 324 325 323 322 321 321 321 319 317 318 318 316 315 317 317
324 325 325 327 327 327 327 327 326 324 323 323 325 327 328 328 329 329 330 329 329 328 327 329 329 328 329 330 330 330 329 329 328 329 329 329 328 329 328 327 327 326 326 326 326 325 324 323 323 323 323 322 322 322 320 320 320 320 319 318 319 317
324 324 324 326 327 327 326 325 324 324 324 325 324 326 327 327 328 329 330 329 328 327 327 326 327 327 328 329 330 329 329 328 328 328 329 329 328 328 327 327 327 326 326 326 325 325 324 324 324 323 323 322 322 321 321 319 321 320 318 320 320 318
323 324 325 325 327 326 325 324 324 324 324 325 324 324 326 326 327 328 330 329 328 328 327 327 326 327 329 329 329 329 329 329 329 328 328 329 328 328 327 327 326 326 326 326 326 325 325 324 324 325 324 322 321 322 320 320 322 321 320 320 318 318
321 324 325 325 325 324 324 323 324 324 324 324 324 325 325 326 326 328 329 329 329 328 327 327 327 327 328 328 328 328 328 328 328 328 328 328 329 328 328 327 327 326 326 326 326 325 324 324 323 323 323 324 322 321 320 321 322 321 322 322 320 320
320 321 322 322 324 324 324 323 322 322 323 323 324 325 325 324 325 327 328 328 328 327 326 326 326 327 327 328 327 327 327 327 327 328 328 328 328 328 327 327 326 326 325 326 325 324 324 323 324 323 323 323 323 322 321 321 322 322 322 322 321 321
321 320 320 321 322 322 323 321 322 323 323 323 324 324 324 324 325 325 326 326 327 327 326 325 325 327 326 327 327 327 327 326 325 327 327 328 328 328 327 327 326 325 325 325 325 324 323 323 323 323 322 323 324 322 321 322 322 322 322 321 322 322

ECMWFFLT2_sfc_thetae_087.txt.gz
Theta_e
350 351 351 351 351 351 351 351 351 350 350 351 350 350 350 349 350 349 349 349 347 349 350 350 349 349 348 349 346 346 346 346 345 346 345 345 345 345 345 344 344 345 345 345 343 342 342 341 340 339 339 339 337 338 338 338 338 337 337 336 337 336
349 349 350 350 350 351 351 350 351 351 351 351 351 351 351 351 351 350 348 349 350 349 348 349 349 349 349 349 348 346 346 346 346 345 345 345 345 345 344 343 344 344 344 344 343 343 343 341 340 340 339 337 337 337 339 339 339 337 337 337 337 336
348 349 350 350 349 350 351 351 350 351 350 350 351 352 350 351 350 350 349 348 349 349 348 348 349 347 348 347 348 346 346 345 345 344 344 345 345 345 344 343 343 343 343 342 344 344 341 340 341 339 337 338 338 338 339 340 340 339 337 337 337 337
348 349 349 349 349 349 349 350 349 349 349 350 351 350 350 350 350 349 348 349 348 348 348 348 348 347 348 349 348 346 345 345 345 344 343 345 344 344 343 342 341 340 341 344 346 343 342 341 341 340 340 338 337 337 339 340 338 338 338 336 336 337
348 348 349 348 348 347 348 348 348 347 348 348 348 348 348 349 350 349 349 348 348 348 348 348 347 348 348 347 347 347 347 346 345 344 342 344 345 341 344 342 341 341 343 344 343 343 342 341 340 338 338 338 337 338 338 339 338 338 339 338 338 338
347 348 348 347 348 347 347 346 346 346 347 347 347 347 348 348 348 348 348 348 349 348 347 346 346 346 346 347 345 345 344 345 344 344 343 341 340 341 342 341 341 341 342 344 343 343 342 339 338 337 337 338 337 338 338 337 338 339 338 338 338 335
346 347 346 348 348 347 347 347 346 347 346 345 346 346 345 346 348 347 347 347 346 348 348 346 345 345 344 345 345 344 344 344 343 343 343 340 339 340 340 340 341 342 342 342 342 342 340 339 338 336 337 337 338 337 339 338 338 338 337 337 337 339
346 346 346 347 347 346 347 346 346 346 347 346 345 345 345 346 347 346 347 349 348 347 345 345 344 344 343 344 344 344 345 343 343 342 343 340 338 338 338 339 340 340 340 341 341 340 338 337 337 338 336 338 337 338 339 338 339 339 338 338 337 337
347 347 347 347 346 346 346 346 346 345 346 347 345 344 345 346 346 346 346 345 347 345 345 345 344 343 343 343 343 343 344 343 343 342 342 339 339 338 338 338 338 339 341 341 340 340 338 337 338 339 337 336 336 338 339 339 340 338 338 337 337 336
346 346 347 346 347 347 346 345 345 345 346 347 344 344 346 344 346 345 344 345 346 345 344 344 343 343 342 344 343 343 343 343 342 342 343 341 340 338 337 338 338 338 338 341 341 340 338 338 336 338 337 337 338 338 340 339 339 338 337 337 339 338
346 347 346 346 346 346 347 345 345 345 345 345 346 345 343 344 345 345 344 345 346 345 344 344 343 342 343 342 341 341 341 342 341 342 343 342 342 340 338 338 339 338 339 341 341 340 339 338 337 336 337 336 338 340 339 340 339 338 337 337 338 338
346 346 347 345 346 345 345 345 345 345 345 346 347 344 343 344 345 346 345 345 346 345 344 344 342 342 341 341 341 340 341 341 340 341 342 342 341 341 340 339 339 342 343 343 342 341 342 340 339 337 338 335 336 338 338 339 338 338 338 338 337 337
345 346 347 345 345 345 346 345 345 344 346 345 345 344 343 343 344 346 345 346 345 345 344 343 342 342 341 342 341 341 340 340 341 340 342 342 343 342 341 339 339 341 340 342 342 341 341 342 340 339 337 336 338 338 339 337 337 337 337 337 337 336
344 344 345 346 345 345 346 345 346 346 346 345 346 345 344 344 344 345 344 344 344 344 343 343 342 341 342 342 341 340 340 340 341 341 342 342 341 341 339 338 338 339 338 340 339 338 337 337 337 337 337 337 338 338 337 336 337 337 337 337 337 337
342 343 344 345 344 344 345 344 345 344 345 343 343 343 344 344 345 344 344 340 342 343 343 343 343 342 341 340 340 340 339 339 340 341 341 341 341 341 340 338 338 337 335 336 336 336 336 336 336 334 335 336 335 336 336 336 337 336 336 337 338 337
341 341 342 344 344 344 344 344 343 342 341 343 342 341 342 342 343 343 343 337 340 343 344 344 343 343 340 340 340 338 340 341 341 341 341 342 341 339 339 338 339 339 335 334 335 335 335 335 335 334 335 335 336 336 335 336 336 335 335 337 336 337
339 340 342 342 343 343 344 342 340 341 340 341 341 341 343 341 343 343 338 337 338 342 342 343 344 344 343 336 339 340 339 339 341 341 341 341 340 340 339 337 337 339 340 336 333 333 333 335 334 334 334 335 336 335 335 336 336 336 336 335 335 336
339 340 342 342 341 342 342 341 340 340 340 339 340 343 342 341 341 341 340 340 340 342 343 343 343 343 342 337 338 337 338 339 340 340 340 339 340 340 339 339 334 337 338 337 334 333 333 333 334 333 334 334 336 336 336 336 336 337 336 333 334 335
338 339 340 341 340 340 340 340 341 339 339 339 339 340 341 342 341 341 340 340 340 342 343 343 342 339 336 335 335 337 338 339 340 340 339 339 338 336 336 336 336 334 336 336 335 334 334 334 334 333 333 335 335 335 336 338 338 335 335 335 334 334
338 339 339 338 337 337 336 335 334 335 336 336 337 337 339 340 341 340 339 340 340 341 341 338 335 336 335 333 334 337 337 339 340 339 338 336 334 334 333 334 336 335 333 334 334 334 335 334 333 332 332 333 334 334 334 337 337 335 335 335 335 335
337 339 337 335 334 334 333 333 333 334 334 336 336 336 337 339 340 341 340 340 340 340 337 335 334 334 333 333 335 336 338 338 339 337 336 335 334 334 336 337 336 336 333 331 331 334 335 335 331 329 331 330 332 336 336 334 333 334 335 337 335 334
334 336 337 336 336 335 335 335 335 334 333 334 333 333 335 339 340 340 340 340 341 340 338 335 335 334 334 333 332 333 335 336 335 335 334 334 334 334 334 337 335 333 333 332 331 334 333 332 328 326 325 324 329 329 331 332 331 332 335 336 334 334
331 335 335 336 336 335 336 337 337 337 335 333 335 335 337 341 341 340 341 339 341 339 337 338 336 335 335 333 333 334 335 335 335 334 333 333 332 330 332 332 334 333 330 332 331 333 333 334 329 330 331 327 321 319 324 327 330 330 332 335 334 333
332 333 333 335 336 337 337 336 336 337 335 333 332 335 337 339 342 339 337 340 341 337 336 337 336 335 335 335 334 334 335 335 335 335 335 334 333 331 331 331 334 334 333 327 329 330 334 333 333 330 323 324 324 322 317 320 324 328 332 332 332 332
332 332 332 333 333 333 334 334 335 335 336 333 335 335 335 334 336 337 338 337 336 337 337 337 337 334 335 334 334 335 334 334 333 334 335 335 334 332 331 332 333 334 333 330 327 329 331 333 334 335 330 323 321 319 319 323 324 325 330 329 330 331
331 331 330 331 333 333 332 332 333 331 330 331 330 329 330 330 333 333 334 337 337 336 336 336 336 335 335 334 334 334 334 334 333 333 334 334 334 333 332 332 333 333 334 336 332 328 328 332 334 334 335 334 330 322 323 324 322 318 328 330 331 333
331 330 331 331 332 332 331 332 332 331 332 331 331 330 334 335 334 336 337 337 335 335 336 335 335 334 335 334 334 334 334 334 336 334 335 334 334 332 332 333 335 336 334 334 332 328 327 328 331 332 332 333 331 330 331 325 320 324 318 324 330 330
330 329 330 331 331 331 331 331 330 330 330 329 329 330 332 335 337 337 337 338 337 336 336 335 334 333 334 333 333 333 335 334 334 334 335 333 334 335 334 334 335 336 334 331 332 330 329 329 326 327 331 330 331 332 333 332 330 324 321 318 320 327
329 329 330 330 330 330 330 331 330 329 328 329 330 330 329 331 333 336 336 338 336 335 335 334 333 333 333 333 334 333 334 333 334 334 334 334 335 335 334 332 332 331 331 330 331 332 331 329 329 329 328 328 330 331 331 331 330 329 324 321 320 321
329 330 330 331 331 330 330 330 330 330 330 330 331 332 331 330 332 335 334 335 335 335 334 333 332 333 332 333 333 333 334 333 334 334 334 334 334 333 333 333 332 331 331 330 331 332 332 332 332 333 330 329 328 329 328 327 328 327 326 326 321 319
328 329 331 331 331 330 331 331 331 331 332 332 333 332 332 332 333 334 332 333 333 333 334 334 332 332 334 334 333 334 334 334 334 335 334 334 335 332 333 334 334 333 332 331 330 332 333 335 334 333 331 331 330 329 328 327 327 327 326 323 321 321
330 330 330 331 332 332 331 332 332 333 333 335 335 331 332 331 332 332 333 332 333 333 333 333 331 329 331 333 333 333 334 334 333 334 334 335 335 334 334 334 334 333 332 332 333 333 334 334 334 332 332 332 332 333 333 330 331 330 328 326 324 322
328 331 332 332 332 333 333 333 333 333 334 336 335 334 334 333 333 332 332 333 333 331 332 330 329 328 330 331 332 332 332 332 333 334 335 335 335 336 335 334 333 332 332 331 331 332 331 332 332 331 331 333 334 334 332 334 333 331 331 330 327 323
327 329 331 332 333 332 333 333 334 334 335 335 333 332 333 333 334 333 334 334 334 333 332 331 331 329 330 331 331 332 333 333 334 335 335 336 336 335 335 334 334 333 332 331 332 333 333 335 335 335 337 334 334 332 334 334 333 332 330 329 326 325
324 326 328 329 331 332 331 332 332 332 333 332 332 332 332 333 335 334 335 335 335 335 333 333 333 332 331 331 332 333 334 334 334 334 335 335 335 335 335 335 335 335 334 332 332 333 334 335 333 334 335 334 333 334 333 331 333 332 331 330 330 328
322 323 325 326 329 330 330 331 332 332 332 332 331 331 331 332 333 334 333 332 333 334 334 334 334 333 332 331 331 331 332 334 334 335 334 335 334 334 335 335 335 333 332 332 332 333 334 335 335 335 336 336 334 332 331 330 332 333 331 333 332 331
320 322 322 324 325 327 329 329 330 331 332 332 331 330 329 331 332 332 333 333 333 334 334 334 333 333 333 331 331 330 331 333 334 334 333 334 334 332 331 330 333 334 331 331 332 333 334 333 334 335 336 335 334 333 332 333 333 333 333 334 332 331

ECMWFFLT2_sfc_thetae_090.txt.gz
Theta_e
351 352 351 351 351 351 349 352 351 351 351 350 350 350 349 348 348 347 347 347 347 348 350 351 350 349 347 348 346 345 346 345 345 344 345 346 346 347 347 347 346 346 346 344 343 342 341 341 340 339 339 338 338 344 343 343 343 342 341 340 339 336
352 352 352 351 351 351 351 351 352 352 351 350 350 350 351 349 348 350 346 348 349 348 349 350 350 348 350 349 347 345 345 345 345 345 345 345 346 346 345 346 346 346 345 343 342 343 343 340 340 339 339 339 341 342 345 344 344 341 341 340 339 337
351 353 352 352 351 351 350 351 351 350 350 349 351 352 350 350 351 350 348 348 349 349 349 349 350 347 347 345 347 345 345 345 344 344 345 345 345 344 344 345 346 346 343 342 343 343 342 341 341 339 339 340 343 343 345 345 343 343 340 340 339 337
352 352 352 351 352 351 351 352 351 351 351 351 351 350 350 351 350 351 349 349 349 349 350 350 347 348 348 348 347 345 344 344 343 343 345 344 344 344 344 344 345 344 342 344 348 343 343 342 340 342 345 343 341 343 344 344 341 341 341 339 338 337
352 352 352 352 351 350 352 350 350 350 351 350 350 351 350 351 352 352 351 352 350 350 349 347 349 348 346 347 347 347 347 345 345 345 344 342 342 343 346 346 348 344 346 346 345 345 344 343 344 343 343 342 343 344 342 342 340 339 340 340 339 337
351 351 351 351 351 351 351 349 351 351 350 349 350 350 349 351 353 353 353 354 350 350 349 346 348 347 346 346 345 345 344 344 344 342 343 342 340 341 343 342 343 344 345 346 346 345 345 343 342 342 341 343 342 343 341 339 340 340 340 340 338 337
349 350 351 352 351 352 351 352 350 350 349 348 350 350 348 350 353 354 354 354 350 349 348 346 348 347 346 347 345 344 343 343 344 341 343 342 341 341 340 342 342 344 345 345 345 344 343 343 342 339 341 341 341 342 342 340 339 339 338 338 338 337
349 350 350 351 351 351 352 351 351 349 349 348 348 347 348 348 352 353 354 354 351 351 350 345 348 347 344 344 344 344 345 342 343 341 342 341 341 339 340 341 344 343 343 344 344 343 341 340 341 341 340 341 341 342 342 340 340 340 339 339 338 337
350 350 349 350 350 351 350 350 350 348 348 348 350 348 348 349 350 351 353 354 353 352 350 347 346 346 344 344 344 345 343 342 343 342 342 340 339 340 339 339 341 342 344 345 343 343 341 340 342 342 340 339 340 341 343 343 342 340 340 339 339 337
349 349 349 350 349 350 350 349 348 349 351 350 349 349 350 348 350 350 351 353 352 352 351 349 347 345 345 345 345 345 344 344 341 341 341 340 340 339 338 338 340 342 342 344 343 342 341 340 338 340 339 340 342 341 342 342 341 341 340 339 340 338
350 350 350 349 349 350 351 349 349 350 350 350 350 349 349 349 349 351 352 352 349 349 352 350 348 347 346 347 347 346 346 344 341 341 342 342 342 340 339 339 340 341 344 344 342 341 339 340 339 338 339 339 341 342 342 343 342 341 340 341 342 340
349 349 349 348 349 351 350 349 350 350 350 351 351 350 349 350 348 351 352 351 348 348 350 349 349 347 347 346 345 344 344 344 342 342 343 343 342 340 339 339 341 343 345 344 341 341 343 340 339 338 340 338 340 341 341 342 342 341 341 342 341 339
347 349 349 348 348 349 350 349 350 351 351 350 351 350 349 349 349 351 351 350 348 348 349 348 347 347 346 344 344 343 341 343 342 343 344 343 343 342 341 340 341 342 342 342 341 340 341 342 341 341 340 338 340 340 342 341 342 342 341 342 341 339
347 347 349 349 348 348 350 350 351 351 351 351 350 349 348 350 349 350 349 348 348 344 347 346 344 347 347 346 347 346 343 342 342 343 343 344 341 340 339 339 339 340 339 340 339 340 339 340 340 340 341 340 340 342 341 341 340 340 341 342 341 340
346 346 348 349 349 349 350 350 350 350 350 350 349 348 348 348 349 349 349 350 348 349 345 342 342 345 345 345 344 345 344 344 344 343 340 342 341 341 341 339 337 337 339 338 338 339 339 340 339 338 339 340 339 341 341 340 342 342 341 342 341 341
343 344 346 347 347 348 348 350 350 347 350 349 347 346 346 347 346 347 348 349 347 346 341 341 344 344 343 342 343 341 342 344 344 345 342 340 342 339 339 339 339 339 336 335 337 338 339 339 338 338 339 339 339 340 339 340 342 342 342 342 341 341
340 342 344 345 346 347 349 347 347 350 348 346 345 344 345 346 345 346 350 348 345 345 344 341 339 341 341 338 339 342 343 343 344 344 344 342 340 339 341 338 339 339 338 335 334 336 337 338 338 338 339 339 339 340 341 341 341 342 341 341 340 339
335 339 341 344 345 346 346 347 347 346 347 345 344 341 341 343 343 344 346 345 344 342 342 337 339 341 338 336 337 338 338 341 343 344 344 344 340 340 342 342 339 339 338 336 333 335 336 337 336 336 338 337 340 340 340 340 341 340 340 339 340 340
336 336 337 340 345 346 348 349 349 348 347 346 346 346 344 343 342 344 342 340 341 339 340 340 339 342 340 338 339 340 340 342 342 344 343 342 342 342 342 343 341 339 339 337 334 336 337 336 337 336 336 340 341 340 339 338 339 339 339 341 339 339
335 337 338 341 343 345 346 345 344 346 343 343 344 344 347 345 343 342 341 340 340 339 341 341 342 343 339 338 341 341 343 342 344 340 339 337 340 341 343 343 341 340 339 337 337 338 339 337 336 339 337 338 338 338 338 337 338 339 339 340 340 339
337 337 337 338 340 340 340 342 343 342 339 339 341 343 343 344 345 341 339 341 340 339 341 341 340 339 339 338 339 341 338 343 341 339 337 335 341 341 341 340 338 339 337 334 335 340 340 340 337 334 335 334 334 336 337 337 337 339 339 338 339 338
336 338 339 340 339 339 339 339 338 338 338 338 339 338 338 342 343 339 339 340 341 343 342 339 338 338 339 341 342 342 341 340 342 336 338 341 340 339 340 339 337 335 336 335 335 338 340 338 331 330 327 327 329 333 335 336 336 337 339 338 339 339
336 339 340 340 339 338 340 341 340 340 341 340 340 341 340 341 340 339 341 342 344 344 343 340 340 338 338 340 341 341 341 343 342 339 337 339 340 340 341 336 336 334 332 335 335 339 339 338 331 331 333 327 323 324 329 332 337 338 337 339 337 336
338 340 341 341 340 341 341 343 342 343 343 341 340 342 342 342 341 340 340 343 344 340 340 339 339 338 339 340 340 340 341 343 341 339 338 336 335 335 336 336 337 336 337 332 332 333 339 340 337 331 319 324 324 325 320 324 329 334 338 339 338 335
339 339 340 340 339 339 338 338 340 339 339 339 340 340 340 338 339 340 340 341 342 339 338 338 339 339 339 339 340 340 340 339 340 339 339 337 334 334 335 336 337 333 336 335 332 333 336 339 338 340 332 327 321 319 320 325 329 330 335 334 335 334
339 339 338 339 337 337 335 335 335 334 333 334 334 335 335 337 338 338 338 339 343 340 338 338 338 338 338 339 339 339 339 341 338 340 339 338 336 336 336 335 334 336 336 338 337 334 329 338 339 337 335 332 330 324 324 327 324 322 334 336 334 335
336 336 336 336 335 335 334 334 334 335 335 335 334 336 338 340 339 340 343 343 341 342 340 339 338 339 339 338 338 339 339 339 340 340 338 339 338 335 335 337 340 340 339 336 333 329 330 333 336 335 335 340 339 335 335 331 324 326 323 329 332 332
336 336 337 337 337 337 335 334 334 335 336 336 336 338 341 340 343 342 342 343 343 342 341 341 339 338 339 339 338 338 338 338 338 340 338 337 337 338 338 340 340 341 341 337 334 333 333 334 332 332 337 337 335 335 335 334 334 328 325 323 324 332
335 336 337 337 337 337 337 337 337 336 335 336 337 336 337 339 339 342 341 342 343 342 341 340 339 339 339 340 338 337 338 338 338 339 338 337 337 336 338 337 339 339 340 341 340 339 335 336 335 332 333 335 335 333 333 334 334 334 327 324 322 324
334 336 337 337 338 338 337 336 336 336 335 335 337 337 338 337 338 338 339 341 343 343 341 339 339 339 339 338 338 336 337 337 338 339 338 338 337 336 335 336 336 337 339 338 336 335 333 335 336 335 334 334 330 329 329 330 332 331 331 331 324 322
335 336 335 337 337 337 337 338 338 337 337 336 337 337 335 336 336 338 338 340 340 341 342 340 340 339 339 339 339 338 338 338 339 338 337 337 337 335 336 338 338 337 336 336 335 335 334 335 336 335 334 334 330 329 329 329 330 331 330 327 326 325
334 335 336 336 337 336 337 337 337 337 337 338 338 335 335 335 336 337 338 338 339 339 340 340 339 338 339 339 338 338 338 338 340 340 339 339 338 337 338 337 336 336 335 334 335 334 333 330 334 334 333 334 333 332 332 330 329 330 329 328 327 325
330 332 332 335 336 336 336 337 337 337 338 338 339 339 338 338 339 337 337 338 337 336 337 336 338 338 338 340 338 337 337 337 339 340 339 340 338 335 336 336 335 335 334 333 334 334 333 331 332 329 332 334 332 333 332 333 332 331 332 332 329 325
327 329 331 332 334 334 335 336 337 337 338 338 338 338 338 337 338 338 338 337 337 336 336 336 337 338 338 339 339 339 339 339 340 341 340 337 333 335 337 335 334 334 333 335 336 333 333 335 337 336 337 336 335 334 333 334 333 333 333 332 328 326
326 327 329 330 330 331 332 333 334 336 337 337 336 336 335 336 336 337 339 338 338 337 336 337 337 339 337 338 339 339 340 341 340 340 338 335 334 333 334 334 333 334 334 334 334 334 335 335 334 335 334 334 335 334 334 337 334 334 334 333 331 329
325 326 327 327 329 329 330 332 333 334 335 336 335 335 334 334 334 336 338 339 338 339 338 338 340 339 338 338 337 337 338 339 339 340 338 335 335 335 337 335 333 331 331 332 335 333 335 334 331 331 337 335 334 333 334 334 335 336 334 334 334 333
324 326 326 326 326 328 330 331 332 332 334 334 334 333 333 333 334 335 336 337 338 339 341 340 338 339 338 338 337 337 337 337 339 340 336 333 334 334 336 334 332 332 334 333 333 335 333 330 333 336 333 336 335 334 337 338 337 337 337 336 335 334

ECMWFFLT2_sfc_thetae_093.txt.gz
Theta_e
347 348 349 349 350 348 349 351 350 349 349 349 350 349 348 347 347 347 348 347 348 349 351 351 349 347 347 347 346 346 345 345 344 345 345 345 346 347 347 347 346 345 344 343 342 341 340 339 338 339 337 341 340 340 344 343 343 342 340 339 337 335
349 349 350 350 349 348 351 349 351 350 349 349 350 350 349 348 348 347 347 348 349 349 348 349 349 348 346 346 347 345 345 345 344 344 345 346 346 346 347 346 346 345 344 343 342 340 341 340 339 338 340 341 337 343 345 344 343 341 340 338 337 337
350 350 351 349 348 349 349 350 350 351 349 347 348 350 348 348 348 346 345 345 347 348 348 349 348 347 346 345 346 345 345 344 344 344 345 346 346 346 346 346 346 345 343 343 342 342 340 337 338 340 341 339 344 343 344 343 342 342 339 338 337 338
352 353 351 349 349 349 348 351 351 350 350 348 349 348 349 349 349 347 346 346 347 349 349 350 348 348 348 347 347 346 344 344 344 344 346 346 345 344 345 345 345 345 343 342 344 342 340 340 339 341 343 345 341 341 343 343 339 340 339 338 336 337
352 353 352 350 349 349 349 350 350 349 349 349 349 347 348 350 349 348 348 349 349 348 349 350 349 348 346 346 344 344 344 343 344 345 344 342 343 345 344 346 347 345 343 341 343 344 343 341 341 343 342 341 341 342 341 341 339 337 338 338 337 337
350 352 352 352 351 350 348 351 350 348 349 349 348 348 349 349 349 352 349 348 348 348 345 346 348 347 346 345 344 342 342 342 341 340 339 341 339 344 344 344 346 342 342 343 345 345 345 343 341 340 340 343 341 342 341 339 338 339 338 337 337 336
350 352 352 354 352 352 349 353 351 351 350 347 348 350 346 349 349 350 347 347 346 346 346 345 347 348 345 345 343 343 340 341 341 339 336 340 339 340 342 339 342 342 343 344 345 344 344 341 341 338 340 340 340 340 340 339 339 339 339 337 337 335
348 351 349 351 352 352 350 351 350 351 349 348 347 346 347 350 346 349 347 346 347 345 345 344 345 348 345 347 345 345 343 342 340 338 336 341 339 338 339 339 340 340 343 345 342 344 341 339 338 342 338 340 340 340 340 339 340 340 339 339 336 336
351 349 349 351 350 350 349 350 351 351 351 348 348 347 348 345 345 346 346 345 343 346 347 344 346 348 346 347 349 345 344 342 342 340 337 339 341 338 337 339 340 342 344 345 344 343 340 339 340 341 338 337 338 340 340 340 341 340 341 340 339 336
349 350 350 352 350 348 350 350 351 351 350 347 348 347 345 344 346 343 342 344 347 346 350 350 345 348 350 346 346 347 345 344 342 342 339 339 340 340 340 340 339 342 341 344 343 343 340 339 335 339 338 338 339 338 341 340 340 340 341 341 339 336
350 349 348 347 349 348 349 348 347 350 349 348 346 348 348 346 345 346 344 345 345 350 348 346 346 348 347 346 347 345 345 345 341 341 343 340 342 341 343 341 340 340 343 343 343 343 339 340 338 336 338 337 338 340 340 341 340 342 341 341 338 335
343 345 344 343 342 343 342 340 341 345 344 342 343 346 342 346 346 348 349 346 349 349 345 346 343 340 339 341 345 346 346 344 344 342 343 342 340 341 340 339 340 342 344 344 344 343 341 339 337 336 339 337 337 339 339 341 342 342 342 342 339 338
338 339 340 338 336 336 336 334 343 338 343 343 346 343 346 343 345 346 348 347 343 338 338 340 342 342 341 341 342 345 345 347 345 344 344 343 342 340 340 339 339 340 344 344 343 343 342 341 336 338 337 336 338 338 341 341 342 342 342 342 339 339
338 337 338 339 338 337 341 343 344 346 345 345 346 348 348 347 346 345 347 344 337 336 338 340 341 341 343 343 344 344 344 342 346 345 344 345 342 342 340 338 337 337 340 342 342 342 340 338 337 340 337 338 338 340 339 341 341 342 342 341 341 338
336 339 340 339 338 339 342 343 344 345 344 345 350 349 350 349 348 347 346 344 340 340 341 341 344 343 342 343 342 340 341 343 343 344 344 344 344 343 342 339 334 334 339 340 342 341 338 337 338 338 337 341 338 341 342 341 342 341 340 342 339 339
337 338 338 339 338 341 346 347 347 344 345 346 347 347 347 347 347 347 346 345 343 338 339 341 341 342 342 344 342 342 342 342 344 346 344 342 343 341 340 340 339 338 335 335 338 339 339 338 339 338 340 339 340 341 341 341 341 340 340 341 339 339
340 340 341 340 342 345 345 345 342 344 345 346 348 345 347 349 347 346 347 345 345 343 338 339 342 341 343 343 343 343 344 344 346 345 346 343 339 338 340 339 339 339 338 335 334 336 338 338 339 339 340 339 340 340 341 341 341 340 339 341 341 338
343 343 343 342 342 346 345 342 341 344 348 348 348 349 348 346 346 345 345 345 343 346 345 343 342 341 342 343 343 343 344 346 345 345 341 338 340 339 339 340 339 341 339 336 333 335 337 337 338 337 339 337 340 339 341 340 340 339 341 339 338 338
341 342 342 343 345 346 346 345 346 347 345 347 347 346 346 346 344 348 348 348 345 343 345 343 341 341 340 342 341 342 342 341 343 341 338 336 336 338 339 342 340 340 341 337 334 336 337 337 337 337 338 338 340 342 341 339 339 340 343 339 338 339
342 343 343 344 344 344 345 344 343 345 343 343 345 344 345 344 346 346 346 346 343 344 344 344 342 343 343 342 343 342 340 341 341 339 338 338 340 340 338 339 334 333 336 338 336 337 338 336 337 336 336 338 340 341 340 342 343 342 338 337 337 338
342 344 344 342 343 343 342 341 342 342 342 343 342 346 344 347 345 344 345 344 344 345 344 342 340 339 342 339 342 344 340 340 340 340 339 336 340 341 342 340 336 335 335 333 336 337 341 338 333 333 336 335 337 339 339 338 337 338 338 341 341 338
340 341 342 345 345 344 344 344 342 341 342 341 342 343 343 342 341 341 344 344 343 342 343 341 341 343 342 343 341 341 338 337 339 342 339 339 342 341 341 338 333 334 337 336 336 337 338 336 330 328 329 330 333 337 334 333 334 335 335 337 337 338
341 341 343 345 345 343 344 343 342 341 341 341 345 343 343 343 343 340 343 346 344 342 342 340 340 340 339 339 342 342 338 339 339 340 338 339 339 339 338 336 336 333 332 337 335 337 337 337 332 333 330 327 326 326 329 331 333 334 334 334 338 337
340 342 344 343 343 343 343 343 343 342 343 342 341 343 344 345 345 342 341 344 343 341 340 340 340 339 339 340 341 342 338 339 337 338 338 337 336 336 337 340 336 335 337 333 331 332 338 335 332 331 324 324 326 326 321 324 328 333 335 335 335 335
341 342 342 341 342 342 342 342 342 342 342 341 342 341 340 340 341 340 338 342 342 342 342 341 343 344 341 340 341 342 342 339 336 336 338 338 336 337 338 336 339 339 337 334 330 331 335 336 334 339 330 326 323 319 321 325 328 330 332 332 332 334
341 342 342 342 343 342 341 339 338 336 335 336 336 338 337 335 338 337 336 337 341 342 343 343 343 343 342 342 342 342 342 340 334 335 337 336 337 338 336 337 338 338 338 339 337 332 329 333 338 334 335 336 334 323 323 329 326 320 330 334 332 332
339 340 341 342 342 341 339 338 337 337 337 336 335 335 339 341 341 339 339 340 342 343 342 342 343 343 342 341 341 341 339 339 339 337 339 338 336 335 336 336 337 341 341 338 333 328 327 332 337 335 334 335 337 336 333 328 321 327 320 326 329 334
338 338 340 340 340 340 339 338 338 338 338 336 338 338 340 340 341 342 336 335 339 340 340 341 342 342 341 341 341 341 341 340 341 340 341 338 337 340 342 342 342 340 338 337 334 333 332 336 331 330 334 334 336 336 335 334 334 326 324 320 322 332
337 338 340 340 339 340 339 339 338 337 336 337 337 338 339 340 339 340 340 336 334 340 340 341 341 342 342 342 341 340 341 341 339 339 336 335 339 341 342 340 337 334 334 335 336 335 338 336 332 331 331 331 333 332 332 333 332 330 327 322 323 324
336 338 339 339 340 339 339 339 338 337 336 336 338 339 339 338 339 340 339 337 336 335 338 340 342 342 342 342 342 341 340 339 339 338 339 338 336 338 339 338 336 333 335 334 337 339 336 335 334 335 333 330 328 330 328 328 327 329 328 327 321 323
336 338 338 338 338 339 340 340 339 339 338 337 337 338 338 338 339 340 339 338 339 338 339 338 340 340 341 341 342 341 340 340 340 340 338 336 339 336 340 341 336 336 336 335 335 334 333 332 334 335 332 330 330 328 328 326 327 328 328 325 326 323
334 335 337 338 338 339 338 339 340 340 339 339 341 340 340 338 338 336 340 337 337 336 337 342 342 340 341 341 340 340 340 340 339 339 338 339 339 339 340 340 337 337 337 336 335 335 335 332 336 336 333 334 332 330 330 329 328 331 328 329 326 325
331 333 333 334 334 336 337 337 338 338 338 340 340 341 340 339 338 340 335 338 338 337 339 339 340 339 341 341 341 339 339 339 338 339 339 340 341 340 340 340 339 339 338 337 332 333 333 335 339 336 335 334 331 330 332 334 333 331 332 332 329 324
329 330 332 332 333 334 335 337 337 337 338 337 338 339 339 336 338 338 337 337 337 337 337 339 339 339 341 341 341 341 341 340 339 339 339 341 338 339 339 337 337 335 337 337 336 335 338 339 339 338 336 333 333 333 332 334 331 333 332 330 328 326
328 329 330 330 331 332 333 334 335 336 336 337 337 337 336 337 337 337 338 336 337 335 335 337 339 340 342 341 341 341 341 340 340 338 340 335 336 339 340 340 338 337 338 338 337 337 337 338 335 335 333 332 333 333 332 333 335 333 333 333 331 328
327 328 329 329 330 331 332 333 334 334 335 335 336 336 336 336 337 337 337 336 335 338 335 336 338 339 339 341 340 340 340 340 341 341 338 337 337 339 337 337 337 338 338 338 336 336 337 335 334 334 333 333 331 331 333 332 333 335 333 333 332 333
326 327 328 328 329 330 331 331 331 332 333 334 334 334 334 335 336 336 337 337 337 339 340 339 336 336 336 336 338 339 339 338 339 339 337 338 338 338 337 336 337 337 335 336 336 336 338 334 335 335 334 333 333 334 333 333 333 334 334 333 332 333

ECMWFFLT2_sfc_thetae_096.txt.gz
Theta_e
344 345 344 345 345 346 348 350 350 350 350 349 349 349 349 349 349 348 346 347 348 347 348 348 346 344 346 345 346 348 345 345 346 345 345 345 346 346 347 347 346 344 344 343 341 340 339 339 338 340 341 341 342 338 338 338 337 337 334 334 335 333
343 344 345 348 346 347 349 348 347 348 349 349 349 349 348 347 347 347 348 347 347 348 349 348 347 347 344 343 345 346 346 345 345 345 345 345 346 347 347 346 345 345 344 343 342 338 338 339 341 340 342 341 338 336 342 340 337 336 334 333 335 335
345 345 347 347 347 347 347 347 345 347 348 349 348 348 346 346 346 345 344 344 347 348 348 349 348 346 344 344 344 346 345 345 344 344 345 345 346 347 347 346 346 345 344 343 340 337 335 335 336 341 342 338 337 337 343 340 337 335 334 334 333 337
347 347 346 345 347 346 345 347 346 345 346 347 347 345 346 346 345 344 344 345 347 350 351 353 347 347 346 345 346 345 345 345 345 344 345 346 346 345 346 346 346 345 344 341 335 338 335 333 335 335 334 337 339 339 339 340 335 335 334 335 334 337
345 349 346 347 347 345 346 351 346 345 345 345 344 344 343 344 345 348 344 349 348 349 349 343 340 339 345 345 343 343 343 342 342 343 346 342 342 342 344 344 344 344 341 338 336 339 336 335 337 336 337 339 341 342 340 340 335 334 333 333 334 339
344 341 342 341 340 344 345 342 343 346 346 343 341 340 340 341 341 343 347 349 349 348 346 340 342 342 339 342 344 342 340 340 340 341 344 340 339 343 341 342 343 342 340 339 338 340 342 339 336 338 339 341 343 342 336 335 335 335 334 333 334 336
338 342 343 341 346 344 341 342 343 345 343 342 343 340 340 342 342 343 345 348 348 347 345 341 341 341 343 339 340 342 340 340 339 340 339 338 336 341 340 342 343 342 340 339 340 345 344 343 344 337 338 338 337 338 338 337 336 334 334 333 335 336
339 342 343 343 344 343 342 343 345 345 342 343 341 340 340 341 343 346 344 349 348 346 341 341 340 339 339 342 339 339 339 339 339 338 335 337 337 337 339 342 343 342 339 339 345 344 341 338 337 339 335 337 339 341 340 338 336 335 334 332 333 335
342 342 342 343 342 343 342 344 343 342 342 344 341 340 344 342 343 345 346 347 346 343 341 340 340 340 341 339 340 341 341 339 338 336 332 332 338 337 336 338 340 338 339 346 343 341 339 336 337 341 337 337 336 338 340 336 336 335 333 332 332 334
341 342 343 343 342 339 340 344 343 343 343 342 342 341 343 343 344 344 344 344 346 345 341 340 340 341 340 339 339 340 339 340 339 339 335 330 338 338 335 336 339 338 337 343 342 340 338 338 335 335 335 334 338 336 342 338 336 336 334 333 333 334
342 342 341 341 343 342 342 342 342 343 343 342 341 342 342 342 343 343 344 347 345 344 344 341 341 341 341 341 341 339 339 341 340 340 338 337 337 338 336 335 341 339 340 341 340 342 338 336 334 333 334 333 336 338 337 340 337 337 335 333 333 334
341 342 340 340 342 340 339 340 341 344 342 341 342 342 342 342 343 342 344 346 344 343 343 339 342 342 341 341 342 342 343 340 340 341 340 337 338 338 338 339 341 342 346 347 341 340 338 336 334 330 335 333 333 335 337 337 338 337 336 334 332 332
342 342 341 340 340 340 339 340 342 341 342 343 345 344 344 344 345 345 344 346 344 343 343 342 343 342 343 342 340 342 341 342 343 342 340 341 339 337 336 340 340 341 344 344 343 341 340 336 335 334 333 332 333 333 336 336 337 337 337 335 333 332
339 339 341 340 338 339 339 339 343 343 345 345 346 345 346 347 347 345 345 344 343 342 342 344 343 342 343 341 340 342 342 342 342 342 340 341 340 337 338 337 336 336 339 340 341 341 338 336 335 334 337 335 334 338 336 337 337 338 338 336 335 333
339 339 341 339 340 341 343 345 344 345 345 347 347 347 346 347 346 345 343 342 342 341 341 342 343 344 343 343 342 341 342 342 343 342 341 341 338 340 339 340 337 334 337 339 340 337 337 336 335 331 334 336 333 337 338 337 338 338 338 337 336 334
340 341 341 340 341 343 345 347 347 346 346 347 348 346 346 345 344 345 345 344 342 342 342 342 343 344 343 343 342 341 342 343 343 342 341 338 340 338 341 342 340 338 336 334 339 338 337 335 334 337 336 338 337 336 338 339 338 337 337 338 337 338
338 340 340 341 341 343 348 347 346 346 345 346 347 348 349 349 347 346 346 345 344 343 342 342 343 343 342 343 343 342 342 341 343 343 340 341 339 343 338 338 339 339 336 336 333 336 335 334 334 339 341 338 337 337 338 338 337 337 339 340 340 337
343 343 342 343 344 346 347 345 343 344 344 344 344 348 346 349 347 347 345 344 345 344 343 341 343 342 342 343 342 342 343 343 342 342 342 338 341 341 340 339 336 334 332 332 332 333 333 335 335 334 337 334 339 338 339 339 338 339 339 337 337 336
342 342 343 345 346 348 346 346 346 347 346 346 346 345 344 345 345 348 346 347 344 344 344 342 342 341 341 341 340 340 341 342 342 342 341 340 339 339 339 338 334 333 335 333 333 333 338 333 332 333 333 333 340 336 341 340 338 340 337 337 338 336
342 343 343 345 345 345 345 344 343 345 343 342 343 342 345 346 346 346 345 346 344 344 344 343 340 341 341 341 340 339 340 341 341 341 339 338 337 335 336 337 333 333 333 333 334 334 337 335 333 333 330 332 334 332 331 337 341 338 336 336 335 337
343 345 343 341 342 345 343 343 344 344 342 342 342 346 345 346 348 346 345 343 343 343 343 342 341 340 341 341 341 341 340 340 340 340 338 337 339 339 339 339 336 332 332 332 333 337 332 334 331 330 332 330 332 334 335 333 335 336 335 336 336 335
342 344 346 345 345 347 345 342 341 341 344 341 342 342 341 343 345 345 345 345 344 343 343 343 342 341 341 340 339 340 340 339 339 339 339 339 339 340 339 338 337 333 335 332 331 333 334 333 329 325 324 322 326 328 333 334 334 335 334 336 334 334
342 343 344 345 347 344 346 346 344 345 345 343 347 347 344 344 345 342 345 345 344 343 342 342 341 341 340 340 339 338 338 339 339 339 338 338 338 337 337 337 335 333 332 333 332 335 336 334 327 329 329 325 321 320 327 329 331 333 335 333 334 333
343 343 343 344 344 345 345 344 346 346 345 344 343 346 346 348 345 344 343 344 344 343 342 341 340 340 340 340 339 339 339 339 339 339 338 337 337 335 335 336 335 333 333 329 329 330 333 334 332 325 319 320 322 322 318 322 326 330 334 332 333 333
342 343 344 344 345 345 345 342 344 345 344 343 342 341 342 341 342 342 342 343 343 342 341 340 341 341 340 339 339 339 340 339 338 339 339 337 336 336 335 337 336 334 332 330 328 330 332 335 333 331 328 322 319 317 317 324 326 326 332 330 332 333
342 343 342 342 343 345 344 340 340 337 337 338 338 338 336 337 339 339 339 342 342 341 341 340 341 341 340 340 339 338 339 339 337 338 337 337 337 337 337 337 336 335 333 333 333 329 331 333 335 335 333 330 330 322 320 325 324 317 328 331 331 332
340 341 342 342 343 341 341 342 339 337 337 337 336 340 342 345 341 341 344 343 341 343 341 341 341 340 341 341 341 340 339 339 338 337 337 337 337 337 337 337 337 336 335 334 335 328 328 327 330 332 334 334 334 333 332 324 320 323 317 324 328 328
339 340 341 342 342 342 340 341 339 339 339 337 338 339 342 343 343 342 341 340 341 343 341 341 341 341 341 341 340 340 339 339 338 337 336 336 336 337 337 337 336 335 336 334 332 330 329 329 326 328 334 332 332 333 332 333 331 324 322 318 321 327
339 340 341 341 341 341 342 341 340 339 338 339 338 339 342 343 343 342 340 341 340 339 339 340 340 340 341 340 339 340 340 338 339 338 336 336 337 337 336 334 334 332 331 333 331 332 331 328 329 329 330 330 332 331 332 333 332 328 322 319 320 321
337 338 340 340 341 340 341 341 340 339 338 338 339 339 340 341 341 341 339 340 340 340 339 340 341 341 340 340 340 340 340 339 338 339 339 337 337 336 335 333 332 332 333 333 334 333 332 332 331 333 332 330 328 328 328 328 328 327 326 325 319 320
335 337 338 338 339 339 340 341 340 340 339 337 338 338 338 338 339 339 337 336 337 339 339 338 340 341 341 341 341 340 339 338 338 339 338 337 336 336 335 333 333 332 334 335 334 334 332 334 334 333 332 331 329 328 326 324 324 326 324 322 321 321
332 333 334 335 336 336 337 338 338 339 338 339 338 336 336 337 338 336 337 337 338 337 336 338 341 339 340 340 339 338 338 339 337 337 338 337 337 336 335 335 333 333 334 335 335 334 331 331 333 332 332 332 331 331 330 328 329 327 324 323 323 321
329 332 333 333 333 333 334 335 336 336 337 337 337 337 336 336 339 338 337 336 336 334 335 336 335 335 336 338 337 337 337 337 335 335 336 337 336 336 336 334 332 333 334 334 333 333 332 332 332 331 331 333 332 331 330 330 330 327 327 327 325 321
328 331 331 332 331 332 333 334 335 335 335 335 335 336 336 336 337 337 338 337 336 336 335 336 335 335 335 335 334 333 335 335 335 334 335 335 335 336 335 334 333 331 332 333 333 333 332 332 332 332 333 331 331 330 330 331 331 329 328 325 323 321
326 328 330 330 331 331 331 332 333 334 334 334 334 333 334 335 335 336 336 336 337 337 337 337 338 338 336 334 336 337 334 333 333 334 335 334 333 335 335 335 333 332 332 334 333 332 331 331 330 331 332 332 330 329 330 332 332 330 330 329 326 324
324 326 327 328 329 330 330 331 332 332 333 333 333 333 333 334 335 336 335 335 335 336 337 337 338 338 339 339 337 337 333 333 333 334 333 334 335 332 332 331 332 331 330 334 332 331 330 331 330 331 331 332 332 331 331 331 332 330 330 330 329 326
324 326 326 327 327 328 330 331 331 331 331 331 330 330 331 332 334 335 335 336 335 335 337 338 338 339 339 338 338 336 335 334 334 334 332 332 334 335 333 332 331 331 331 332 332 331 330 330 329 332 331 332 331 332 332 332 332 331 332 331 329 328

ECMWFFLT2_sfc_thetae_099.txt.gz
Theta_e
342 342 343 345 346 347 348 350 349 349 349 349 350 350 349 349 348 347 346 347 347 345 344 344 344 344 347 345 345 347 346 345 344 344 345 345 345 346 346 346 345 344 343 342 342 341 341 342 342 342 344 343 344 334 334 332 333 334 333 333 334 334
341 342 343 344 346 347 348 348 347 346 346 347 348 349 347 346 348 344 347 345 344 345 343 343 342 348 344 345 344 346 346 345 345 344 345 345 345 346 346 346 345 344 343 342 342 338 338 340 343 343 344 344 337 333 335 333 332 332 332 332 334 336
341 342 342 344 346 346 345 345 346 345 346 348 347 347 345 346 344 343 344 343 344 344 344 343 343 345 344 345 345 346 346 345 345 344 344 344 345 346 346 346 345 345 344 343 341 337 333 332 332 340 342 337 332 333 336 332 332 332 332 333 331 338
342 343 342 344 345 344 344 344 344 344 345 344 344 345 343 343 342 343 342 341 342 345 345 343 349 350 346 342 344 346 346 346 345 345 344 345 345 346 346 346 346 345 344 343 338 333 333 331 329 330 331 330 331 334 334 332 332 332 332 335 333 339
343 343 343 343 343 342 342 342 342 343 343 343 342 342 342 342 341 341 340 341 343 345 341 338 338 337 341 341 340 338 338 338 339 339 344 338 338 341 341 339 339 341 338 337 337 334 334 331 331 332 331 331 333 336 333 332 332 332 331 332 334 338
340 340 341 341 342 343 340 340 341 342 342 342 341 340 339 339 339 339 340 344 346 342 339 338 335 336 337 339 340 338 336 336 335 336 341 339 337 337 338 339 340 339 338 337 336 335 335 336 331 331 332 333 334 335 331 331 331 331 331 332 336 338
339 339 341 342 341 340 339 341 341 341 341 340 339 338 337 338 338 339 339 343 343 341 337 335 336 336 336 335 336 338 337 335 333 333 336 337 336 335 337 337 338 338 338 337 337 336 336 338 336 332 333 334 334 333 332 331 331 331 330 331 336 337
338 339 340 341 339 339 340 340 340 345 342 342 339 337 337 337 339 339 340 344 345 341 337 335 334 335 336 336 336 335 337 338 336 335 336 336 334 332 337 337 338 339 338 337 336 337 338 339 336 333 333 332 333 332 332 331 331 330 330 330 332 336
339 339 340 340 339 339 340 340 341 340 339 344 338 338 338 338 338 340 341 342 343 338 336 337 336 336 336 336 336 337 337 336 336 337 335 332 332 332 333 335 337 338 337 336 335 337 337 336 334 333 332 332 332 333 332 331 330 330 330 330 331 334
339 339 340 340 339 339 339 339 339 339 338 343 337 338 340 338 338 339 340 342 342 339 336 335 336 337 336 335 335 336 337 336 336 336 336 330 330 332 330 332 334 335 336 335 336 338 336 334 334 331 331 331 331 333 332 331 330 329 329 329 330 334
340 341 340 338 338 337 338 338 338 338 340 339 338 339 340 339 338 339 340 340 341 341 337 335 335 336 336 335 336 335 335 335 336 336 336 335 337 337 334 331 331 332 333 333 336 336 336 334 333 332 330 331 332 333 332 331 330 330 330 330 331 331
339 340 339 338 338 338 338 338 338 339 338 338 338 338 338 338 339 339 340 341 339 339 338 334 336 336 335 334 335 335 334 335 335 337 336 336 337 338 334 334 333 334 336 336 336 337 336 333 332 332 330 331 332 332 332 332 331 330 330 331 331 331
338 337 337 338 337 337 338 339 339 338 339 339 338 337 336 337 338 339 340 341 339 338 339 336 336 337 337 335 335 336 335 336 336 337 337 337 337 335 333 333 333 335 334 338 337 336 337 335 333 332 332 338 334 335 334 333 331 331 330 331 331 331
338 337 337 337 337 336 337 339 339 339 341 339 339 338 340 339 341 340 340 340 340 339 338 337 336 337 337 336 334 335 336 335 337 338 337 338 337 336 334 333 333 333 336 335 337 335 334 333 333 333 331 330 330 331 334 334 332 331 330 330 330 330
338 337 338 336 336 335 337 339 339 339 340 340 341 340 341 342 341 340 340 339 339 338 339 339 338 337 336 336 335 334 335 336 337 336 336 335 336 336 335 334 334 332 330 331 335 337 335 333 333 333 331 333 332 333 333 334 335 332 330 330 329 329
336 336 335 336 337 338 339 340 340 344 341 342 342 342 342 342 342 341 340 338 338 338 338 338 338 339 337 337 336 336 336 336 337 336 336 335 336 334 335 335 336 334 329 330 334 334 334 332 332 330 330 331 330 331 331 333 333 332 332 330 329 328
336 336 336 337 338 340 342 341 341 342 341 342 341 341 342 342 341 340 340 339 339 339 338 338 339 339 338 337 337 336 335 336 336 336 334 333 333 335 334 336 334 333 331 331 332 333 333 333 330 331 331 330 330 332 332 333 333 333 333 331 331 329
336 336 336 336 338 341 341 341 340 340 341 339 339 340 340 342 341 340 341 340 340 340 339 338 338 338 337 338 338 336 336 336 336 336 334 334 333 335 336 335 333 331 330 329 329 330 331 332 331 331 328 330 332 333 334 333 333 335 332 333 333 332
337 336 337 338 339 341 340 338 337 339 338 338 339 339 339 338 339 340 341 341 341 340 340 337 338 338 336 336 335 335 336 336 337 335 335 334 332 332 334 335 332 330 331 331 330 331 331 330 330 330 330 330 331 332 331 332 333 333 332 331 332 333
335 336 337 337 339 339 338 337 336 338 338 339 339 338 338 338 339 340 341 341 341 340 340 339 338 337 336 336 335 334 335 336 336 335 334 333 332 332 332 334 331 330 329 331 332 331 333 330 329 327 329 330 330 330 330 331 332 332 332 331 329 330
335 336 336 336 336 337 334 335 335 337 336 337 337 337 338 339 340 338 341 341 340 339 339 339 338 336 335 338 336 334 334 335 335 335 334 333 332 332 332 333 331 330 329 329 328 328 330 330 327 325 326 325 326 329 332 332 329 329 331 331 331 330
336 336 336 336 336 337 336 335 333 334 332 333 336 335 336 338 339 341 340 340 339 339 339 338 338 336 336 336 335 334 334 334 334 334 333 332 331 334 333 333 333 329 330 329 328 332 331 330 325 322 320 318 321 323 328 330 331 330 331 331 331 329
333 336 336 337 337 336 336 336 335 334 334 334 336 338 337 338 341 340 339 338 339 339 338 337 337 337 336 336 335 334 334 334 334 335 333 332 333 333 332 332 331 329 327 329 329 332 331 329 323 324 324 320 316 317 321 325 328 331 331 330 329 330
336 336 335 337 336 336 336 336 335 335 335 334 333 340 337 337 337 336 336 339 337 337 337 336 337 337 337 336 335 334 334 333 334 335 334 333 332 332 332 332 332 330 329 325 327 328 332 330 327 324 317 317 317 317 313 320 324 326 330 329 328 329
335 335 334 336 335 335 334 334 334 334 334 334 334 333 332 332 334 335 336 336 337 337 337 336 336 336 337 335 335 335 334 334 333 334 334 333 333 333 332 332 332 331 329 328 326 326 328 330 329 328 323 318 314 314 315 320 323 321 328 326 327 329
334 333 333 332 334 334 334 331 330 328 328 328 328 328 330 329 331 332 334 335 337 338 337 335 336 336 336 336 335 335 334 334 333 333 333 333 333 333 332 332 333 332 330 329 327 326 325 328 330 329 328 325 322 317 318 322 322 315 326 325 327 330
333 332 333 332 333 332 332 332 329 328 328 328 327 330 332 333 332 333 334 334 335 335 336 335 335 336 336 336 335 334 334 334 334 333 333 332 332 333 333 333 334 332 331 330 329 325 325 326 327 329 329 328 328 329 328 323 318 320 318 323 327 327
332 332 331 332 333 332 331 331 331 330 329 328 328 329 333 334 333 334 334 334 334 334 336 336 336 336 337 337 336 335 335 335 334 333 333 333 332 333 333 334 334 334 333 332 331 329 327 326 326 325 329 327 327 328 329 328 325 321 318 317 320 326
332 331 332 332 332 333 332 331 330 330 329 331 331 331 332 333 334 333 332 332 332 333 334 335 335 336 336 337 337 335 334 333 333 333 334 333 333 333 333 332 332 332 331 332 332 331 329 327 326 326 326 326 325 326 327 327 326 322 318 316 317 321
330 331 332 332 332 333 335 334 331 330 330 329 330 332 332 331 332 333 332 331 332 333 333 333 333 334 333 335 335 333 333 333 333 333 334 333 332 333 333 332 332 331 331 330 331 331 329 327 327 328 328 328 326 326 324 323 323 323 322 321 318 319
328 327 328 329 329 328 330 332 332 332 331 332 334 334 333 331 331 330 330 329 331 332 333 333 334 335 335 336 333 333 332 331 331 332 333 334 331 330 331 332 331 330 330 330 330 330 327 327 327 326 327 327 327 326 324 321 322 324 321 319 318 319
325 325 325 326 325 326 327 328 329 329 331 332 332 332 332 332 332 331 330 329 329 329 328 329 330 331 332 332 331 332 332 332 331 331 332 332 333 332 332 331 330 329 328 329 330 330 330 327 327 327 327 330 329 329 327 325 326 326 323 321 320 319
324 324 324 324 324 325 326 326 328 330 330 330 328 329 329 329 331 332 333 331 327 326 327 327 328 330 329 331 332 330 331 331 331 329 330 332 332 332 333 329 328 328 328 329 330 330 329 329 329 329 328 330 330 329 328 328 328 326 325 324 322 318
323 323 324 325 326 326 326 327 328 329 328 327 327 327 327 328 330 330 332 331 331 330 329 329 329 328 331 331 331 330 330 330 331 331 331 330 331 331 331 330 330 328 328 330 331 331 330 330 329 329 329 328 329 329 329 329 328 326 324 323 321 320
320 321 322 324 325 325 324 325 326 327 326 326 325 325 326 328 328 328 329 329 329 330 330 331 331 331 331 331 330 331 330 329 329 330 330 330 331 331 330 330 329 330 330 330 329 331 331 330 329 327 327 327 328 328 329 329 328 326 326 325 323 321
320 320 321 321 321 322 323 325 325 324 324 324 324 324 324 325 326 327 327 328 328 328 329 329 331 331 332 330 330 331 331 330 329 328 327 329 329 329 330 329 329 329 328 331 328 327 329 329 328 327 328 329 327 328 329 329 329 328 327 326 325 324
319 319 318 320 319 322 323 322 321 322 322 321 321 321 322 322 324 326 326 327 327 329 330 330 331 331 331 330 330 330 330 330 329 328 327 328 328 328 329 328 327 328 327 329 328 328 330 329 329 328 328 328 328 329 329 329 329 329 328 328 327 325

ECMWFFLT2_sfc_thetae_102.txt.gz
Theta_e
344 343 343 343 343 343 346 348 348 349 348 349 348 347 347 348 347 347 347 347 347 344 342 342 344 342 346 344 346 346 345 346 345 346 346 344 346 346 346 346 344 342 343 343 343 343 343 343 344 344 344 343 340 331 330 331 332 335 335 336 337 337
343 343 343 344 344 344 346 346 346 346 347 348 348 348 346 344 348 343 347 345 342 344 340 337 336 347 341 342 343 346 345 345 345 345 345 345 345 345 346 346 344 343 343 343 343 334 334 337 340 342 344 341 332 331 330 331 331 332 332 332 334 337
342 342 343 344 344 345 345 345 345 345 346 347 348 348 345 346 342 341 342 341 343 341 338 337 338 342 341 345 342 346 346 345 345 345 345 344 345 345 345 345 345 344 344 343 335 331 329 329 328 337 339 332 330 331 330 330 330 330 330 332 331 339
340 341 342 343 344 344 344 344 344 344 344 344 345 345 343 343 341 340 341 338 338 339 340 336 347 347 347 339 339 346 346 345 345 345 345 344 344 345 345 345 346 345 343 339 331 330 330 329 328 328 327 328 331 330 329 329 329 329 330 335 334 339
340 341 341 342 343 342 343 343 343 343 343 343 343 342 342 340 339 339 339 339 338 340 341 340 338 335 337 336 334 334 335 336 334 334 343 333 334 338 338 335 336 338 334 333 333 332 330 330 331 330 329 329 332 330 330 331 330 329 330 332 335 338
340 340 341 341 341 342 343 341 341 342 341 341 341 339 337 336 336 336 336 339 342 340 339 338 337 335 333 334 336 333 332 331 332 332 336 332 332 331 332 333 334 336 336 334 333 333 330 334 332 330 330 330 333 330 330 330 330 329 330 331 336 338
339 339 340 339 340 341 340 339 339 340 340 338 338 336 335 335 335 336 337 340 340 337 336 335 334 333 333 334 334 334 332 331 330 329 332 333 331 330 333 334 335 335 334 333 334 334 333 333 332 333 332 331 332 329 329 329 329 329 330 332 337 338
338 339 339 338 337 337 337 337 339 342 339 340 337 335 334 333 335 336 338 341 341 336 335 334 334 333 334 332 332 333 333 332 332 332 331 332 333 330 330 333 336 337 335 334 334 335 334 334 334 334 334 331 330 329 329 329 329 329 330 331 334 337
337 338 337 337 336 336 336 336 338 338 337 343 335 334 334 334 334 337 338 341 340 335 334 334 333 333 332 332 332 333 333 332 332 332 332 332 333 331 330 334 335 336 335 334 332 333 333 335 334 332 331 330 330 329 329 329 329 329 328 328 331 335
337 337 337 336 335 335 335 336 336 336 338 340 335 335 335 335 335 336 337 339 339 336 334 334 333 333 333 332 331 332 333 333 332 332 331 330 330 331 330 331 334 336 337 335 333 333 333 334 334 333 330 329 330 330 329 329 328 328 328 329 330 333
337 339 336 335 334 335 336 335 336 336 339 337 336 337 337 335 335 336 338 338 338 337 334 334 334 333 333 332 331 330 332 332 333 333 333 332 329 330 331 330 332 333 335 334 333 333 334 334 333 333 332 329 330 330 329 329 329 328 328 328 329 331
336 337 336 335 337 336 336 336 337 337 337 337 337 336 336 335 338 337 338 338 337 337 336 333 333 333 333 332 332 332 331 332 333 333 334 333 332 332 331 332 333 333 333 332 332 332 334 332 331 330 330 329 331 330 329 329 328 328 328 329 329 329
336 335 334 334 334 335 335 337 337 336 337 338 337 336 335 336 336 337 338 338 335 336 335 334 333 334 336 332 332 332 332 332 333 333 333 333 332 332 331 332 333 334 333 332 331 334 335 333 331 331 330 332 331 331 330 329 328 328 329 329 328 328
335 334 334 333 334 333 333 335 337 336 340 336 336 335 336 335 337 336 336 335 335 335 336 334 334 333 333 332 331 332 333 333 333 333 333 333 333 332 331 331 332 332 334 331 331 333 333 332 331 328 329 330 330 331 330 331 330 329 330 330 330 328
336 333 336 333 333 332 333 334 334 335 336 336 337 336 336 336 335 335 336 335 336 336 336 335 334 334 333 333 332 331 332 333 333 333 334 334 333 332 332 331 332 330 329 329 330 333 333 330 326 328 327 329 330 331 331 331 331 331 331 330 329 329
334 333 331 332 331 331 333 333 333 340 336 335 337 336 336 336 338 336 336 335 336 336 336 335 335 334 333 333 333 331 332 333 334 333 334 332 333 332 331 331 332 331 328 330 329 329 332 328 326 328 328 330 329 330 330 331 331 331 332 331 330 329
333 332 332 332 331 332 334 334 334 336 335 335 336 335 337 336 338 337 337 334 335 336 335 335 335 335 333 333 332 333 331 333 334 333 333 332 332 332 331 332 331 333 330 328 329 329 330 328 328 328 329 327 328 330 330 330 331 331 332 330 329 329
333 333 332 333 334 334 335 334 334 335 339 335 335 336 336 339 337 335 335 335 335 336 336 335 335 335 334 335 334 332 331 333 333 332 332 331 331 330 330 331 330 329 328 327 326 326 326 327 328 327 327 327 328 328 328 329 331 335 331 330 329 327
333 332 332 334 335 334 335 335 333 334 335 334 334 336 335 335 336 336 336 337 336 336 337 335 335 335 334 335 334 332 333 332 333 333 332 329 330 331 331 331 331 329 328 328 328 329 328 326 327 326 326 326 328 328 328 329 328 330 331 330 330 329
332 332 332 333 335 334 332 332 332 332 332 332 333 334 334 334 334 336 338 338 337 337 337 337 335 334 333 333 332 332 331 332 332 332 331 330 329 329 329 329 327 327 326 327 329 328 329 328 326 326 326 325 326 327 327 329 330 330 330 330 331 331
332 333 334 334 335 335 331 330 330 330 330 331 333 334 333 334 335 334 337 339 339 338 337 336 335 333 333 335 334 332 331 331 331 332 331 331 331 329 329 329 327 326 327 324 325 327 327 328 324 322 323 324 326 327 329 329 328 328 329 329 329 329
332 333 333 332 332 332 329 328 327 328 330 331 332 333 333 334 335 337 336 337 338 337 337 336 336 333 333 332 332 331 331 331 331 332 332 331 328 331 328 327 328 324 326 325 324 326 327 328 322 321 318 317 319 322 327 328 326 326 328 328 328 328
330 332 331 332 332 332 331 333 331 331 334 330 332 335 334 336 336 337 336 336 337 336 336 336 335 334 333 332 332 332 332 331 331 332 332 332 330 330 329 329 328 327 323 324 325 327 326 327 323 322 320 318 314 315 318 324 326 327 329 327 327 327
330 331 331 334 333 333 333 334 333 334 332 330 331 336 333 333 334 333 334 335 335 335 335 335 334 333 334 332 332 333 332 331 331 332 331 330 330 330 328 328 328 328 326 324 325 325 328 327 325 322 316 317 314 315 311 316 322 327 331 328 327 326
332 331 332 334 332 330 331 331 330 330 327 328 328 327 328 328 329 332 334 332 335 334 335 335 333 333 334 333 332 332 332 332 331 331 331 330 329 329 330 330 330 329 327 326 323 323 326 328 326 327 322 316 313 312 313 315 321 323 327 326 327 327
331 330 331 330 330 330 330 328 326 326 324 324 326 325 325 327 327 329 333 334 334 335 335 333 333 333 334 334 332 333 332 331 330 331 331 331 331 330 330 330 331 331 330 328 327 322 322 326 327 327 326 324 322 316 315 317 320 316 325 327 326 328
330 329 329 329 329 329 327 327 325 324 324 324 324 324 326 328 328 330 332 331 334 333 334 334 333 333 333 334 333 333 332 332 332 331 332 331 331 331 331 332 332 331 331 330 327 325 325 324 326 327 327 326 326 325 324 321 317 318 316 322 325 325
328 329 328 328 328 327 327 326 326 325 327 325 325 325 327 329 328 330 329 330 330 331 331 333 332 332 333 334 334 333 333 332 332 332 332 332 332 332 331 332 331 331 331 331 329 328 327 326 323 324 327 326 326 327 327 325 324 321 319 317 318 325
329 328 328 329 330 330 329 327 326 327 327 328 327 328 328 329 330 328 330 328 330 331 331 332 333 332 332 334 334 333 332 331 331 331 332 332 332 331 331 331 330 330 331 331 329 329 327 327 325 325 325 325 326 325 325 324 325 323 318 318 318 320
326 326 326 326 327 328 330 331 330 328 327 327 329 330 329 328 329 330 330 329 331 330 330 331 330 332 331 333 332 332 331 331 330 331 332 331 331 329 330 331 332 330 330 330 331 330 329 328 327 327 326 326 324 324 323 322 323 322 321 321 318 320
326 326 326 327 329 329 330 331 331 331 330 329 329 329 330 330 331 330 328 327 328 332 331 331 331 331 331 332 331 330 329 330 330 331 332 331 330 330 330 330 332 332 331 330 330 331 329 329 328 327 326 325 325 324 323 320 320 321 320 318 318 320
323 324 326 326 327 328 328 329 330 330 329 329 329 328 328 328 329 329 328 326 327 328 330 331 331 330 329 329 330 330 331 330 330 329 327 330 331 331 331 330 329 328 328 329 330 330 330 328 328 326 325 326 325 325 324 323 323 323 322 321 320 319
321 322 323 324 324 325 326 327 328 327 327 327 327 326 326 326 327 328 329 329 329 329 329 327 328 327 328 328 329 330 330 329 329 329 329 330 330 330 330 330 329 329 329 328 328 328 327 327 328 325 324 325 326 325 325 326 326 325 326 324 321 317
321 322 321 321 321 321 323 324 325 324 324 324 324 324 323 323 323 325 327 327 328 329 329 328 327 326 329 329 329 329 330 330 330 330 329 328 329 329 330 329 328 327 327 328 328 327 327 326 326 327 327 325 325 326 327 327 326 326 325 319 318 319
320 321 321 321 322 321 320 321 322 322 321 321 321 320 320 321 321 322 323 323 324 326 326 327 327 328 328 328 329 329 328 328 328 328 328 329 329 328 328 328 328 328 328 328 328 328 327 327 326 327 328 327 325 325 327 328 327 326 326 324 321 321
319 318 319 319 320 321 320 321 322 321 320 320 320 319 320 320 320 320 320 321 321 322 323 323 325 327 329 329 329 328 328 328 328 327 327 328 328 328 328 328 328 328 327 329 328 328 328 329 328 329 328 328 326 326 327 327 327 328 328 327 326 322
318 318 317 315 316 318 319 318 317 318 318 318 319 319 318 317 318 319 319 320 320 321 321 322 324 326 328 330 330 328 328 327 327 327 327 327 327 327 328 327 326 326 326 327 328 328 328 327 328 328 327 327 326 326 326 327 327 327 326 326 325 324

ECMWFFLT2_sfc_thetae_105.txt.gz
Theta_e
342 341 341 341 342 343 344 347 347 347 347 347 346 347 348 348 347 347 347 347 346 340 339 340 341 340 347 342 346 346 345 345 345 345 344 343 345 345 345 345 343 343 343 343 343 342 341 342 343 343 342 340 339 330 330 331 332 333 332 334 336 335
341 341 342 342 343 343 344 345 343 343 344 344 345 346 345 344 347 339 347 344 338 342 337 334 337 346 339 341 342 346 345 345 345 345 344 344 345 344 345 345 344 343 343 343 343 331 331 337 342 343 342 339 330 328 329 331 332 333 333 331 334 338
342 342 342 341 342 342 341 340 340 341 343 345 345 345 341 343 338 338 339 339 340 336 335 336 337 342 341 346 342 345 345 345 345 345 344 344 344 344 344 345 345 344 343 343 332 328 326 327 329 339 339 332 328 328 329 330 329 331 330 330 329 341
342 342 342 341 342 342 341 341 341 342 341 342 342 343 340 339 338 337 337 336 336 337 335 332 346 346 346 338 338 345 346 345 344 345 345 343 345 344 344 345 345 344 341 338 332 328 327 327 326 324 327 328 328 328 328 329 328 328 328 333 330 339
341 342 342 341 341 341 341 340 342 342 340 339 340 340 339 337 335 335 335 335 334 338 335 332 334 333 333 331 330 330 330 332 331 330 341 331 330 332 334 331 331 336 336 336 333 329 329 329 328 327 328 329 328 328 328 329 328 327 327 329 333 338
338 339 340 340 340 342 342 342 341 342 340 338 340 341 339 335 334 332 333 334 336 334 334 335 334 333 333 330 330 329 329 329 329 330 337 333 333 332 333 332 333 335 336 336 335 332 328 331 329 327 329 330 329 328 328 327 328 328 328 327 334 338
336 337 338 338 339 339 339 341 342 341 340 339 340 339 337 333 331 331 332 336 337 333 333 336 334 331 331 331 331 330 329 328 326 327 331 331 330 330 330 331 332 333 333 334 335 333 330 330 329 331 329 330 329 328 328 328 328 328 327 329 335 338
335 336 336 336 336 336 337 340 342 342 338 343 339 336 334 331 331 333 336 337 339 335 333 332 332 330 331 331 331 331 330 329 329 328 328 329 329 328 326 329 330 330 333 333 334 335 331 331 330 330 332 329 330 328 328 327 328 328 328 330 331 337
336 336 335 336 335 335 336 338 338 338 338 343 336 334 333 334 333 334 337 339 338 333 331 330 330 331 330 330 330 330 330 330 329 329 328 329 329 327 326 327 330 331 333 334 333 334 333 333 329 329 330 329 329 327 328 328 327 327 328 328 330 334
335 336 335 335 333 334 335 336 336 337 339 340 334 334 334 334 332 334 334 339 338 333 331 331 330 330 330 330 329 329 330 329 329 329 328 327 328 328 328 326 327 329 333 334 335 335 335 333 332 331 329 328 328 328 328 328 327 328 328 329 330 333
336 338 335 334 333 333 334 334 335 336 338 335 335 335 334 333 334 334 335 336 336 334 331 331 330 330 329 329 328 328 329 328 329 329 330 330 326 327 327 327 328 328 331 333 335 335 334 334 333 333 330 329 328 328 327 328 328 328 328 328 328 330
335 336 335 334 335 333 333 335 335 335 336 335 335 334 334 333 336 334 335 334 334 333 333 331 331 330 329 329 329 329 329 328 330 330 331 330 330 330 328 328 328 328 328 330 332 333 333 333 332 329 327 329 328 327 327 327 327 327 327 327 328 329
335 335 333 333 333 333 333 335 335 334 335 336 335 334 334 334 334 333 334 334 334 335 335 332 331 332 334 330 329 330 330 331 331 331 330 331 331 330 329 328 328 329 328 329 331 332 335 333 330 328 329 329 328 327 327 327 327 327 327 328 329 328
333 332 333 332 332 332 333 333 333 332 337 335 333 333 334 334 334 333 334 334 335 335 336 334 332 331 331 330 330 330 330 331 331 330 330 330 331 330 330 329 328 327 332 330 330 330 331 332 328 328 328 328 328 328 327 327 327 327 328 329 329 327
334 332 335 332 333 332 331 334 333 333 334 332 333 332 332 333 332 334 335 334 334 335 335 334 333 333 332 332 330 330 330 332 332 330 331 331 331 331 330 330 329 327 326 327 329 330 332 331 328 328 327 328 328 328 327 327 327 328 328 329 329 329
331 331 330 331 330 331 333 333 333 336 331 332 333 332 332 333 334 332 334 334 333 334 335 333 333 332 330 333 334 333 332 331 332 332 332 331 331 330 330 330 330 328 326 326 328 329 330 330 327 327 327 327 328 328 327 327 327 328 329 328 328 328
330 330 330 330 329 329 332 332 333 336 334 333 332 332 333 335 335 335 333 333 334 335 335 334 333 333 332 333 334 334 333 331 332 333 332 330 330 330 328 330 328 330 328 326 327 327 327 325 327 327 327 327 328 329 327 327 327 327 328 327 327 328
330 329 329 329 329 330 332 332 332 334 338 333 333 333 334 336 336 336 334 334 334 335 335 333 332 333 333 335 335 335 334 332 332 333 331 328 329 329 328 328 327 328 329 328 326 324 324 325 326 326 326 326 327 328 328 329 329 331 328 327 327 328
331 328 329 329 330 333 333 331 328 331 330 330 330 333 332 333 335 334 334 335 334 335 336 334 333 332 333 335 336 336 335 334 333 331 330 328 328 327 328 328 327 326 328 328 327 326 325 326 327 326 325 326 328 327 327 328 329 329 328 327 327 329
329 327 328 329 332 334 334 331 329 328 329 329 330 333 332 332 330 333 335 335 335 335 335 335 332 331 332 334 335 336 336 335 334 332 331 329 327 327 329 330 328 327 326 326 326 327 328 325 325 325 325 324 325 326 326 327 327 328 329 328 327 328
328 327 329 331 334 335 333 332 331 330 329 328 329 331 331 329 330 331 332 335 336 336 334 333 334 331 331 334 335 335 334 334 333 333 332 330 328 327 327 329 329 327 326 323 323 325 325 326 323 322 324 324 324 326 328 328 326 327 328 328 327 327
329 327 330 334 336 335 332 332 326 327 327 326 327 329 329 329 330 333 332 333 335 335 334 333 335 332 332 330 330 332 332 331 330 333 334 333 331 331 330 329 327 323 323 324 322 324 325 325 321 320 319 318 320 323 326 327 327 327 327 327 328 328
327 327 329 335 335 333 331 329 328 327 328 327 328 330 330 330 333 332 331 332 334 333 333 333 332 332 332 329 329 328 330 329 329 332 333 333 333 331 328 326 326 326 322 322 322 323 324 325 320 320 320 318 314 314 319 324 327 327 327 328 328 328
327 326 328 332 332 330 330 331 330 329 329 328 329 333 329 328 329 330 332 331 330 331 332 332 331 332 332 330 328 329 330 328 329 331 332 332 332 331 332 331 330 330 329 326 325 323 325 325 322 319 314 317 316 314 312 316 321 325 328 327 327 328
327 326 327 331 330 330 332 332 332 330 327 325 324 323 325 326 326 328 332 331 333 331 331 333 332 332 333 332 329 329 328 329 328 330 332 332 332 331 330 330 330 330 329 328 326 325 324 325 324 325 320 314 312 312 314 315 319 321 327 326 326 327
330 331 331 329 330 331 331 330 328 325 321 319 321 323 323 325 327 327 327 328 331 331 331 331 332 332 332 331 329 329 329 329 328 328 330 331 332 331 329 328 328 330 330 330 328 326 324 325 326 325 325 323 321 316 314 316 318 314 326 327 326 327
330 329 330 329 328 328 326 324 324 323 323 323 321 321 321 323 325 327 327 328 330 329 330 330 332 330 329 329 330 328 329 329 329 329 330 330 330 331 331 330 329 329 330 331 329 325 326 325 324 326 326 325 325 324 322 319 316 316 315 321 325 325
327 328 328 328 327 327 325 321 321 322 323 322 322 323 325 326 327 329 328 326 327 328 328 330 331 330 329 329 330 329 329 329 329 330 332 331 330 331 331 331 331 331 331 331 330 327 326 327 324 324 326 324 324 325 324 323 322 319 316 315 318 324
325 324 324 327 327 326 328 325 325 323 323 323 324 325 326 326 327 328 327 326 327 328 329 329 328 330 329 330 330 329 328 327 328 329 331 330 330 331 332 332 331 330 330 331 331 331 328 327 327 326 325 324 325 324 323 323 323 321 317 316 316 318
323 323 324 325 325 325 325 326 325 323 323 323 325 325 325 325 326 326 326 327 329 331 332 333 333 332 329 330 329 329 328 328 328 328 329 328 328 329 330 330 331 330 331 331 332 330 328 329 329 328 327 326 323 323 323 321 321 321 320 320 316 317
322 324 326 327 327 326 326 326 325 324 323 323 323 323 323 323 324 325 326 328 329 330 331 332 332 333 332 331 329 329 327 327 327 329 329 328 327 328 329 330 331 331 330 330 330 331 330 329 329 328 328 327 326 324 323 320 320 321 320 318 317 318
322 323 324 324 325 326 326 326 324 324 323 322 321 322 322 321 322 324 325 326 327 328 328 330 330 330 330 330 329 328 328 326 326 326 327 328 328 328 329 330 330 330 329 330 330 329 329 329 329 329 328 328 327 327 325 323 322 321 320 319 319 318
319 320 321 321 321 321 322 322 322 322 322 323 322 321 320 320 321 322 324 324 325 324 326 326 326 326 326 327 328 326 327 326 326 326 327 327 327 328 328 328 329 329 329 328 328 328 326 326 326 326 327 327 326 326 325 326 325 323 323 323 321 318
320 319 319 320 320 320 321 322 323 323 322 322 322 322 322 321 321 323 323 323 323 323 323 323 322 322 323 325 326 326 327 327 327 327 327 327 327 328 328 328 328 328 328 328 328 328 327 327 327 327 327 325 325 325 325 326 325 325 322 322 320 319
319 319 320 320 319 318 318 320 321 321 321 321 321 320 319 320 319 319 319 319 319 320 320 320 320 321 323 323 324 325 326 326 326 326 326 326 327 327 328 329 329 329 329 329 328 328 327 327 326 326 326 325 325 325 325 326 326 325 325 323 322 320
318 319 320 320 319 318 318 319 319 318 318 319 319 317 317 316 316 315 316 316 316 316 317 317 319 320 321 321 322 323 324 325 326 326 325 326 326 327 328 328 328 328 327 329 328 327 327 327 327 327 327 327 326 325 326 326 327 326 326 325 324 323
318 318 317 316 316 316 315 316 315 314 314 314 314 314 315 314 315 315 315 315 315 315 315 316 317 318 318 318 319 320 321 322 324 325 325 325 325 326 328 328 328 327 327 328 328 327 327 327 327 327 327 327 327 327 327 327 327 327 326 325 326 324

ECMWFFLT2_sfc_thetae_108.txt.gz
Theta_e
343 342 341 341 341 341 344 345 345 346 346 346 346 347 348 348 347 347 347 347 344 341 341 341 343 343 347 345 345 345 345 345 344 344 342 344 345 344 346 345 343 343 343 342 340 341 342 343 343 342 342 342 340 332 332 333 333 336 336 339 340 337
342 341 340 340 341 342 342 344 340 340 342 344 345 346 345 344 347 340 347 343 341 343 337 336 340 346 343 345 343 345 345 345 345 344 344 343 343 344 344 345 344 343 343 340 335 329 333 343 342 342 342 340 332 331 332 333 334 335 337 337 339 340
342 342 341 341 341 341 340 340 339 340 342 344 344 345 341 341 337 338 339 340 340 337 337 340 339 342 343 345 344 344 345 344 345 345 344 344 344 344 344 344 344 342 339 338 331 329 328 329 336 342 340 333 330 331 332 333 334 335 335 336 336 341
342 342 342 342 340 339 341 342 343 343 342 340 339 342 341 338 338 337 337 338 337 339 338 335 344 345 347 337 337 343 344 344 343 344 344 341 343 343 343 342 342 339 337 336 333 330 328 328 328 329 330 330 331 331 332 333 334 334 333 337 334 341
342 342 342 341 342 341 342 343 343 343 343 343 339 339 340 337 335 334 335 336 337 340 336 334 334 334 335 334 332 331 332 333 332 334 340 334 334 335 335 332 332 335 334 335 333 331 330 330 330 330 330 330 331 331 331 333 333 332 332 334 337 339
342 342 342 341 341 343 342 342 342 342 342 342 342 341 339 334 333 333 333 336 340 336 335 336 333 330 331 332 333 331 329 330 331 333 337 334 332 333 333 333 333 333 334 335 335 333 333 333 330 330 331 331 330 331 331 331 332 332 332 333 337 339
340 341 341 341 341 341 342 342 343 342 340 341 341 340 337 332 331 333 333 337 337 335 335 335 333 332 331 332 334 332 331 330 330 330 333 333 332 332 331 333 332 333 333 334 335 334 332 332 331 330 331 331 330 330 330 331 331 331 331 333 336 339
339 340 340 341 340 340 341 341 342 342 339 343 341 339 336 333 333 333 335 336 339 334 333 333 335 334 333 332 333 332 331 331 331 331 329 330 332 331 330 330 332 332 333 332 333 335 334 333 332 332 331 331 330 330 330 330 331 331 331 333 335 339
338 339 339 340 339 339 340 340 338 336 337 343 339 338 336 333 333 334 337 337 339 332 331 331 332 333 332 332 331 332 332 331 330 331 331 331 331 330 328 328 329 330 331 332 332 334 335 335 333 332 332 331 331 329 330 330 330 330 331 332 334 337
335 336 336 338 338 338 340 339 336 337 338 341 336 335 333 332 331 334 336 339 339 333 332 332 331 330 331 331 331 331 332 331 332 331 331 331 330 330 331 328 328 329 331 331 333 334 337 335 335 334 332 331 331 330 330 330 330 330 331 332 333 336
335 338 335 335 336 336 338 337 335 337 339 335 334 334 334 332 332 332 335 340 338 336 331 330 330 330 330 330 330 330 331 330 331 332 331 332 330 331 330 330 330 329 330 331 333 334 335 335 335 334 333 331 331 330 329 330 330 330 331 332 332 334
335 335 335 335 336 333 333 335 335 335 335 333 334 332 332 332 334 332 334 335 338 337 335 330 331 330 330 330 330 330 331 330 332 331 331 332 332 331 330 329 329 329 329 331 331 332 333 334 334 332 330 330 331 329 329 329 330 330 331 331 331 332
335 335 334 333 332 332 332 334 334 333 334 335 335 333 332 331 332 333 333 334 336 336 336 331 331 332 335 331 330 330 330 331 332 331 331 332 333 332 331 331 330 332 330 330 331 331 334 334 333 332 331 332 330 329 329 329 329 330 330 331 332 332
335 333 332 332 332 331 331 332 334 333 337 333 332 331 333 331 333 333 333 333 334 336 337 333 332 331 332 332 331 331 331 332 332 331 331 331 332 332 332 331 331 329 332 330 329 330 331 332 331 329 330 331 330 330 329 329 330 330 330 331 331 332
336 335 335 332 332 331 331 334 332 333 333 333 333 332 331 332 332 332 333 332 333 335 337 336 334 333 333 332 332 331 331 332 332 332 331 331 332 331 331 331 331 330 327 328 329 331 332 332 331 329 330 331 330 330 330 329 329 329 330 331 331 332
335 333 331 332 330 332 332 333 334 336 334 336 336 333 332 332 332 332 333 332 333 335 337 337 336 335 334 334 334 334 334 334 333 333 333 333 333 332 331 331 331 330 329 329 329 329 330 331 329 329 329 331 331 330 329 329 329 329 330 331 331 331
333 332 331 331 330 332 333 333 336 337 335 335 334 333 333 334 334 334 333 333 333 335 336 336 336 335 334 334 334 334 335 335 335 334 334 334 333 334 332 331 330 331 329 328 329 328 329 329 328 329 329 330 330 331 329 329 329 329 330 329 330 331
331 332 331 330 330 331 333 333 335 336 337 333 333 333 334 335 336 336 335 334 334 334 336 335 335 335 335 335 335 335 336 336 336 334 333 333 332 333 333 332 330 329 329 328 327 327 327 328 328 327 327 327 329 330 329 330 330 331 329 329 329 329
331 330 330 331 333 334 334 333 333 335 336 334 334 335 335 335 337 337 336 336 335 335 336 334 334 334 335 335 336 336 336 336 336 335 333 333 332 331 331 330 329 328 329 329 329 328 327 327 327 327 327 326 328 328 329 330 330 330 329 329 329 329
330 329 330 331 334 335 335 334 332 332 333 333 334 337 336 336 335 336 336 336 335 334 335 335 333 333 334 335 336 336 336 337 336 334 333 331 331 330 330 329 328 328 326 327 328 328 326 326 326 325 326 326 326 327 327 328 329 329 330 329 329 330
330 330 332 333 334 335 334 333 332 331 329 328 332 331 332 332 331 333 334 335 335 335 334 334 334 332 333 335 336 336 336 336 336 335 333 332 333 332 331 330 330 330 328 326 326 327 327 327 325 323 325 324 325 327 328 329 327 329 329 330 329 329
331 332 334 335 336 335 334 333 329 328 327 327 330 332 331 330 330 332 333 333 335 335 334 333 335 333 335 333 334 334 335 335 334 334 334 335 334 334 332 330 328 325 326 326 324 326 327 327 323 322 320 320 322 324 326 327 327 328 328 330 330 329
330 333 335 337 337 335 334 332 328 325 329 329 329 330 331 331 334 332 330 332 333 333 333 333 333 335 334 333 333 333 333 334 333 333 333 333 334 333 332 330 328 328 325 325 327 327 327 327 322 322 323 320 318 317 320 324 327 327 327 329 330 329
330 331 334 337 336 333 335 332 329 328 329 330 331 334 330 328 328 328 330 331 331 332 332 332 332 333 334 333 332 331 332 331 332 333 333 333 333 333 333 331 330 329 330 326 325 325 327 327 325 323 317 317 318 316 315 317 321 325 329 328 328 328
328 329 330 336 334 333 334 332 333 332 330 328 325 323 325 326 326 328 331 328 330 331 331 332 332 331 334 332 330 330 331 331 331 331 332 333 333 333 333 333 332 331 330 328 326 327 326 326 326 327 323 318 315 314 315 318 320 321 326 326 327 328
329 330 330 330 332 333 332 331 329 328 326 323 322 321 324 324 326 326 327 328 328 330 331 331 331 331 332 333 331 330 331 332 332 331 331 332 333 333 332 331 331 331 330 331 329 327 326 327 327 327 326 326 323 319 317 318 319 315 325 327 327 328
330 330 330 329 330 331 329 329 329 328 326 323 321 321 321 322 324 327 326 326 328 328 330 330 331 331 331 331 331 330 331 332 332 332 332 331 331 332 333 333 333 331 331 331 330 326 327 327 327 327 327 326 326 326 323 320 317 319 316 322 326 326
328 329 329 330 330 330 329 327 326 325 325 323 323 323 323 325 326 328 326 326 327 329 329 330 330 330 331 331 332 329 329 330 331 332 332 332 332 333 333 333 333 333 332 332 330 328 327 328 324 326 327 326 326 326 325 324 323 320 318 316 319 326
325 326 326 328 328 328 327 324 322 322 322 323 323 323 324 325 325 325 325 326 326 328 329 330 331 331 329 330 332 331 329 328 328 329 331 330 331 332 332 332 332 331 331 331 331 331 329 328 328 326 326 325 326 325 325 324 323 322 318 316 317 319
322 323 324 326 326 325 324 324 323 321 320 320 321 321 321 322 323 323 324 324 325 326 328 328 330 331 331 331 330 330 329 328 328 328 330 329 329 330 331 332 332 332 332 331 332 331 330 330 329 329 328 327 324 325 324 323 321 321 320 320 317 318
321 323 325 325 326 325 325 325 322 321 320 319 319 320 319 320 321 321 322 322 323 324 325 325 327 327 329 329 329 330 329 328 328 329 330 328 328 328 329 330 331 332 331 330 330 330 329 330 330 329 328 328 327 326 324 322 321 321 320 319 318 318
321 322 323 323 323 322 323 322 320 320 319 319 319 319 318 318 319 320 320 320 321 322 322 323 323 322 323 324 326 326 326 326 327 327 327 327 328 328 328 329 330 330 330 330 330 329 329 329 329 329 328 328 327 327 326 325 326 324 322 321 320 319
318 319 319 320 319 319 319 320 320 319 319 321 319 319 318 318 318 319 319 319 319 319 320 319 320 319 321 322 323 322 324 325 326 327 327 327 327 327 327 328 329 329 329 329 329 329 328 327 327 326 326 327 327 327 326 326 325 324 323 322 321 318
317 317 318 318 318 318 318 319 319 319 319 319 319 319 318 318 318 318 318 317 316 316 316 316 316 317 319 320 320 321 322 324 325 326 327 328 328 328 328 328 329 329 329 329 330 329 328 328 328 328 328 327 327 327 327 327 327 325 323 322 320 318
317 317 316 316 317 316 316 317 317 318 318 319 318 317 317 317 316 315 315 314 314 314 313 314 315 316 317 316 317 318 320 321 322 323 325 326 327 327 328 329 329 329 330 330 329 329 328 328 327 327 327 327 327 327 327 327 326 326 326 324 323 321
317 317 317 317 316 316 316 316 315 314 314 316 316 315 314 314 314 313 312 312 312 312 312 312 313 313 313 314 315 316 317 318 319 321 324 325 326 327 327 327 328 329 328 330 329 328 328 328 327 328 327 328 327 326 327 327 327 326 326 326 325 324
316 315 315 315 315 315 314 313 313 313 313 313 312 312 311 311 311 311 311 311 311 311 311 311 311 312 312 312 313 315 315 316 317 320 323 325 325 326 327 327 327 328 328 329 328 328 328 328 328 328 328 328 327 327 327 328 328 327 327 326 325 325

ECMWFFLT2_sfc_thetae_111.txt.gz
Theta_e
346 347 347 347 347 347 346 346 347 346 346 347 348 348 349 348 348 348 349 348 348 350 351 349 349 348 347 347 346 345 345 343 344 344 344 345 344 345 344 343 343 341 338 338 341 343 344 345 344 343 343 343 342 342 341 341 341 340 340 340 342 340
345 346 346 346 346 347 347 347 347 348 348 347 348 348 349 350 349 350 348 349 349 348 348 349 349 347 348 347 346 345 345 345 344 344 344 344 344 344 344 344 343 340 337 337 336 345 345 344 344 343 343 342 341 340 341 341 341 340 340 341 341 342
344 346 346 345 345 346 346 347 347 347 347 347 348 349 349 349 348 348 348 347 348 348 347 347 347 346 347 346 346 344 345 344 344 344 344 344 344 344 344 343 340 339 337 335 340 341 343 343 344 343 342 342 342 340 341 341 341 342 340 341 341 342
344 345 345 344 344 345 345 346 344 346 346 347 347 348 348 348 348 347 347 348 346 346 346 347 346 346 347 346 345 344 344 345 345 345 342 342 342 340 339 339 338 336 338 342 340 339 339 343 343 344 344 342 341 341 341 341 339 341 342 339 340 341
345 345 344 343 343 343 344 344 344 343 345 345 345 347 347 347 347 347 347 346 346 346 345 345 346 346 345 344 344 344 344 344 346 345 342 343 343 342 343 342 342 340 341 341 339 340 340 340 343 342 341 340 341 341 341 342 340 340 341 342 342 341
345 345 344 342 343 343 344 343 344 345 345 345 345 345 346 346 346 347 346 346 345 344 344 343 344 343 344 346 346 344 343 343 343 343 343 342 343 344 344 343 343 341 340 341 342 341 340 341 340 341 339 339 340 342 341 341 341 341 342 343 343 341
344 344 344 344 344 344 343 344 344 344 343 344 346 344 344 345 345 345 345 345 343 343 343 344 344 345 345 346 345 345 344 344 343 342 342 342 342 342 343 343 343 343 342 341 340 341 341 339 340 338 340 339 339 340 342 342 341 341 341 342 342 340
342 343 343 344 343 343 344 343 343 345 344 345 343 343 343 344 344 344 344 345 344 343 342 344 344 345 346 346 346 345 346 345 345 344 343 344 343 342 341 341 342 341 341 341 341 342 341 339 339 340 338 339 339 339 341 341 342 342 342 343 342 340
342 342 342 343 342 343 342 343 344 344 344 344 343 343 343 344 344 344 344 345 345 343 344 345 345 346 348 345 345 345 346 345 345 345 345 343 343 343 342 340 340 339 340 341 341 342 342 341 341 342 340 338 338 338 340 341 342 342 342 342 342 341
341 341 341 342 342 342 341 341 343 344 344 345 344 343 343 343 344 344 343 344 345 345 345 346 344 345 345 345 346 346 345 346 345 346 345 344 345 344 343 343 341 339 336 340 339 341 341 341 341 342 341 341 341 340 340 340 341 342 342 342 342 342
341 341 342 340 341 342 341 341 341 344 344 343 344 343 343 343 344 345 344 345 345 345 346 345 344 344 345 345 345 344 345 345 345 345 346 344 345 344 344 343 343 342 340 339 339 340 339 339 339 339 341 340 341 342 341 341 340 341 341 342 342 342
341 341 340 340 340 341 341 340 342 343 343 343 344 342 342 343 344 344 345 344 345 345 346 346 346 345 345 345 345 345 345 344 344 345 344 344 345 345 344 343 343 343 342 342 340 340 340 338 338 337 340 338 339 340 339 339 339 340 341 341 342 342
341 341 341 340 340 340 341 340 341 342 342 343 343 343 342 342 343 344 345 345 345 345 345 346 346 345 344 345 344 344 344 344 343 343 343 343 343 344 344 343 343 343 342 342 342 341 340 339 338 339 339 337 339 338 340 338 339 340 340 340 341 341
341 340 340 340 340 340 341 341 342 342 343 343 343 342 343 344 344 343 344 344 344 344 344 346 345 345 344 345 344 344 343 343 343 342 342 343 341 342 341 341 340 341 340 341 340 341 339 337 337 339 340 340 339 339 338 338 339 340 340 340 341 341
341 340 340 340 341 341 341 341 341 342 343 344 343 343 344 344 344 344 344 344 344 344 343 343 344 345 345 344 343 342 342 341 341 340 340 341 340 340 340 340 340 339 340 339 340 339 339 339 338 337 337 341 339 339 339 339 341 340 339 340 342 341
340 340 340 341 342 342 342 342 342 342 343 343 343 344 344 344 345 345 345 345 344 344 343 343 343 343 344 343 342 341 341 341 340 339 339 339 339 339 339 339 339 339 337 337 338 338 338 338 338 337 341 341 341 340 338 339 338 339 339 341 340 340
338 339 340 340 340 340 340 341 342 342 342 342 342 343 343 344 345 345 344 344 345 344 344 343 344 343 343 342 342 341 341 341 341 340 340 341 339 339 338 337 338 338 337 335 337 337 337 338 338 339 339 339 341 341 339 338 339 340 341 339 339 339
339 339 338 339 340 340 340 341 342 341 341 340 341 342 343 344 344 345 346 346 346 345 344 344 343 343 342 341 341 341 342 342 342 341 341 340 339 339 338 337 336 338 337 336 336 336 335 335 335 337 338 339 340 339 337 338 338 339 338 338 339 338
337 337 337 338 339 340 340 340 341 340 340 340 341 341 342 343 344 345 345 346 346 346 346 345 343 342 342 341 342 342 341 341 341 340 340 339 339 338 336 335 335 335 336 336 335 336 335 335 334 335 335 337 338 337 336 336 336 336 337 337 337 336
336 337 338 338 339 338 338 337 336 338 339 339 340 341 343 344 345 345 346 345 345 346 346 345 343 343 342 341 341 341 341 341 341 341 339 339 339 338 336 335 334 333 334 336 336 335 335 334 334 333 333 334 336 336 336 336 335 335 335 335 336 336
335 337 337 337 337 337 336 336 338 338 338 339 340 342 342 344 345 346 346 345 345 345 345 344 344 343 341 340 341 342 341 341 342 340 339 337 338 338 338 337 336 335 333 333 334 336 335 335 331 330 333 332 333 336 336 335 335 335 336 336 336 335
335 337 338 339 338 338 340 340 339 339 340 339 340 341 342 344 345 345 345 345 345 345 345 344 344 344 343 341 341 341 341 340 340 341 339 340 339 338 338 337 334 332 333 333 332 334 334 332 328 326 325 327 329 332 335 335 333 334 335 336 335 335
336 337 338 339 340 339 340 342 343 340 341 340 343 344 344 345 345 344 345 345 345 345 345 345 344 343 342 342 341 341 340 342 342 341 339 339 338 337 338 336 334 333 331 330 331 334 334 333 328 329 328 324 322 323 329 331 333 334 335 336 336 335
336 338 339 340 340 342 343 344 344 345 343 343 341 341 341 341 342 343 343 345 345 345 344 344 344 343 342 342 341 340 340 339 338 339 339 338 338 337 337 337 336 335 334 330 331 331 334 334 331 328 321 322 323 322 318 324 329 333 336 335 335 333
336 337 338 339 340 342 342 342 341 342 342 341 341 341 340 340 342 343 343 344 344 344 343 343 343 343 342 342 341 340 340 339 339 339 339 338 337 337 338 337 336 334 333 331 329 332 333 334 333 333 328 324 322 320 320 324 327 328 335 333 333 334
337 338 340 342 344 342 341 339 338 336 334 335 335 336 336 337 339 341 340 342 343 342 343 343 343 343 342 341 341 341 340 339 339 339 338 338 338 338 337 337 336 335 334 334 331 330 330 334 333 333 333 331 329 322 322 326 324 319 333 335 334 333
339 340 341 341 342 342 341 341 339 336 335 335 334 335 337 338 338 338 339 340 341 343 342 342 342 342 342 341 341 341 340 339 339 339 338 337 336 335 335 337 337 336 335 335 334 328 329 332 332 330 332 332 332 333 332 326 321 324 321 329 332 332
340 340 340 341 342 342 340 340 340 338 336 335 335 334 336 336 337 338 338 338 339 339 341 342 341 340 341 340 340 340 339 339 338 338 337 337 336 336 336 337 337 338 338 336 335 332 331 332 329 330 333 330 330 331 332 331 329 323 322 319 323 332
337 337 337 339 339 339 339 340 338 336 334 334 335 334 334 335 336 337 336 336 336 335 336 338 338 339 337 336 337 337 337 337 337 337 336 336 338 337 336 336 336 336 334 336 336 335 333 331 332 330 330 331 331 330 331 332 331 329 324 322 322 324
334 335 335 336 337 337 337 337 337 336 334 332 333 332 333 333 333 335 333 333 333 333 333 334 335 335 335 334 334 334 335 335 336 336 336 336 336 336 337 336 336 336 336 334 335 336 331 331 332 333 332 331 329 329 329 327 327 326 325 325 319 322
333 333 334 335 335 335 335 335 334 334 333 331 331 332 331 331 331 332 331 331 331 331 331 331 332 332 330 330 331 332 332 333 334 334 335 335 336 336 337 337 336 335 336 334 333 333 332 332 334 332 332 331 330 330 327 325 326 327 325 322 321 321
330 331 332 333 334 333 332 332 333 332 331 331 330 329 329 328 328 328 327 327 327 328 327 328 327 328 327 327 328 329 330 331 331 332 333 334 335 336 336 336 336 335 333 334 334 333 331 331 331 332 332 332 331 329 328 327 328 329 326 325 322 322
328 330 331 332 331 331 331 330 330 330 329 329 329 328 327 326 326 325 324 324 323 322 323 323 322 322 322 323 324 325 326 327 328 330 331 332 333 334 333 334 334 333 333 332 333 333 331 331 331 329 329 331 332 330 329 332 332 328 328 330 326 320
327 329 329 329 329 327 327 328 328 328 328 328 325 325 324 323 323 323 322 321 320 320 320 319 319 319 320 320 321 322 323 325 326 327 328 329 331 332 332 332 332 332 332 333 333 333 332 332 332 332 333 330 330 329 330 331 330 329 328 328 324 323
326 327 327 326 325 324 324 325 325 326 326 325 323 322 321 321 320 320 320 319 319 319 317 318 318 319 319 319 319 320 321 321 322 324 326 327 328 329 332 331 331 333 333 334 333 333 332 331 330 330 331 331 331 329 329 330 330 331 332 329 326 325
326 326 325 324 323 323 322 323 323 322 322 322 321 320 319 319 318 319 318 318 317 318 317 317 318 317 318 318 317 318 318 318 320 322 324 326 327 327 328 328 329 331 331 332 331 331 332 332 331 331 330 330 329 329 332 333 332 331 330 330 329 328
324 324 322 322 322 322 321 320 320 320 320 319 318 317 317 317 317 318 317 317 316 316 316 316 315 316 316 316 316 316 316 317 318 321 323 325 326 325 326 326 327 328 328 330 331 330 331 330 332 333 332 331 330 330 330 330 331 332 331 331 330 329

ECMWFFLT2_sfc_thetae_117.txt.gz
Theta_e
347 349 349 349 348 346 349 350 350 351 351 351 351 351 351 351 350 350 351 350 350 351 352 349 349 346 345 346 344 343 343 343 343 343 343 342 341 341 341 341 341 340 342 343 343 345 345 346 345 343 344 342 343 341 345 345 341 337 341 339 342 338
348 348 349 348 348 347 348 347 349 351 351 352 351 351 352 352 353 352 350 351 351 350 349 350 350 349 346 346 346 344 343 344 343 343 343 342 341 341 342 340 340 338 339 342 343 346 347 346 344 343 344 343 342 344 347 343 343 340 338 341 342 342
348 349 349 349 347 346 344 344 346 345 347 349 352 352 350 351 350 349 350 349 349 348 347 348 349 347 351 347 348 345 345 344 343 343 343 343 342 343 342 340 340 339 338 340 342 345 346 346 345 344 344 344 343 345 344 342 341 342 339 343 342 344
349 349 349 348 348 347 345 345 343 344 345 347 350 349 348 349 347 347 346 346 344 346 347 351 345 347 350 349 348 345 345 345 345 345 345 344 344 343 343 341 341 339 339 339 339 341 342 346 346 345 345 344 345 342 343 343 338 340 343 339 341 344
350 350 348 347 347 345 346 343 342 342 342 344 346 346 345 347 347 347 345 346 343 345 344 345 343 344 343 345 348 346 344 348 349 346 345 345 345 344 344 334 336 336 333 333 333 338 339 340 347 346 346 346 343 343 342 342 339 339 341 343 343 344
349 349 348 347 347 345 344 340 342 341 342 345 344 344 344 344 343 346 344 343 345 344 345 344 344 346 345 344 343 343 344 345 347 347 342 345 341 345 340 341 336 331 330 334 337 339 340 339 340 342 343 346 344 344 342 341 342 340 342 343 343 344
348 348 348 348 346 345 342 340 341 343 342 342 343 344 341 341 344 345 344 344 343 342 343 343 343 344 342 344 344 343 343 342 342 343 342 342 343 343 341 340 340 340 338 337 334 335 336 338 339 336 339 340 342 342 343 341 339 340 341 342 345 343
347 348 347 347 346 341 342 341 342 343 343 342 341 341 342 343 345 342 344 345 344 344 343 342 344 345 347 349 348 349 349 347 347 346 344 343 343 339 340 340 342 340 338 339 335 334 333 334 336 338 334 340 341 341 342 343 343 342 342 345 346 346
348 347 346 346 344 340 340 342 342 342 341 343 344 343 344 346 344 343 344 345 345 345 342 345 346 348 348 351 352 351 349 348 347 346 347 346 346 346 344 341 341 340 341 340 340 340 337 334 335 336 337 334 337 340 342 343 342 341 342 343 343 347
347 346 346 346 343 341 340 339 340 342 344 342 344 345 345 343 344 344 342 344 345 346 348 348 350 352 352 345 351 347 352 349 348 347 347 347 347 348 346 343 344 342 338 339 340 340 340 340 335 334 335 336 337 337 341 342 342 341 342 343 343 348
347 347 346 343 341 341 341 340 341 343 343 338 345 345 343 344 344 344 344 347 346 348 349 351 351 349 347 346 347 347 349 348 346 347 349 348 349 348 346 345 345 344 346 343 341 339 339 340 339 336 335 334 335 339 340 343 343 345 343 344 343 349
347 347 346 343 341 341 341 340 343 343 341 344 345 343 342 344 342 342 345 347 349 349 350 350 350 349 350 353 350 347 347 348 346 347 349 350 350 350 349 346 347 348 349 347 346 345 341 339 338 337 337 335 335 335 337 339 341 344 345 344 344 344
346 345 344 342 341 340 342 341 343 344 343 344 343 344 344 344 345 345 347 347 349 349 349 349 352 351 350 350 349 350 348 349 348 349 351 352 351 351 349 348 348 348 346 345 343 344 344 343 339 339 339 335 335 334 337 337 339 341 343 344 342 341
346 344 342 342 341 340 342 342 343 343 344 343 343 342 344 346 346 346 347 347 348 349 348 350 350 350 350 349 351 350 348 348 349 351 351 352 349 349 347 347 346 345 344 341 342 341 339 339 339 340 339 336 336 337 339 338 339 340 342 344 345 343
344 343 342 342 341 342 344 343 342 344 344 346 344 345 344 347 347 348 348 347 349 348 349 349 350 349 348 350 350 348 348 347 350 352 349 350 349 349 348 346 344 344 344 343 342 342 339 340 338 337 337 341 340 339 339 338 340 340 341 341 343 344
343 342 342 342 342 343 344 344 345 346 346 348 345 346 346 347 348 348 348 348 349 349 350 350 349 349 348 350 348 347 348 351 351 350 347 346 348 345 345 346 346 346 342 340 341 341 340 339 338 338 341 341 341 341 343 339 340 339 340 341 341 344
341 342 341 342 343 343 344 345 347 347 348 349 346 347 347 349 349 348 351 350 350 350 349 350 350 350 351 350 348 349 348 349 350 347 346 345 344 344 346 343 342 344 346 341 340 339 339 339 339 339 340 339 340 342 340 342 342 339 341 339 341 343
342 342 342 342 344 344 345 346 347 347 348 347 348 348 349 348 350 349 350 349 349 349 350 351 350 350 350 351 349 347 346 347 346 347 345 345 343 345 345 344 342 342 342 341 340 340 339 340 339 338 339 341 342 341 342 342 342 341 340 340 341 341
342 342 344 343 344 346 345 347 347 347 347 347 348 349 349 349 349 346 349 350 350 351 349 349 350 349 349 347 347 347 346 346 345 345 345 344 343 344 343 344 342 341 342 341 340 342 341 341 340 339 339 340 342 342 344 343 343 342 340 342 342 343
342 343 344 344 344 343 344 344 343 345 345 346 347 347 347 347 350 349 350 350 351 352 350 350 350 350 350 348 347 346 345 346 344 344 343 342 340 340 341 340 340 340 341 341 340 341 343 341 341 341 340 341 342 343 344 343 343 344 344 344 343 343
342 344 343 341 342 342 341 341 342 343 341 345 343 345 346 349 348 348 350 350 350 350 351 351 350 350 350 348 348 347 347 345 345 344 342 342 342 342 342 342 340 341 339 339 339 340 340 341 336 333 335 336 339 343 344 343 340 341 342 342 342 341
342 343 342 343 343 343 343 341 340 340 340 341 344 342 342 349 350 349 349 350 351 351 351 351 351 350 351 350 349 346 347 345 344 344 343 343 342 341 342 341 340 339 339 337 336 337 339 338 331 328 327 328 331 333 337 340 339 340 340 340 341 342
342 342 345 344 343 342 340 335 338 338 342 341 347 345 347 347 346 348 351 351 351 352 349 350 351 350 351 351 350 349 346 345 345 346 342 341 342 341 341 341 341 338 336 338 338 341 340 340 331 332 332 328 325 325 329 334 340 341 341 341 340 340
342 344 339 333 331 336 335 336 338 337 337 337 341 347 347 347 350 347 349 350 350 350 349 349 350 350 350 350 350 347 348 349 347 348 345 342 344 344 345 345 343 344 341 336 334 335 339 341 336 331 324 325 326 325 320 325 330 335 339 339 341 340
341 336 334 336 332 338 340 339 338 338 339 337 339 342 343 342 343 343 343 346 347 348 347 348 350 350 348 348 348 349 349 349 346 345 343 341 340 340 341 343 344 342 342 339 336 335 337 338 339 341 333 326 324 322 322 325 329 329 334 335 339 340
336 334 332 337 338 340 339 339 338 336 334 332 333 338 336 340 341 341 342 347 347 346 346 348 348 348 348 346 347 348 346 344 343 342 342 341 341 340 340 343 343 344 339 342 341 336 334 338 338 339 340 338 334 325 326 330 328 321 332 334 338 339
333 334 336 338 340 340 337 338 339 338 337 334 334 339 342 343 343 343 345 345 345 347 345 346 346 346 344 343 343 343 343 343 342 342 342 341 341 341 338 338 340 339 339 339 339 335 333 333 335 337 341 341 340 338 337 331 327 326 322 329 333 336
334 335 335 337 337 336 337 338 337 337 336 338 337 338 340 343 345 344 343 342 343 343 343 343 342 341 341 340 340 340 341 342 339 340 337 337 337 338 340 341 341 341 341 340 339 334 333 334 331 332 336 334 336 335 336 337 337 331 327 325 325 333
335 338 340 335 336 336 338 339 338 336 336 337 339 339 341 341 341 342 340 341 340 339 340 341 341 340 339 339 338 338 338 338 337 337 335 336 336 338 338 339 339 338 338 338 338 338 336 334 334 333 333 334 334 333 334 336 335 334 329 325 323 326
337 334 334 333 338 336 335 335 335 336 336 337 339 339 339 339 338 340 338 338 338 338 338 338 339 338 337 336 335 336 335 335 336 335 335 335 337 338 338 338 338 339 339 338 337 337 334 334 335 335 334 333 331 331 331 329 330 331 332 331 323 324
337 336 335 336 337 337 336 336 336 337 337 337 338 338 337 336 336 337 336 336 335 335 335 334 335 336 334 333 334 335 334 334 335 336 334 335 336 336 336 336 337 337 336 336 335 335 335 336 335 334 334 333 332 331 329 327 327 328 328 327 327 326
335 335 336 335 334 334 338 335 338 339 338 338 337 336 336 335 334 333 333 332 333 332 332 333 332 331 331 331 331 332 332 333 333 334 333 334 335 335 335 335 334 334 334 335 335 334 333 333 334 334 334 333 333 333 332 330 330 329 328 327 326 324
332 334 335 334 336 334 336 335 337 337 337 337 336 335 335 333 333 331 331 330 330 330 330 329 329 329 329 329 329 330 329 329 329 330 331 330 332 333 334 333 333 333 333 333 333 333 332 334 334 333 333 334 333 333 332 333 331 330 331 329 330 324
330 333 335 335 334 335 336 336 336 335 335 334 334 334 333 331 330 329 329 328 328 328 328 328 328 327 327 327 327 328 328 328 328 328 328 329 330 331 332 331 331 331 332 332 333 334 333 333 333 335 334 332 332 331 332 333 332 331 330 328 326 325
333 333 333 335 334 333 332 333 333 334 333 332 331 330 329 329 329 328 328 328 327 328 327 328 326 327 326 326 326 326 326 326 326 327 327 327 328 329 331 331 331 331 331 332 332 332 332 333 332 332 333 333 332 333 332 332 332 331 330 329 327 327
333 332 332 332 331 331 331 331 330 330 330 329 328 327 326 327 327 328 327 326 326 326 326 325 326 325 324 324 323 323 324 324 324 325 325 324 325 326 327 327 328 330 330 331 330 330 330 330 329 330 331 332 332 331 332 332 332 331 331 331 330 329
331 332 332 331 330 330 330 329 328 327 327 328 327 326 325 325 325 326 326 325 325 324 324 324 323 323 322 322 323 322 322 322 323 323 323 323 324 324 325 325 326 326 327 328 328 327 327 327 328 329 329 329 328 329 331 333 332 331 331 331 330 329

ECMWFFLT2_sfc_thetae_120.txt.gz
Theta_e
341 342 343 344 347 349 350 352 352 352 352 352 351 351 351 351 350 350 350 349 349 346 346 345 344 342 345 345 344 344 344 343 343 341 340 339 340 341 342 342 342 341 343 342 343 344 345 345 345 346 345 345 346 341 338 341 343 337 338 338 339 341
342 343 343 345 344 348 348 350 351 351 351 351 351 351 350 350 353 350 350 349 348 349 348 345 347 347 345 343 343 343 343 343 343 343 342 340 341 341 340 342 340 339 340 341 343 341 343 345 346 346 345 345 342 338 339 342 340 337 338 338 340 343
343 345 345 344 344 345 345 348 349 349 349 351 352 351 349 350 350 350 349 348 350 350 348 348 350 347 346 343 343 343 344 343 343 343 343 342 342 341 342 341 340 339 339 341 338 337 340 343 343 346 345 343 339 339 340 342 339 337 337 339 338 345
346 346 345 343 343 342 344 344 345 347 348 350 350 350 349 350 350 349 350 349 350 350 351 351 351 352 351 345 343 345 344 343 343 343 344 342 342 343 342 343 341 341 340 335 332 335 338 344 343 343 340 340 340 340 341 340 337 334 341 341 338 346
347 346 345 344 341 340 343 342 341 344 346 348 349 349 348 348 348 349 347 348 347 348 348 348 349 348 346 346 344 344 344 343 343 343 344 342 341 340 341 336 334 339 333 331 330 331 333 340 344 342 341 340 340 341 340 338 339 337 338 338 340 346
348 347 347 343 341 342 343 340 340 341 343 346 348 347 347 347 346 348 349 347 351 347 351 345 342 345 343 345 345 343 342 343 344 343 344 342 343 341 335 335 329 329 329 330 329 330 331 337 341 344 342 342 343 342 339 338 337 340 337 339 341 346
347 347 348 346 344 342 340 341 341 341 341 343 344 344 344 343 346 346 353 348 347 345 344 349 341 345 345 344 344 346 344 345 345 344 344 340 342 343 338 337 333 331 330 329 328 331 335 334 336 338 340 340 341 339 339 337 336 337 337 340 341 347
346 346 346 347 345 341 341 340 341 341 341 342 341 342 342 344 346 345 348 352 349 345 344 348 344 349 353 349 347 345 345 344 343 343 345 339 341 344 343 342 345 338 335 334 335 337 332 329 331 335 332 333 335 338 339 338 339 341 341 339 341 346
347 347 346 346 344 341 341 341 343 341 342 346 341 341 345 344 344 344 348 350 347 350 346 350 346 346 346 346 349 349 347 346 346 348 346 346 346 348 347 344 343 340 340 339 339 338 339 337 336 333 332 331 332 334 337 340 340 339 339 342 340 341
347 346 346 345 345 341 344 341 343 341 348 342 349 342 353 346 349 343 345 349 345 348 352 351 346 346 344 345 349 346 347 347 345 345 346 344 349 352 351 350 345 342 339 339 338 338 343 339 336 336 334 331 338 335 337 341 339 339 338 339 342 344
349 348 346 344 344 344 344 342 341 341 350 340 351 353 346 347 347 347 344 350 346 349 352 349 349 346 347 346 347 347 346 349 346 347 349 352 352 347 349 347 345 345 346 346 345 342 340 337 337 336 337 334 337 336 335 337 342 343 341 341 341 346
348 347 346 344 346 342 342 343 341 340 346 341 349 350 344 345 345 345 345 347 347 350 351 350 348 348 344 345 344 344 345 346 349 349 349 350 349 352 351 349 349 349 350 349 344 346 343 340 338 336 337 335 337 337 341 341 344 343 342 340 341 345
346 347 346 347 345 343 343 340 338 343 342 341 347 348 346 345 348 347 347 346 349 349 350 349 350 348 345 345 343 343 342 343 344 350 354 351 352 351 348 349 349 349 347 347 345 345 342 341 340 338 338 336 336 337 342 340 345 345 339 339 342 343
346 346 346 349 343 346 345 341 343 347 343 350 349 347 346 346 347 347 346 348 349 349 348 350 349 349 348 344 343 342 342 341 342 347 352 354 351 351 347 346 347 346 346 345 342 341 340 338 338 339 338 339 338 342 341 340 338 339 343 342 341 341
346 344 346 348 344 343 349 342 344 345 346 344 348 344 349 351 352 347 346 347 349 350 349 349 349 347 345 342 341 342 341 340 342 347 352 350 350 347 347 344 347 344 346 344 342 340 339 339 337 336 337 339 339 341 342 338 340 340 341 340 342 340
345 344 346 346 347 345 349 350 350 348 345 349 348 346 348 352 354 351 351 348 349 351 350 349 349 350 350 343 342 339 343 346 350 353 349 350 348 345 345 348 347 345 344 340 340 338 339 337 339 337 341 339 340 342 340 342 342 341 340 341 337 339
344 344 344 344 347 346 348 352 351 347 345 349 347 348 347 347 349 352 350 350 351 351 350 349 349 349 351 350 348 350 350 351 351 348 354 350 346 346 345 346 347 344 343 340 338 337 338 339 339 338 338 337 340 340 338 339 340 341 342 338 338 339
345 344 345 343 348 343 348 351 349 346 343 337 334 336 338 338 341 345 351 350 352 351 349 350 352 352 356 351 351 345 346 349 349 353 351 351 345 347 348 348 343 344 343 341 338 337 337 338 340 339 337 338 339 340 340 341 341 342 340 337 338 337
343 343 344 345 346 345 349 346 338 336 336 337 337 339 340 340 339 340 341 341 345 351 352 352 352 351 352 350 347 351 352 351 351 352 352 346 345 346 349 346 343 342 344 342 340 339 338 340 339 339 338 339 340 340 341 341 341 340 339 339 339 341
341 343 344 344 342 341 341 335 336 339 337 335 338 337 339 340 342 341 343 343 343 346 350 354 349 353 352 355 354 355 352 352 349 352 351 345 344 343 344 342 342 341 340 341 341 340 339 338 338 337 337 338 339 339 341 341 340 340 340 339 340 340
342 343 341 339 339 339 335 333 335 335 334 336 338 340 339 340 341 342 342 342 342 347 350 349 349 353 353 355 354 358 354 350 349 350 351 345 347 345 345 344 342 342 340 337 338 340 341 339 334 332 334 334 335 338 338 339 340 340 339 338 340 338
342 344 344 344 340 337 338 337 334 333 335 335 336 337 338 339 339 340 342 341 343 347 347 347 348 350 357 353 354 353 355 352 352 351 349 347 346 343 345 344 343 340 342 338 336 340 342 337 332 328 326 327 329 331 335 336 338 339 338 337 337 338
337 338 339 339 338 335 336 338 336 335 337 337 339 341 340 340 340 338 339 343 344 344 343 343 347 349 353 353 351 351 351 349 347 347 345 344 345 344 344 343 342 340 338 340 337 341 341 340 331 332 330 327 323 323 329 334 338 338 339 338 338 337
337 339 336 336 337 338 337 338 339 339 339 340 337 337 338 340 338 337 338 341 346 343 344 340 342 341 349 352 353 349 348 349 349 347 347 344 343 342 344 346 343 342 341 335 334 336 342 340 336 331 324 324 324 323 319 326 327 334 338 337 338 338
338 336 335 336 338 337 337 337 337 337 338 338 338 337 335 335 335 337 336 337 340 344 343 343 345 345 345 349 347 348 348 348 347 347 345 342 340 340 340 340 342 342 340 337 333 335 337 340 338 339 332 325 322 320 319 323 327 326 334 335 336 337
336 336 334 337 340 340 339 338 336 334 333 334 332 332 332 334 335 338 337 338 339 341 344 344 346 347 346 345 347 346 346 343 344 345 345 343 342 341 341 340 340 339 339 338 336 333 333 338 339 338 338 334 330 323 323 326 325 319 329 330 332 336
335 335 337 338 339 339 337 338 338 337 337 335 335 336 337 337 338 338 339 339 340 342 341 347 346 347 346 341 342 343 343 342 340 342 345 342 341 341 339 339 339 337 338 338 337 332 332 332 335 336 338 338 337 336 334 328 323 325 320 326 330 331
336 336 339 340 339 338 336 337 337 337 337 338 336 334 336 337 339 338 340 336 339 338 340 342 341 339 339 338 338 339 338 339 339 336 336 337 338 339 338 339 340 341 341 340 337 334 332 333 330 330 335 334 333 334 334 332 331 327 323 320 323 329
336 337 338 338 337 337 338 338 339 337 336 337 337 336 336 332 333 339 335 337 337 337 340 340 339 338 337 335 335 335 336 336 335 336 333 332 334 335 337 337 337 337 337 337 337 336 334 332 331 329 329 330 331 330 330 331 331 332 324 321 321 323
337 337 336 336 337 337 337 335 336 335 335 336 337 336 336 336 336 339 337 339 340 338 337 336 337 335 334 331 332 334 333 333 334 333 336 333 334 335 335 335 336 335 335 335 336 336 333 332 332 332 331 330 328 328 328 327 327 327 327 326 322 322
336 336 337 337 336 334 333 333 333 336 335 332 334 335 334 334 339 338 338 336 336 337 336 335 337 336 331 330 331 333 332 331 332 332 331 330 330 331 332 332 333 334 334 334 333 333 333 333 332 332 332 330 329 328 326 325 324 325 324 322 321 321
335 336 338 337 336 334 334 335 336 337 335 334 335 333 333 334 337 336 336 333 336 338 335 335 333 333 331 329 331 330 329 329 329 329 328 329 330 330 330 331 331 332 332 334 334 333 333 331 332 331 331 331 330 330 329 328 328 328 325 324 323 322
334 335 335 336 336 337 337 337 335 333 334 337 332 334 334 335 331 330 330 331 332 336 336 330 331 330 327 328 327 327 327 326 326 327 327 327 327 328 329 329 330 331 331 331 331 331 330 330 331 330 330 331 331 330 329 330 330 329 328 327 325 322
333 334 335 334 335 336 335 336 337 334 334 333 331 331 330 329 330 330 331 330 329 329 333 332 328 326 325 324 325 325 325 325 324 325 325 325 325 326 327 326 326 327 328 329 330 329 329 329 329 330 330 328 328 329 329 330 329 329 327 325 323 322
331 333 334 334 333 332 331 332 333 333 331 331 329 327 328 328 328 329 329 328 327 328 326 325 324 324 324 324 324 324 325 324 323 324 324 323 324 324 325 324 325 326 326 327 326 325 325 325 325 325 326 326 326 327 327 328 328 328 329 327 325 324
331 332 331 330 330 330 330 330 330 329 329 329 328 328 327 327 327 327 328 330 328 326 324 323 322 322 323 324 324 323 323 325 324 323 322 322 322 322 322 323 324 323 323 325 322 322 322 322 322 323 323 324 323 323 325 326 326 326 327 328 327 326
330 330 330 329 329 329 328 327 326 327 328 328 327 325 325 326 326 327 329 326 324 323 322 322 322 322 323 324 326 324 324 323 322 321 322 322 322 323 323 324 322 322 322 322 321 320 321 321 321 321 321 321 320 320 321 324 325 326 327 327 327 327

ECMWFFLT2_sfc_thetae_123.txt.gz
Theta_e
344 345 346 347 348 349 351 353 352 352 352 352 352 351 351 351 350 349 349 349 348 344 342 341 342 341 345 343 344 344 343 342 341 339 340 340 340 340 341 342 342 342 342 342 342 343 344 345 344 345 346 347 347 339 336 334 337 340 338 340 341 341
342 344 345 347 349 349 350 351 350 350 350 350 351 351 350 348 351 345 349 347 344 345 342 340 340 346 343 344 343 344 343 343 342 342 340 340 341 339 341 342 342 341 341 341 342 336 337 341 345 346 347 347 342 336 335 335 336 336 337 337 340 344
340 341 343 345 347 348 349 349 350 349 350 351 351 350 348 349 345 345 346 345 346 345 342 342 343 345 344 345 343 344 344 343 343 343 341 342 341 340 341 341 342 341 341 341 337 332 331 332 337 345 347 344 337 336 336 335 335 334 335 338 339 346
338 339 340 342 344 345 346 347 348 348 348 348 348 348 346 346 346 346 346 344 344 346 346 341 350 350 349 343 342 344 345 344 344 344 343 343 342 341 342 342 342 342 342 339 329 327 330 332 336 338 339 338 337 337 336 335 337 333 336 342 340 346
339 339 338 340 341 342 344 345 346 346 347 347 347 346 345 345 345 345 345 344 345 346 347 345 345 345 340 339 337 337 339 337 337 337 344 336 334 338 339 337 337 339 335 332 328 326 328 329 337 339 338 336 336 336 337 338 337 335 336 337 340 346
340 339 339 339 339 342 341 341 342 344 345 345 346 345 344 344 344 344 345 344 346 345 344 344 343 341 340 339 338 339 339 338 337 338 341 338 338 337 336 337 333 330 329 328 327 326 326 329 333 338 337 336 335 336 336 337 337 335 335 335 341 347
340 340 338 338 338 340 338 338 340 342 343 344 345 344 342 343 342 343 343 344 343 340 339 339 339 338 338 340 339 339 339 340 339 339 341 338 338 339 337 334 331 326 326 326 326 326 326 326 330 338 337 337 337 338 338 337 336 334 336 335 342 347
341 340 337 337 337 338 337 336 337 344 342 343 343 343 341 341 341 341 342 342 340 336 333 335 334 336 340 341 340 340 339 339 339 338 342 339 336 338 338 334 333 328 326 326 326 326 325 326 327 336 339 337 338 338 337 336 334 334 336 335 339 347
342 340 338 337 336 337 336 336 338 337 338 345 340 341 340 339 340 338 341 341 339 335 335 336 336 338 337 339 341 342 339 339 339 340 340 341 340 341 339 339 337 334 331 329 328 331 334 336 334 334 333 331 331 333 334 334 334 335 336 336 337 343
342 341 339 338 337 336 336 335 335 335 336 343 337 337 338 338 337 337 338 337 339 338 341 339 336 336 337 338 340 339 341 340 339 339 340 340 340 343 341 341 340 338 339 338 339 338 338 336 336 334 333 333 334 331 333 335 335 337 336 337 338 338
342 343 341 339 338 335 337 336 335 335 339 337 338 338 339 338 336 337 338 338 337 341 342 340 339 338 339 338 338 338 338 340 339 340 341 342 345 342 341 341 339 339 340 341 340 340 339 337 336 335 335 335 334 332 333 334 337 337 338 335 338 341
342 342 340 339 340 336 335 336 335 335 334 338 340 338 337 336 338 337 339 336 336 341 344 341 340 339 337 337 336 336 337 337 338 341 343 343 342 343 343 344 342 342 341 341 340 339 340 337 336 336 336 335 333 334 333 335 336 336 336 335 336 338
342 341 339 339 337 335 334 334 333 335 334 340 338 337 336 337 337 339 338 337 337 343 343 342 340 340 340 336 336 335 335 334 337 339 342 344 345 342 340 340 339 341 340 338 338 338 340 338 336 336 336 336 335 335 336 336 336 337 334 334 335 335
341 340 340 340 336 333 332 334 336 333 338 337 335 335 338 338 341 339 338 338 342 344 344 343 341 339 338 336 336 336 335 336 336 337 339 344 342 341 339 339 339 338 344 338 336 336 335 336 335 334 334 335 335 336 336 336 335 335 335 335 336 336
341 340 342 338 335 333 333 335 334 334 337 335 334 333 337 338 339 340 341 341 343 344 344 344 343 341 338 336 336 335 336 336 336 337 338 340 342 339 339 340 338 337 336 337 336 336 337 335 334 334 334 334 334 335 335 335 334 335 336 336 336 336
340 339 339 336 336 336 336 336 336 341 335 336 336 336 336 336 336 337 340 339 338 339 338 337 337 339 339 337 338 335 336 337 337 337 338 340 340 338 338 339 339 336 334 335 335 334 335 334 333 334 334 334 334 335 336 335 336 336 335 336 336 336
338 339 337 337 337 336 336 337 338 336 335 333 334 334 335 335 337 337 338 340 340 341 340 339 337 338 340 339 338 335 337 337 337 336 337 339 337 338 336 340 337 337 335 332 333 333 333 333 333 334 333 333 334 335 335 335 335 336 338 335 335 334
338 337 336 336 335 334 337 336 335 335 335 333 334 335 335 336 337 338 339 339 340 341 341 340 338 338 343 341 340 337 338 338 336 335 337 339 337 338 338 336 334 334 334 333 331 331 331 332 335 335 334 334 334 334 335 335 336 338 336 336 334 334
336 335 335 336 334 336 335 334 334 333 332 333 334 335 336 337 337 338 338 339 340 340 340 339 339 341 340 341 341 340 338 338 337 339 338 338 336 336 337 336 334 332 334 334 332 332 333 333 334 334 334 334 334 335 335 336 337 335 335 336 335 337
335 334 335 335 334 335 333 332 331 331 330 331 332 334 335 337 336 338 340 340 339 340 341 341 340 339 338 338 337 340 340 340 340 340 339 336 333 333 333 333 332 332 331 332 334 334 334 332 330 329 331 332 332 333 334 335 335 336 336 335 336 336
335 334 334 334 333 332 330 330 330 329 328 330 332 333 335 337 338 338 338 340 340 343 340 337 339 339 337 337 338 338 337 339 342 339 340 336 335 335 335 335 334 332 331 329 329 332 333 332 327 325 326 327 328 330 332 332 333 334 335 335 335 334
334 333 334 333 334 332 330 330 329 329 330 331 332 333 334 336 336 338 338 338 339 340 336 337 339 339 341 339 337 338 338 340 340 338 339 339 336 337 335 335 334 331 332 331 328 332 334 330 324 322 322 323 321 325 327 327 330 331 334 335 335 334
334 334 335 334 333 331 330 331 330 330 332 332 335 336 336 336 337 335 334 337 339 339 337 336 338 339 335 336 336 337 336 338 336 336 334 335 335 334 334 335 335 332 332 332 332 334 334 331 324 325 323 319 316 319 321 323 328 330 334 335 333 333
333 333 333 333 333 333 334 333 334 335 334 334 332 336 334 334 333 334 335 336 338 339 339 338 337 338 336 338 338 339 341 341 339 339 337 333 332 332 332 334 334 334 333 328 328 328 332 332 329 325 318 318 317 317 313 314 322 327 329 331 331 333
332 332 332 333 333 334 334 333 333 333 334 333 332 331 330 330 332 333 334 333 336 339 339 337 337 338 338 336 337 339 339 338 337 337 336 335 333 333 333 333 332 333 332 329 327 326 329 331 331 331 325 319 316 313 312 318 323 323 324 326 328 331
331 331 331 331 333 333 332 331 330 329 328 326 326 327 327 328 331 333 332 334 337 337 335 337 338 336 335 337 337 336 335 334 333 332 335 333 333 332 332 332 332 330 329 330 329 325 324 328 329 331 331 326 324 319 319 321 321 317 323 325 326 327
331 331 333 333 333 334 332 331 330 329 329 328 327 327 330 331 333 333 333 333 335 337 337 336 334 334 337 335 333 332 332 332 331 330 331 328 329 330 331 332 334 331 330 330 329 324 324 326 325 326 329 328 328 328 328 323 317 319 318 320 325 324
332 333 334 335 332 333 333 332 332 331 332 331 330 329 330 332 333 334 333 334 333 332 335 339 335 332 331 330 330 330 330 328 328 329 330 327 328 329 329 330 331 331 330 330 328 325 324 324 322 323 325 325 324 326 326 324 324 323 321 319 321 322
333 334 335 334 333 331 331 333 333 332 331 331 331 330 330 331 332 331 331 331 330 332 334 332 330 328 327 327 329 329 327 326 326 327 328 327 326 327 327 326 326 327 327 327 328 328 323 323 322 322 323 321 322 322 323 322 325 323 321 318 318 318
334 334 334 333 333 331 331 332 331 330 330 329 330 329 327 328 330 330 331 332 332 331 331 329 327 326 326 326 326 326 325 324 324 325 326 324 325 325 325 325 326 326 327 326 327 326 325 324 325 325 325 325 323 321 321 321 319 321 320 319 318 318
334 334 334 333 332 330 328 329 331 330 329 328 328 328 328 329 331 330 331 330 328 328 329 328 326 324 324 324 324 325 323 323 323 324 323 322 322 323 323 323 324 325 325 325 325 326 325 325 325 325 325 325 323 323 322 321 321 322 321 319 319 319
333 334 334 333 331 328 328 329 330 330 329 329 329 329 328 329 331 329 327 327 328 327 325 324 322 321 321 322 322 321 322 321 321 321 320 321 321 322 322 322 322 323 322 324 323 322 321 320 321 321 321 322 323 323 323 322 323 324 322 320 320 319
333 334 332 331 329 329 329 329 330 329 329 329 328 329 326 325 325 324 323 322 324 324 322 319 319 319 319 319 320 319 319 318 318 319 320 319 320 321 321 320 321 321 321 320 319 319 318 318 319 318 318 320 320 320 320 322 323 322 322 322 320 318
333 333 332 332 332 331 330 328 328 328 328 326 325 325 324 323 323 323 322 320 319 319 318 318 317 317 318 319 318 319 319 318 318 319 320 319 319 319 319 319 320 319 319 318 318 318 317 318 318 318 318 317 317 318 318 319 319 320 319 320 320 320
331 331 331 331 330 329 329 328 327 326 324 323 323 322 322 322 322 322 321 319 318 318 317 317 317 317 318 316 317 319 320 318 319 318 318 316 318 318 317 318 319 319 319 318 317 317 317 317 317 316 316 316 316 316 317 318 318 319 320 320 321 320
330 331 330 327 326 326 325 325 324 323 323 324 323 322 321 321 320 319 318 317 317 317 317 316 317 316 316 318 318 319 319 319 317 316 316 316 316 317 317 317 317 317 316 320 316 317 317 317 317 317 317 317 317 316 317 317 318 319 319 320 320 320
329 327 326 324 323 323 323 323 322 322 322 321 320 319 319 319 319 319 318 317 316 316 316 316 317 317 316 319 319 316 316 316 315 315 315 316 316 316 318 317 316 315 315 316 318 318 318 317 318 318 317 318 317 317 317 317 317 317 318 319 319 318

ECMWFFLT2_sfc_thetae_126.txt.gz
Theta_e
347 348 349 349 349 349 351 353 352 353 352 352 351 351 351 351 350 349 348 348 347 340 337 338 340 337 343 340 342 342 343 342 339 340 339 339 340 340 341 341 342 342 343 343 342 342 342 341 343 344 347 347 348 338 331 331 334 337 336 338 341 336
346 347 348 349 349 349 350 351 349 350 350 350 351 351 349 347 350 343 348 346 340 343 337 335 336 346 339 341 341 343 344 342 341 339 340 340 340 340 340 341 342 342 342 342 342 334 334 337 339 341 345 348 343 335 330 330 333 333 338 337 340 339
344 346 347 348 349 349 349 349 349 349 349 350 351 350 345 347 342 342 343 342 342 340 339 338 340 343 343 345 342 344 343 343 343 342 340 340 340 340 341 341 342 342 343 343 335 328 327 326 327 338 343 340 336 335 334 331 332 332 336 336 338 342
342 343 344 346 348 349 349 349 349 348 347 347 347 347 344 343 342 342 343 341 341 341 341 339 346 348 348 341 340 345 344 344 343 343 342 342 342 341 341 342 342 343 342 337 327 325 326 325 327 330 334 335 335 335 333 332 332 331 333 338 338 343
342 343 343 344 346 347 348 348 348 348 346 345 344 344 343 342 342 342 342 342 341 342 341 338 339 341 341 337 333 334 335 335 336 333 343 332 330 335 335 332 332 335 334 332 330 326 324 325 327 329 332 334 335 334 333 334 334 333 333 335 339 344
340 341 342 343 344 347 347 346 346 346 346 344 344 343 342 341 342 342 342 342 343 342 342 338 338 339 336 335 334 334 334 333 334 334 338 334 333 332 332 335 335 333 329 327 327 326 324 329 326 327 332 335 335 333 332 332 334 333 333 334 338 345
338 339 340 342 343 345 345 346 346 345 343 344 343 342 341 341 342 342 342 343 342 341 339 339 339 338 335 335 335 335 335 336 334 335 337 336 335 335 335 334 333 331 327 325 324 324 324 324 324 325 328 333 335 334 334 333 334 333 333 333 338 346
338 338 339 340 340 340 341 342 344 346 344 345 343 342 341 341 342 342 342 342 344 340 339 337 337 335 334 336 336 337 336 335 335 337 338 339 336 334 335 335 333 331 329 326 325 324 324 324 323 324 325 329 334 335 335 335 334 333 333 332 335 345
337 337 337 338 338 337 337 339 342 343 342 346 343 342 342 341 340 340 341 342 343 337 335 336 333 335 336 337 338 338 336 335 335 336 336 336 336 334 334 334 334 332 330 327 325 325 325 327 331 330 329 332 334 334 333 334 332 333 333 332 334 341
338 337 336 336 337 337 335 337 339 341 341 345 342 342 341 339 339 338 339 340 339 334 334 335 334 334 337 338 338 337 336 334 334 334 335 334 336 336 337 336 337 336 334 332 331 331 333 334 335 334 331 331 330 329 329 331 331 332 334 333 334 337
338 338 336 335 336 337 334 336 338 340 340 342 342 341 340 338 336 336 336 336 336 339 337 336 336 335 335 337 337 335 335 334 334 336 337 337 338 338 336 336 336 335 335 335 336 336 336 335 334 335 335 334 333 330 330 331 334 334 334 333 334 335
339 337 336 335 337 336 334 335 337 337 337 339 339 337 338 337 336 335 335 333 336 340 340 338 338 337 336 335 334 334 333 333 333 335 336 337 339 340 339 338 338 338 337 335 336 335 335 334 335 335 334 334 333 331 331 331 333 333 333 332 333 336
339 338 335 334 336 335 335 335 334 334 335 338 337 336 336 335 334 335 335 333 336 339 338 339 337 338 338 333 333 332 332 332 332 334 334 336 340 337 336 336 336 336 337 337 335 335 336 333 332 334 334 335 333 333 333 332 333 333 332 333 332 333
340 338 336 336 336 334 334 334 334 333 336 337 335 334 334 334 335 335 335 333 338 338 338 339 339 336 335 333 332 333 332 331 332 333 334 335 336 337 335 334 334 335 340 333 333 333 332 333 333 332 332 332 331 332 332 332 332 333 333 333 333 332
341 338 339 337 336 334 334 333 332 333 335 335 334 333 333 336 335 333 333 334 338 340 340 340 339 338 336 335 334 333 332 332 333 333 334 334 336 335 335 334 334 336 333 331 331 334 332 332 331 332 332 332 332 332 330 333 333 332 332 333 332 332
337 339 338 336 333 333 333 332 332 338 333 334 334 335 334 335 335 334 336 334 336 336 336 336 336 336 335 334 335 333 333 334 334 333 332 333 334 334 334 335 335 334 330 331 331 331 330 330 330 331 331 331 331 331 331 332 333 333 334 332 332 333
336 337 336 334 332 331 333 333 334 333 333 333 333 332 331 332 334 335 335 334 335 337 336 336 336 337 336 335 336 334 334 334 335 332 331 332 333 335 334 335 333 333 332 328 328 329 329 329 330 331 331 331 332 332 332 332 333 333 334 332 333 332
334 335 336 334 333 334 335 334 332 332 334 332 331 331 331 333 334 335 336 335 337 337 337 336 335 336 337 339 337 334 333 334 334 332 331 332 333 333 332 331 330 329 331 330 327 328 328 329 330 331 331 331 331 331 331 332 333 335 333 333 333 333
334 334 333 333 334 334 333 332 331 330 330 330 331 331 332 333 333 334 334 335 337 336 336 335 336 337 336 336 336 335 332 333 335 333 332 333 332 331 331 330 330 329 329 329 329 329 330 330 330 330 330 330 330 330 331 331 332 332 332 333 334 336
333 333 334 333 333 332 332 331 329 328 328 328 329 333 332 333 333 334 335 335 334 334 336 335 334 334 333 332 333 333 332 335 336 334 334 333 329 328 330 330 329 329 328 328 328 331 330 329 327 325 327 328 328 328 328 329 329 329 332 332 333 333
332 333 333 332 331 331 329 328 326 327 326 325 329 331 333 333 333 335 336 336 337 338 336 336 336 334 334 337 334 334 333 334 334 335 334 332 332 331 331 330 330 328 329 326 325 326 329 328 323 324 321 322 325 327 327 326 326 326 328 332 331 332
332 333 334 333 331 331 329 328 326 325 327 328 329 331 332 333 332 334 333 334 336 335 333 334 335 334 335 333 332 334 334 334 332 331 333 334 333 334 330 330 329 327 327 328 327 327 331 327 319 321 321 321 318 320 323 322 324 328 330 331 332 331
331 332 333 332 331 329 327 327 328 327 330 330 332 332 333 333 334 332 332 335 335 333 333 332 333 334 333 333 333 333 332 330 330 332 332 332 331 331 329 330 329 328 326 326 326 330 329 327 323 322 319 315 311 317 319 317 318 327 328 328 328 330
331 331 331 332 331 329 331 330 331 332 332 333 332 335 331 330 331 332 333 335 335 335 334 331 333 332 331 332 332 333 332 331 331 333 332 330 330 330 330 329 329 328 327 322 324 324 327 326 325 321 317 316 313 312 312 310 318 325 323 324 326 327
331 331 331 333 332 333 333 332 332 332 333 332 331 328 327 326 328 331 331 331 333 336 335 333 334 333 334 334 333 333 333 333 331 331 331 329 329 329 329 329 328 327 326 324 322 321 324 327 326 326 322 315 314 311 309 316 321 322 320 325 325 325
331 331 331 332 333 333 332 331 329 328 326 325 326 325 325 326 327 329 329 330 332 333 334 333 334 333 333 335 331 331 329 328 328 328 328 327 327 327 327 327 328 327 327 325 323 319 321 324 324 326 325 324 323 318 319 319 317 315 320 323 324 324
331 331 331 332 332 332 330 330 329 329 328 327 326 325 325 327 329 329 330 331 331 331 332 331 331 332 332 330 328 327 327 327 327 326 328 325 325 324 325 326 327 326 324 324 323 319 319 321 319 320 325 323 324 325 325 321 315 318 317 317 320 322
331 332 332 332 331 331 330 329 328 327 328 327 326 327 328 329 328 330 330 330 330 331 333 332 329 326 327 327 326 325 325 324 324 325 325 323 323 323 324 324 325 325 325 325 324 322 320 321 320 321 324 323 323 323 321 320 321 318 318 316 317 317
332 333 332 333 332 331 330 330 329 328 327 327 327 328 329 331 329 330 329 328 329 329 327 326 325 324 324 324 325 323 322 322 322 322 324 322 322 322 322 322 322 323 322 322 323 322 320 319 319 318 319 320 320 320 319 318 319 322 317 315 316 316
332 334 333 333 332 332 331 331 329 328 328 328 328 326 327 328 328 327 327 328 327 324 323 322 322 323 323 323 322 322 321 320 320 322 322 320 320 320 320 320 321 321 320 319 319 319 319 318 318 318 318 318 317 317 319 319 319 320 320 317 315 316
333 334 334 333 333 331 331 330 329 329 328 327 326 326 326 326 327 327 327 326 324 322 321 320 321 320 320 320 321 321 319 320 320 322 320 318 319 319 319 319 319 319 318 317 317 317 317 317 317 317 317 316 316 317 316 315 315 317 317 317 316 316
332 333 333 333 332 330 330 330 330 328 328 327 327 326 326 326 328 328 325 322 320 318 317 318 318 318 318 319 319 317 319 318 318 317 317 317 318 318 319 318 318 317 316 316 317 317 315 315 315 315 315 315 315 316 316 316 317 317 316 316 316 316
331 332 332 332 330 329 330 330 329 328 327 327 327 326 327 326 323 323 323 320 317 316 315 315 315 316 316 317 317 316 316 316 316 317 316 316 316 317 317 317 317 316 315 315 315 315 314 314 314 314 314 315 316 315 315 316 318 317 318 317 317 314
331 332 331 330 329 329 329 328 329 328 327 327 324 324 323 321 320 319 318 317 316 315 315 314 314 314 316 317 317 317 316 315 315 316 316 316 316 317 317 317 316 315 315 315 315 314 314 314 314 314 314 314 314 314 314 315 316 316 316 315 314 313
331 331 330 329 330 329 328 327 325 325 324 323 322 321 320 320 318 317 317 316 315 315 315 315 315 315 316 316 316 316 315 314 315 315 315 315 316 316 316 315 315 315 316 315 315 315 315 315 315 315 316 315 315 314 314 314 313 313 314 314 313 312
331 330 330 330 329 327 325 323 323 322 322 322 321 319 318 318 317 317 316 315 314 314 314 314 315 315 315 315 314 314 315 314 314 314 314 315 315 315 315 314 313 313 314 318 315 315 316 315 315 315 314 314 312 311 311 311 311 311 311 311 310 310
330 329 328 327 325 324 323 322 321 321 320 319 318 317 316 315 315 315 315 314 314 314 314 314 315 315 315 315 315 314 313 313 313 313 313 314 314 314 314 313 312 312 314 316 316 315 315 314 315 315 313 312 309 309 308 308 307 307 308 308 309 309

ECMWFFLT2_sfc_thetae_129.txt.gz
Theta_e
346 348 349 349 349 348 350 352 352 352 352 352 351 350 350 350 349 348 347 346 344 336 334 336 335 335 341 336 341 340 341 341 339 339 338 340 339 340 340 342 342 342 343 343 343 343 342 342 341 341 343 345 346 331 327 327 329 334 335 336 341 334
346 348 349 349 348 348 349 350 348 349 349 349 350 349 347 345 348 340 346 343 336 339 333 331 333 343 337 338 339 342 343 341 339 340 339 340 340 340 340 341 342 343 343 343 344 331 331 334 336 337 340 341 333 328 327 327 328 329 334 334 339 337
345 347 348 348 347 347 348 349 348 347 348 349 349 348 343 346 340 337 338 338 340 336 334 335 336 340 340 344 340 344 344 342 341 341 340 339 340 341 340 341 342 343 343 342 330 324 323 322 323 333 334 330 330 331 330 328 327 328 334 334 338 341
345 347 346 346 347 348 348 349 348 347 345 344 344 344 340 341 339 336 338 336 337 336 336 333 344 345 346 339 336 344 344 343 343 343 342 340 341 341 342 342 342 341 338 333 323 324 324 321 322 323 325 326 328 330 331 330 329 330 330 336 339 341
346 346 346 346 346 347 348 348 348 347 346 343 343 341 340 338 338 337 336 337 336 337 335 332 333 333 336 334 332 331 332 332 331 328 341 331 330 331 330 327 328 332 326 326 326 324 323 323 324 323 324 325 328 330 332 331 330 330 331 331 337 342
345 345 346 346 346 347 348 347 346 346 346 345 344 342 341 339 338 338 337 337 338 336 334 333 332 332 334 331 332 331 332 330 330 332 335 332 331 330 330 330 331 332 330 326 325 325 323 328 325 324 323 324 327 330 331 330 330 332 332 331 334 343
343 344 344 346 346 346 346 347 346 346 345 345 343 342 341 339 339 337 337 337 337 335 335 334 331 331 332 331 330 331 333 333 333 333 336 334 334 334 332 332 331 332 329 327 325 324 323 323 322 323 323 324 325 329 331 331 331 331 332 332 335 342
341 343 343 345 345 345 345 345 345 345 345 346 343 341 340 340 339 337 338 339 340 334 335 335 335 332 334 330 332 331 331 333 335 333 334 335 335 334 332 333 333 333 332 330 327 326 324 324 322 322 323 324 325 329 332 332 333 333 333 332 333 340
339 340 341 343 343 344 344 344 344 344 343 346 342 340 338 337 337 337 338 339 340 336 334 335 334 333 331 332 334 334 334 334 333 334 334 335 336 335 332 331 333 333 331 330 327 325 325 326 326 328 327 328 330 331 331 331 331 332 331 331 331 335
337 338 339 342 342 342 342 342 343 344 343 345 340 339 336 336 336 336 338 339 339 336 333 332 331 330 332 335 336 336 335 333 333 332 334 334 334 334 333 332 332 333 333 331 329 330 332 332 334 334 331 330 330 330 328 326 328 329 331 331 331 333
335 338 336 338 338 339 341 341 342 343 342 342 341 340 338 336 335 336 338 336 336 336 334 333 332 331 333 337 337 335 334 335 335 333 334 335 334 335 334 333 334 332 331 330 333 333 334 333 332 334 333 333 332 331 329 328 329 330 329 331 331 331
335 336 336 335 338 336 337 338 339 339 339 340 340 337 337 337 336 335 335 333 334 335 337 333 332 333 335 335 334 333 333 332 331 331 333 334 334 337 336 335 335 334 333 332 333 333 331 330 331 333 331 333 333 331 329 329 329 331 330 330 330 331
335 336 335 335 336 336 335 336 337 337 337 338 338 338 336 335 335 335 333 330 333 336 337 335 335 336 338 333 332 331 331 331 330 332 333 334 336 336 332 332 331 333 332 330 331 330 332 330 329 332 331 333 332 331 331 329 329 328 329 330 330 330
335 335 335 335 336 336 334 334 336 335 336 335 335 335 336 335 334 334 333 330 334 337 336 335 336 334 333 331 331 332 331 330 330 331 332 333 333 334 333 331 331 330 336 329 329 328 329 331 330 329 329 330 329 330 329 329 329 330 330 330 330 329
337 334 336 334 335 334 333 333 333 333 333 334 334 334 333 334 332 333 332 330 334 336 335 336 335 335 333 331 330 331 330 331 331 332 333 332 332 332 330 331 331 331 329 327 326 329 328 328 327 329 330 330 330 330 327 329 329 330 330 330 328 330
336 334 335 334 334 334 333 332 332 336 332 332 334 333 332 333 333 332 333 334 334 336 334 334 334 334 333 331 331 331 331 333 334 333 332 331 331 333 330 332 330 330 329 327 328 328 327 327 328 329 329 329 329 329 329 328 329 330 330 330 331 330
335 335 334 334 334 333 332 332 331 334 332 332 333 333 331 331 332 333 332 333 333 336 333 334 334 336 335 333 333 332 333 334 335 332 331 330 330 333 331 334 328 330 327 327 325 326 328 326 328 329 329 329 330 330 329 329 329 329 331 328 330 330
335 336 335 334 333 332 332 332 332 332 334 332 331 331 331 332 332 332 333 333 334 335 335 334 334 334 335 338 336 333 333 333 333 331 330 330 332 331 329 328 327 327 328 326 325 324 326 327 328 329 328 328 329 328 328 328 328 332 328 330 329 329
335 333 332 332 332 332 332 331 331 331 330 329 330 330 331 332 332 332 333 334 335 335 335 333 334 336 334 334 332 332 331 333 333 332 331 332 332 329 328 326 328 327 327 326 326 325 327 327 328 327 327 327 327 327 327 325 326 325 326 328 330 333
333 332 332 333 332 331 331 330 329 328 328 328 329 331 329 331 330 331 334 335 334 333 334 333 332 333 333 332 330 331 331 332 333 333 331 332 329 326 327 326 326 327 325 325 325 325 325 325 322 321 323 325 325 324 324 325 322 323 326 326 328 328
332 331 332 331 330 330 329 328 328 328 327 325 329 328 330 329 331 332 332 333 334 334 334 334 333 332 331 335 331 331 330 331 332 333 331 329 329 328 328 328 327 326 325 323 325 324 328 322 322 322 318 318 320 321 322 322 321 325 327 327 326 326
330 331 332 332 331 331 330 330 328 326 326 328 329 328 329 331 331 333 333 335 335 333 332 333 334 333 333 330 329 331 330 331 331 330 332 331 330 331 327 327 326 325 323 324 325 325 328 322 318 317 317 319 315 320 319 317 320 327 327 327 326 326
330 330 331 332 331 330 328 328 328 326 329 329 332 332 331 332 333 331 332 334 333 331 331 332 333 333 331 331 330 329 329 329 329 331 330 329 329 329 328 327 324 325 323 321 322 326 326 323 320 318 316 313 308 316 317 315 314 325 326 325 323 325
330 330 331 332 331 330 330 330 331 331 332 332 331 334 331 330 330 331 332 333 331 331 331 329 330 331 329 329 329 329 329 330 329 330 327 326 326 327 327 326 326 326 320 319 320 322 324 323 322 319 314 314 312 309 311 308 314 322 318 321 323 324
331 330 330 332 331 332 332 331 332 332 333 332 331 328 326 325 327 331 330 331 332 332 331 331 331 331 334 329 329 329 328 327 326 326 326 325 324 325 325 324 324 324 323 319 318 317 322 324 323 324 318 311 311 307 307 312 318 317 316 324 323 322
330 330 330 331 332 332 331 330 329 328 327 327 326 326 325 326 326 327 329 332 332 331 332 332 331 331 330 329 326 326 325 325 325 325 325 323 323 323 324 323 323 321 322 321 319 319 318 322 321 323 322 318 317 316 318 317 313 313 316 317 317 319
330 330 331 331 332 332 330 330 329 328 328 328 327 325 324 325 327 328 330 329 328 329 330 329 327 327 326 326 324 324 323 323 323 323 325 322 322 321 322 323 323 322 321 321 321 317 317 317 316 319 321 320 321 320 320 317 314 318 314 316 317 319
330 330 331 332 331 331 330 329 328 328 328 328 327 326 326 327 328 330 329 329 329 328 325 324 324 323 324 324 323 322 322 322 322 323 323 321 320 320 321 322 322 321 321 321 319 317 315 316 314 315 319 317 317 318 317 316 319 317 316 313 314 315
330 330 331 331 331 330 331 330 329 328 327 327 327 327 329 330 328 329 329 329 325 322 322 322 322 321 321 322 323 321 321 320 320 320 322 320 320 320 319 318 318 318 317 318 319 317 316 314 314 313 313 314 314 314 315 315 316 316 314 312 312 312
330 330 331 331 330 329 330 330 328 328 327 327 329 328 328 327 327 328 328 323 320 320 320 319 319 320 320 320 320 320 319 319 319 321 321 318 319 318 318 317 317 317 316 316 316 316 315 314 314 314 314 313 312 312 313 313 314 316 315 315 312 312
330 331 331 331 330 329 329 329 329 328 328 327 328 327 326 326 327 327 323 320 319 318 318 318 318 318 318 318 319 321 318 318 319 321 319 317 317 317 316 316 316 316 315 314 314 314 314 314 313 313 313 312 313 314 313 312 313 314 314 313 312 313
330 331 332 332 331 330 330 329 329 329 328 328 327 327 325 325 327 325 321 318 317 317 316 317 317 317 318 318 318 316 317 316 317 315 315 316 316 316 316 315 315 315 314 314 314 314 313 312 312 312 312 313 312 313 313 313 314 315 314 313 313 312
330 331 332 332 330 330 330 329 329 329 328 328 327 327 326 327 326 322 318 316 315 315 315 315 316 316 316 316 316 314 315 314 314 315 315 315 315 315 315 314 314 313 313 312 312 312 312 311 312 311 311 311 311 311 310 312 312 312 312 312 312 309
331 332 331 331 330 330 330 329 329 329 328 328 327 327 327 326 323 320 318 316 315 314 313 313 314 314 314 315 315 315 314 313 314 315 316 315 314 314 314 314 313 313 312 312 312 312 312 312 312 311 311 309 308 308 307 308 309 309 308 308 307 307
331 331 331 329 329 329 328 328 328 328 327 326 326 324 322 322 319 317 316 315 314 314 314 313 314 314 315 314 314 314 314 312 313 313 313 313 314 313 313 313 313 313 313 312 312 313 312 312 311 309 308 307 306 304 304 304 305 305 306 306 306 306
331 330 330 330 329 328 327 326 326 325 325 324 322 320 319 319 317 316 315 314 313 313 313 313 314 314 313 313 312 312 312 311 312 312 312 312 312 312 311 311 310 311 312 315 312 312 312 310 308 306 305 305 304 303 303 303 303 303 303 304 305 305
330 330 330 329 327 325 324 323 322 322 321 320 319 318 316 316 315 316 315 314 313 313 314 314 314 314 313 312 312 311 310 310 310 310 310 311 311 311 311 311 311 310 310 311 312 311 311 309 306 304 304 303 302 302 302 302 301 301 301 301 302 303

ECMWFFLT2_sfc_thetae_132.txt.gz
Theta_e
347 348 349 349 348 348 350 352 351 352 351 351 350 350 350 349 347 347 346 346 344 337 336 335 337 336 341 338 340 339 340 340 339 339 338 340 339 340 341 341 342 343 344 344 344 341 338 337 338 338 339 341 344 332 331 331 332 337 336 337 342 336
347 348 348 349 348 347 349 350 348 348 349 349 350 349 347 345 347 341 346 341 337 342 332 330 335 343 338 339 340 342 342 341 339 339 339 339 340 340 340 341 342 343 343 343 341 332 330 331 333 335 337 336 334 330 332 332 332 334 338 337 340 339
346 347 347 348 347 347 347 347 347 347 348 349 350 348 344 345 339 338 338 337 340 336 334 338 339 340 341 343 341 344 343 342 341 340 339 338 339 340 341 342 342 342 341 339 332 328 327 325 324 331 331 327 329 332 331 331 332 332 336 337 339 341
346 346 346 347 347 347 347 347 347 347 347 346 344 344 341 340 339 336 336 337 337 339 336 331 343 345 347 338 335 342 343 343 343 343 341 338 339 338 339 338 338 339 334 331 328 328 327 325 325 325 325 325 326 328 331 333 332 333 333 336 340 341
345 346 346 346 346 347 347 347 347 347 346 345 343 341 340 339 338 337 337 338 336 339 334 333 332 334 334 336 333 331 332 331 329 329 339 334 331 331 332 329 329 332 328 329 329 327 327 326 327 326 326 326 326 328 330 333 333 333 333 334 337 342
345 345 346 345 346 347 347 346 346 346 346 345 344 343 342 340 339 339 337 338 341 338 336 334 332 331 333 334 334 333 333 333 331 333 337 334 332 333 332 332 332 333 333 330 329 328 326 331 328 326 325 326 327 328 329 332 333 334 335 334 335 340
344 344 344 345 346 346 346 346 346 346 345 344 343 342 342 340 340 339 339 340 337 337 338 336 333 330 331 332 332 332 333 334 334 334 336 336 334 334 334 334 334 334 333 332 332 329 327 326 326 325 326 326 327 328 330 333 334 334 335 335 336 339
343 344 343 344 345 345 346 345 345 344 345 345 343 341 342 342 341 340 340 340 341 336 337 338 338 334 332 333 333 332 331 333 334 335 336 338 336 336 335 334 334 334 334 333 332 331 329 327 326 325 326 329 330 332 333 334 335 336 336 336 336 337
342 343 343 344 344 345 345 345 344 343 344 345 343 342 341 341 340 341 341 340 341 335 335 337 337 338 334 335 335 335 335 334 334 334 335 336 335 335 335 334 334 334 334 333 332 332 332 333 332 333 333 333 333 333 333 333 332 332 333 334 335 336
342 342 343 344 343 344 344 343 343 343 343 344 342 341 341 340 341 340 339 339 340 336 334 334 334 332 334 335 336 336 335 334 334 333 334 335 336 336 336 335 336 336 335 335 334 334 338 336 336 337 335 335 334 334 334 333 332 332 333 334 335 336
341 342 343 342 342 343 344 343 343 344 343 342 342 341 340 338 338 339 338 337 337 339 336 333 332 332 333 336 336 335 334 334 334 334 334 336 336 336 335 336 336 336 336 334 335 335 336 336 335 335 335 335 335 335 334 334 332 333 334 335 335 335
340 341 342 341 342 342 342 342 342 343 343 343 341 340 339 337 337 336 336 335 336 336 339 333 332 332 334 336 335 334 334 333 333 333 334 335 335 337 338 337 337 337 336 334 335 335 334 334 334 334 334 334 335 334 334 334 333 332 334 334 334 335
340 340 341 340 340 341 341 341 341 342 342 342 342 340 339 337 337 335 334 334 334 336 337 335 332 334 337 335 334 332 332 332 331 331 332 334 336 336 335 334 335 336 334 334 333 333 334 333 332 333 332 334 333 333 333 333 333 332 333 334 334 335
338 338 339 340 340 339 339 340 340 340 341 341 340 339 338 336 336 335 334 332 333 335 335 333 333 334 336 334 332 332 331 330 330 331 332 333 333 334 335 335 334 334 337 334 332 331 332 332 332 331 332 332 332 333 332 332 333 334 334 334 335 334
337 335 338 337 338 338 338 338 338 338 338 338 337 336 335 335 334 334 333 331 333 336 335 334 334 334 333 332 331 331 331 332 332 334 333 333 333 333 333 334 333 334 333 330 330 331 332 330 330 330 331 332 332 332 332 332 332 333 334 334 334 334
335 334 335 335 336 336 336 336 336 337 334 334 334 334 333 334 333 332 333 331 334 337 336 335 334 333 332 331 331 330 330 333 335 334 332 331 333 333 333 334 332 333 333 332 331 331 330 329 330 331 331 331 332 332 332 331 332 332 333 333 333 334
333 333 333 333 334 333 333 333 333 335 332 332 333 333 332 331 332 332 331 333 335 337 334 334 334 335 334 333 332 332 332 334 335 333 331 331 332 333 334 334 332 332 332 330 329 328 329 329 330 331 331 331 331 332 331 331 331 332 333 332 332 333
333 333 333 333 333 333 332 332 331 332 334 331 332 332 331 332 332 332 332 334 335 336 335 334 334 335 337 337 334 332 331 332 333 332 331 332 332 332 331 331 331 330 330 330 329 328 329 330 330 330 330 330 330 330 329 329 330 334 330 331 332 333
334 332 331 332 332 332 331 330 329 329 330 329 329 330 331 332 331 332 333 334 335 335 335 333 335 335 335 336 332 331 331 332 334 333 332 332 332 331 331 329 329 328 329 328 329 329 329 328 329 328 328 329 328 328 327 328 330 328 330 330 331 334
332 331 330 330 331 329 330 329 328 328 328 329 329 331 330 331 331 332 335 335 334 334 334 334 333 333 332 331 331 331 331 332 333 332 332 331 330 329 330 330 328 329 327 329 328 329 328 328 326 325 326 327 326 325 325 327 326 328 329 329 330 331
329 330 330 329 329 329 328 328 327 328 327 327 330 330 330 330 332 333 334 334 334 334 334 334 333 333 333 336 330 330 330 331 332 332 331 330 330 330 330 329 327 329 328 327 329 330 329 324 324 325 322 321 321 323 325 324 324 328 328 329 328 329
328 329 330 330 330 330 329 329 327 327 327 329 330 330 330 332 332 334 335 335 335 334 333 333 334 333 331 329 330 331 330 330 330 332 333 332 332 332 328 328 327 328 326 327 328 329 327 324 321 321 320 320 317 322 322 320 324 328 328 328 327 328
330 329 329 330 330 329 328 329 328 326 330 329 332 332 332 334 334 333 334 334 333 333 334 334 334 334 331 330 330 330 329 328 329 333 329 328 328 328 327 326 326 328 326 324 326 328 326 324 323 319 318 317 313 316 319 319 320 327 326 326 327 328
330 329 329 330 331 329 330 330 331 331 331 332 331 333 332 332 333 333 332 333 332 332 333 332 332 332 331 330 330 330 329 328 329 329 328 326 326 326 326 326 326 326 323 323 321 324 326 324 323 319 316 317 315 311 311 313 319 323 321 325 326 326
330 330 330 331 330 331 332 331 332 332 332 331 332 330 328 328 331 332 331 331 331 332 332 332 332 333 333 330 328 327 327 326 326 326 326 325 324 324 324 324 324 325 323 322 320 318 323 324 323 324 320 314 312 310 310 317 320 318 321 325 324 324
331 331 330 330 331 331 330 330 329 328 326 326 326 327 326 327 329 330 330 332 332 333 332 331 329 329 329 328 326 325 325 325 325 325 325 324 324 324 323 323 324 323 323 322 320 318 318 322 322 322 321 321 317 317 317 320 317 314 322 322 322 323
329 329 330 331 331 331 329 330 329 328 327 327 326 326 324 327 329 331 332 330 330 329 328 327 326 326 325 326 324 324 324 324 324 324 325 323 322 322 322 323 323 322 321 321 320 317 316 316 318 319 319 320 321 320 321 319 314 315 313 319 321 320
329 330 330 331 331 331 329 329 328 328 328 327 327 326 327 328 331 331 329 327 325 324 325 325 324 324 324 324 323 322 322 322 323 323 323 321 321 321 321 321 322 321 321 320 319 317 315 315 315 315 318 317 317 319 318 319 319 316 314 311 313 318
329 330 330 331 331 331 331 329 329 328 327 326 327 327 329 331 330 329 325 323 322 322 322 322 322 321 322 322 323 321 321 321 321 322 322 320 320 319 319 318 318 318 317 318 319 317 316 314 314 313 314 314 315 315 316 317 317 317 313 310 309 312
328 329 330 331 331 330 330 330 328 327 327 327 328 329 329 328 328 326 322 321 321 320 320 320 320 320 320 320 320 320 320 320 321 322 321 318 318 317 317 317 317 317 316 316 316 316 315 314 314 314 314 314 313 314 315 315 314 314 314 315 310 309
328 329 330 330 330 329 330 330 329 327 327 327 328 328 327 327 326 322 320 319 319 318 319 318 318 318 319 319 320 320 319 319 320 321 319 317 316 316 316 316 316 316 315 315 315 315 314 314 313 313 312 312 311 311 310 309 310 311 311 309 309 309
328 329 330 330 329 329 329 329 329 328 328 329 328 328 327 326 324 321 319 318 318 317 317 317 316 316 317 317 318 317 319 318 318 317 316 316 316 316 316 315 315 315 314 315 315 315 314 313 312 311 310 310 308 309 308 308 308 309 308 307 308 307
327 329 330 330 329 329 328 328 328 328 329 329 328 328 328 327 323 319 317 316 316 315 315 315 315 315 316 317 317 316 316 316 316 317 316 316 315 315 315 315 315 314 314 313 313 313 311 310 310 308 306 306 305 304 304 306 306 306 307 308 307 305
327 329 330 330 329 328 328 328 328 328 328 329 327 327 328 325 321 318 317 316 315 315 315 315 316 315 316 316 315 316 316 315 315 316 316 315 315 315 315 314 314 313 313 313 313 311 309 308 307 306 306 304 303 303 302 303 303 303 303 305 304 303
329 330 330 330 329 329 328 328 327 327 327 327 327 327 326 322 319 317 316 315 314 315 315 316 315 315 315 314 314 315 314 313 313 313 314 314 314 313 314 314 314 314 314 312 310 308 306 305 304 304 304 304 303 302 302 302 302 301 301 302 302 303
330 330 330 330 330 329 329 327 326 325 325 326 326 323 321 319 317 317 316 315 315 315 316 316 315 314 313 313 313 313 313 312 312 313 313 313 313 313 313 312 312 313 312 312 308 306 305 304 304 303 303 303 302 301 302 301 301 301 301 301 301 302
330 330 330 329 328 328 327 326 325 324 323 322 322 320 317 316 316 316 316 316 315 315 316 315 314 314 312 312 312 312 311 311 311 312 312 312 312 312 312 311 311 311 310 309 307 305 305 304 303 303 302 302 301 301 301 301 301 301 301 301 301 301

ECMWFFLT2_sfc_thetae_135.txt.gz
Theta_e
348 349 349 351 352 352 352 353 352 352 351 351 350 350 350 348 347 347 346 346 345 345 345 345 343 343 341 342 339 339 339 339 339 339 339 340 340 340 341 342 342 343 343 343 342 338 337 337 337 337 338 342 343 344 342 341 341 342 342 343 345 343
346 348 349 349 350 352 352 352 353 351 353 352 351 350 350 348 347 348 345 345 345 344 343 344 343 342 343 343 342 341 341 339 339 339 339 340 340 340 341 342 342 342 342 342 339 338 339 339 335 335 336 337 339 340 342 341 341 340 340 343 344 344
346 348 349 349 350 351 352 352 353 352 351 350 351 350 348 348 348 347 346 344 344 344 342 343 344 342 343 342 343 343 343 342 341 340 339 339 341 341 342 342 341 340 338 337 342 338 338 338 340 337 334 338 343 341 342 342 342 342 341 342 343 345
347 348 347 348 349 350 350 351 350 350 351 351 350 349 348 347 346 346 345 345 343 343 342 344 344 346 346 344 343 342 343 343 343 342 341 340 339 338 337 336 336 336 341 344 344 344 341 342 343 344 345 344 343 342 343 343 342 343 344 341 341 346
348 347 347 348 348 349 350 349 350 350 349 350 348 347 347 346 345 345 344 345 344 343 342 343 345 345 344 344 342 341 342 342 343 343 340 344 344 342 344 345 346 345 346 347 345 346 345 343 345 345 346 346 346 346 345 345 344 343 344 345 345 343
346 348 348 347 348 348 349 348 348 348 349 348 347 346 346 345 344 345 344 344 344 343 343 342 344 344 345 345 343 343 343 343 343 343 344 345 345 347 348 347 347 346 347 348 347 347 346 345 345 344 344 346 345 345 344 345 344 345 346 346 346 341
345 346 347 348 348 348 348 348 348 348 347 346 347 345 344 344 344 344 344 344 343 343 343 343 343 344 344 345 344 345 345 346 346 345 346 347 347 348 348 348 348 348 348 347 346 346 345 344 345 343 344 344 345 344 345 345 344 344 345 345 344 341
345 345 346 347 348 347 348 348 347 348 347 346 346 345 344 344 344 344 345 346 345 344 344 343 344 344 344 346 345 345 346 345 346 347 348 349 347 347 347 348 348 347 346 347 345 346 345 343 345 346 344 345 344 345 346 345 346 346 345 345 344 345
344 345 346 347 347 347 347 348 348 347 346 346 345 344 344 345 343 344 345 346 346 345 345 345 344 344 345 345 345 345 346 344 345 349 349 347 347 348 347 347 348 346 348 347 346 346 345 344 345 346 345 343 344 344 346 346 346 344 344 343 345 344
344 344 345 346 346 347 347 346 346 346 346 347 346 345 345 343 343 343 343 345 345 345 346 345 345 346 345 345 345 345 346 345 347 347 348 347 348 349 348 348 348 347 344 346 345 345 346 344 342 344 343 343 345 344 345 345 344 344 344 345 346 346
343 345 345 344 345 347 347 346 345 346 347 346 346 345 344 344 343 344 344 345 345 345 347 348 346 345 346 345 345 345 347 348 348 347 349 349 351 349 349 350 349 347 347 346 345 345 344 343 343 341 343 342 343 344 344 345 345 346 345 346 346 347
343 344 344 344 345 346 346 345 346 346 346 346 346 344 343 344 343 344 344 345 345 346 347 346 347 346 345 345 345 344 346 348 347 348 349 348 348 350 351 349 350 350 349 348 346 345 346 343 342 340 342 340 341 342 342 344 344 344 345 345 345 348
342 343 343 344 344 346 347 345 345 346 346 347 344 344 344 344 345 345 345 346 346 346 347 347 348 347 345 345 344 343 344 346 348 348 348 348 348 350 350 350 348 349 347 347 345 345 344 344 342 341 342 339 341 340 343 343 343 344 344 345 346 348
341 341 343 345 344 345 345 344 345 345 346 346 345 344 344 345 345 345 346 346 346 347 347 348 347 346 345 343 343 343 345 345 346 347 347 348 347 349 347 347 345 345 343 344 342 343 342 340 340 340 341 341 341 343 343 343 342 343 345 346 347 347
341 341 342 344 343 344 344 343 343 344 345 345 345 345 344 345 344 346 347 346 346 347 347 347 347 345 344 343 344 344 344 346 345 347 347 348 347 348 347 345 343 342 344 342 341 342 341 341 341 339 340 343 341 342 345 342 343 341 342 344 346 346
340 340 341 343 342 343 343 343 343 343 344 345 344 344 344 345 346 347 348 347 347 347 346 346 347 346 346 345 345 345 346 345 344 347 347 347 348 346 345 345 346 346 341 338 340 340 341 340 341 340 343 343 343 343 343 341 341 342 343 345 344 346
338 340 340 342 341 342 341 341 342 342 342 343 343 343 345 347 346 346 347 346 347 346 345 346 348 347 346 346 346 347 348 348 348 348 346 346 346 346 346 344 345 346 345 340 338 339 340 341 340 341 342 341 342 343 342 340 341 341 343 343 344 343
339 340 340 340 340 340 341 340 340 342 343 343 345 346 347 346 346 347 346 346 346 346 345 347 347 346 346 346 347 347 347 347 347 348 346 347 345 346 347 347 343 345 344 342 340 340 340 340 340 340 340 341 342 342 340 340 341 341 340 340 341 341
339 339 339 339 340 340 340 340 342 343 343 344 344 345 346 345 345 345 345 345 345 346 345 347 345 345 346 346 346 346 347 347 347 346 346 345 344 345 345 346 344 343 345 343 341 341 340 339 339 339 338 339 341 341 340 340 340 340 339 341 340 339
339 340 341 341 340 339 338 337 336 337 339 341 342 341 342 343 343 343 343 344 344 345 344 345 345 345 346 346 345 346 346 346 347 347 345 343 343 342 343 342 343 342 341 341 341 340 340 338 338 339 336 337 341 339 341 341 340 339 339 340 339 338
337 339 338 336 336 335 334 334 334 335 336 337 339 340 339 340 341 343 343 343 344 345 344 344 344 344 344 343 343 344 345 345 346 346 345 345 346 345 346 345 344 344 340 339 339 340 339 339 336 332 336 337 337 338 339 341 339 337 337 337 337 335
338 338 339 337 336 335 335 336 334 334 335 335 337 337 337 339 341 342 343 343 344 344 344 344 344 344 343 343 344 343 344 345 346 346 346 346 346 344 346 345 344 340 341 338 336 337 338 337 332 328 326 327 331 334 336 339 338 336 337 337 336 334
337 338 338 338 336 335 335 334 334 334 335 335 338 340 341 340 341 341 343 343 343 343 343 343 343 342 341 342 342 343 344 345 346 346 344 343 344 344 344 344 343 339 336 338 336 336 336 336 329 331 332 328 325 322 329 333 336 335 334 335 335 333
337 339 338 337 336 335 335 334 336 336 336 337 335 338 339 340 341 341 339 341 342 343 342 342 342 341 341 342 342 344 344 345 344 345 343 342 342 341 343 342 342 340 338 334 333 332 334 334 333 329 321 322 322 321 322 325 325 330 332 333 333 332
338 338 338 337 336 336 335 334 334 335 336 335 336 336 336 335 337 338 338 339 339 341 341 340 341 341 341 340 342 342 342 342 341 341 342 340 339 339 339 340 341 339 337 335 332 332 332 332 332 333 328 324 322 322 320 323 324 327 330 329 330 331
339 338 337 337 336 335 333 332 331 330 328 329 329 331 332 333 334 335 336 338 339 340 340 340 340 340 339 339 339 339 340 339 339 339 339 338 338 338 337 337 337 338 337 337 334 331 330 331 331 330 331 330 326 318 319 322 322 317 327 330 330 328
338 337 338 336 337 336 335 335 333 331 329 328 329 332 336 337 336 336 336 336 337 339 338 337 336 336 336 336 337 337 338 338 338 337 337 337 336 335 333 334 335 335 334 334 334 329 329 328 330 329 328 328 328 327 327 321 317 319 317 323 327 325
336 337 337 337 337 338 335 336 334 332 330 332 333 332 333 335 336 335 334 334 335 335 334 334 334 333 334 334 335 335 336 336 335 335 333 332 332 332 332 332 333 333 332 332 332 329 327 327 326 325 327 326 326 326 325 324 323 318 316 315 317 324
334 336 336 337 337 338 338 337 335 332 330 333 334 333 334 335 333 333 332 332 333 331 330 331 331 332 332 332 333 334 334 334 334 332 331 330 330 330 331 331 331 330 329 328 329 328 327 324 324 323 324 324 324 323 323 322 321 321 316 314 314 315
332 335 336 337 338 338 335 334 332 332 331 331 332 332 334 332 331 331 329 329 330 328 327 327 329 329 329 330 331 333 332 332 331 329 328 328 329 329 329 328 329 328 328 326 326 325 324 322 322 321 320 320 319 319 320 319 317 316 316 318 312 312
333 335 336 337 337 334 332 332 330 331 331 331 332 332 330 328 328 329 327 326 326 326 326 326 327 327 328 329 330 330 330 330 330 329 328 327 328 327 327 327 326 326 325 324 323 322 321 320 319 318 318 317 315 315 314 313 312 313 313 312 311 311
333 334 335 336 333 331 330 332 331 332 333 331 333 332 330 328 328 327 325 324 324 324 325 326 326 325 326 328 329 328 328 328 328 328 327 327 327 326 326 325 325 324 323 322 322 320 318 317 315 314 314 314 313 314 314 312 313 313 312 311 311 310
332 333 334 335 332 331 331 332 332 332 333 333 334 334 332 329 328 325 324 323 325 324 323 323 324 324 325 326 326 327 328 327 326 326 326 325 325 325 325 324 322 321 320 318 316 316 313 314 313 312 311 312 312 312 311 312 313 312 313 313 311 307
331 333 333 334 331 330 331 332 334 333 333 333 333 335 332 329 327 326 324 323 325 325 325 324 323 324 325 325 326 326 326 326 325 325 325 325 325 324 324 321 321 318 316 315 315 314 313 313 312 312 312 310 310 310 310 311 312 311 311 310 308 306
331 332 333 332 330 329 331 332 333 334 334 335 334 334 333 331 328 327 326 324 325 326 323 322 322 323 324 324 324 324 325 324 324 324 324 324 323 323 322 320 317 316 315 314 313 313 311 311 310 311 311 310 310 310 310 310 310 310 310 309 308 307
331 332 333 333 331 331 331 332 332 332 333 335 334 334 328 326 327 326 323 323 323 323 322 321 321 322 322 323 322 323 323 323 323 323 323 322 321 320 320 318 315 315 313 313 312 311 310 310 310 310 310 311 310 309 310 310 310 310 310 310 309 308
331 332 332 333 331 331 331 330 330 332 333 333 331 327 324 322 321 321 321 321 321 320 321 320 320 320 320 321 321 322 321 321 322 321 320 320 320 319 318 316 314 313 312 312 311 310 310 310 310 310 310 310 309 309 310 311 310 310 310 310 309 308